Letzte Messung
Zeitpunkt Temperatur Luftfeuchte Luftdruck
2021-05-15 12:11:28 12.77 ℃ 100 % 1006.79 hPa

<
Zeitpunkt Temperatur Luftfeuchte Luftdruck
2021-05-15 12:11:28 12.77 ℃ 100 % 1006.79 hPa
2021-05-15 12:01:28 12.68 ℃ 100 % 1006.86 hPa
2021-05-15 11:51:28 12.66 ℃ 100 % 1006.9 hPa
2021-05-15 11:41:28 12.6 ℃ 100 % 1006.9 hPa
2021-05-15 11:31:28 12.45 ℃ 100 % 1006.88 hPa
2021-05-15 11:21:35 12.38 ℃ 100 % 1006.86 hPa
2021-05-15 11:11:28 12.23 ℃ 100 % 1006.91 hPa
2021-05-15 11:01:28 12.03 ℃ 100 % 1006.98 hPa
2021-05-15 10:51:28 11.54 ℃ 100 % 1007.04 hPa
2021-05-15 10:41:28 11.29 ℃ 100 % 1007.13 hPa
2021-05-15 10:31:28 11.03 ℃ 100 % 1007.16 hPa
2021-05-15 10:21:28 10.97 ℃ 100 % 1007.13 hPa
2021-05-15 10:11:28 10.92 ℃ 100 % 1007.09 hPa
2021-05-15 10:01:28 10.91 ℃ 100 % 1007.08 hPa
2021-05-15 09:51:28 10.86 ℃ 100 % 1007.06 hPa
2021-05-15 09:41:28 10.78 ℃ 100 % 1007.09 hPa
2021-05-15 09:31:28 10.64 ℃ 100 % 1007.13 hPa
2021-05-15 09:21:28 10.75 ℃ 100 % 1007.13 hPa
2021-05-15 09:11:28 10.57 ℃ 100 % 1007.1 hPa
2021-05-15 09:01:28 10.44 ℃ 100 % 1007.06 hPa
2021-05-15 08:51:28 10.4 ℃ 100 % 1007.03 hPa
2021-05-15 08:41:28 10.41 ℃ 100 % 1007.01 hPa
2021-05-15 08:31:28 10.33 ℃ 100 % 1007.01 hPa
2021-05-15 08:21:28 10.37 ℃ 100 % 1007 hPa
2021-05-15 08:11:28 10.47 ℃ 100 % 1006.97 hPa
2021-05-15 08:01:28 10.57 ℃ 100 % 1006.97 hPa
2021-05-15 07:51:28 10.84 ℃ 100 % 1006.91 hPa
2021-05-15 07:41:28 10.54 ℃ 100 % 1006.89 hPa
2021-05-15 07:31:28 10.43 ℃ 100 % 1006.85 hPa
2021-05-15 07:21:28 10.12 ℃ 100 % 1006.86 hPa
2021-05-15 07:11:28 9.96 ℃ 100 % 1006.88 hPa
2021-05-15 07:01:28 10.41 ℃ 100 % 1006.85 hPa
2021-05-15 06:51:28 10.51 ℃ 100 % 1006.86 hPa
2021-05-15 06:41:28 10.39 ℃ 100 % 1006.84 hPa
2021-05-15 06:31:28 10.03 ℃ 100 % 1006.87 hPa
2021-05-15 06:21:28 10.1 ℃ 100 % 1006.86 hPa
2021-05-15 06:11:28 10.13 ℃ 100 % 1006.85 hPa
2021-05-15 06:01:28 9.64 ℃ 100 % 1006.85 hPa
2021-05-15 05:51:29 9.49 ℃ 100 % 1006.89 hPa
2021-05-15 05:41:28 9.53 ℃ 100 % 1006.9 hPa
2021-05-15 05:31:28 9.43 ℃ 100 % 1006.88 hPa
2021-05-15 05:21:28 9.42 ℃ 100 % 1006.91 hPa
2021-05-15 05:11:28 9.42 ℃ 100 % 1006.89 hPa
2021-05-15 05:01:28 9.41 ℃ 100 % 1006.93 hPa
2021-05-15 04:51:28 9.4 ℃ 100 % 1007.03 hPa
2021-05-15 04:41:29 9.45 ℃ 100 % 1007.08 hPa
2021-05-15 04:31:29 9.54 ℃ 100 % 1007.14 hPa
2021-05-15 04:21:29 9.4 ℃ 100 % 1007.2 hPa
2021-05-15 04:11:29 9.43 ℃ 100 % 1007.26 hPa
2021-05-15 04:01:29 9.45 ℃ 100 % 1007.35 hPa
2021-05-15 03:51:29 9.39 ℃ 100 % 1007.36 hPa
2021-05-15 03:41:29 9.5 ℃ 100 % 1007.39 hPa
2021-05-15 03:31:29 9.5 ℃ 100 % 1007.43 hPa
2021-05-15 03:21:29 9.39 ℃ 100 % 1007.43 hPa
2021-05-15 03:11:29 9.38 ℃ 100 % 1007.38 hPa
2021-05-15 03:01:29 9.43 ℃ 100 % 1007.36 hPa
2021-05-15 02:51:29 9.3 ℃ 100 % 1007.37 hPa
2021-05-15 02:41:29 9.29 ℃ 100 % 1007.38 hPa
2021-05-15 02:31:29 9.23 ℃ 100 % 1007.41 hPa
2021-05-15 02:21:29 9.22 ℃ 100 % 1007.4 hPa
2021-05-15 02:11:31 9.35 ℃ 100 % 1007.41 hPa
2021-05-15 02:01:29 9.51 ℃ 100 % 1007.38 hPa
2021-05-15 01:51:29 9.47 ℃ 100 % 1007.38 hPa
2021-05-15 01:41:29 9.43 ℃ 100 % 1007.42 hPa
2021-05-15 01:31:29 9.56 ℃ 100 % 1007.42 hPa
2021-05-15 01:21:29 9.59 ℃ 100 % 1007.42 hPa
2021-05-15 01:11:29 9.45 ℃ 100 % 1007.4 hPa
2021-05-15 01:01:29 9.45 ℃ 100 % 1007.43 hPa
2021-05-15 00:51:29 9.43 ℃ 100 % 1007.46 hPa
2021-05-15 00:41:29 9.38 ℃ 100 % 1007.49 hPa
2021-05-15 00:31:29 9.35 ℃ 100 % 1007.51 hPa
2021-05-15 00:21:29 9.42 ℃ 100 % 1007.55 hPa
2021-05-15 00:11:29 9.53 ℃ 100 % 1007.61 hPa
2021-05-15 00:01:29 9.64 ℃ 100 % 1007.61 hPa
2021-05-14 23:51:29 9.69 ℃ 100 % 1007.64 hPa
2021-05-14 23:41:29 9.65 ℃ 100 % 1007.71 hPa
2021-05-14 23:31:29 9.73 ℃ 100 % 1007.75 hPa
2021-05-14 23:21:29 9.76 ℃ 100 % 1007.77 hPa
2021-05-14 23:11:29 9.8 ℃ 100 % 1007.75 hPa
2021-05-14 23:01:29 9.87 ℃ 100 % 1007.75 hPa
2021-05-14 22:51:29 9.88 ℃ 100 % 1007.7 hPa
2021-05-14 22:41:29 9.97 ℃ 100 % 1007.65 hPa
2021-05-14 22:31:29 9.94 ℃ 100 % 1007.64 hPa
2021-05-14 22:21:32 9.9 ℃ 100 % 1007.59 hPa
2021-05-14 22:11:29 9.88 ℃ 100 % 1007.56 hPa
2021-05-14 22:01:29 10.01 ℃ 100 % 1007.57 hPa
2021-05-14 21:51:29 9.99 ℃ 100 % 1007.56 hPa
2021-05-14 21:41:29 10.04 ℃ 100 % 1007.53 hPa
2021-05-14 21:31:29 10.09 ℃ 100 % 1007.47 hPa
2021-05-14 21:21:29 10.05 ℃ 100 % 1007.42 hPa
2021-05-14 21:11:29 10.06 ℃ 100 % 1007.37 hPa
2021-05-14 21:01:29 9.94 ℃ 100 % 1007.36 hPa
2021-05-14 20:51:29 10.02 ℃ 100 % 1007.31 hPa
2021-05-14 20:41:29 10.04 ℃ 100 % 1007.27 hPa
2021-05-14 20:31:29 10.06 ℃ 100 % 1007.27 hPa
2021-05-14 20:21:29 10.12 ℃ 100 % 1007.27 hPa
2021-05-14 20:11:29 10.18 ℃ 100 % 1007.23 hPa
2021-05-14 20:01:29 10.21 ℃ 100 % 1007.24 hPa
2021-05-14 19:51:29 10.24 ℃ 100 % 1007.21 hPa
2021-05-14 19:41:29 10.22 ℃ 100 % 1007.25 hPa
2021-05-14 19:31:29 10.33 ℃ 100 % 1007.22 hPa
2021-05-14 19:21:29 10.41 ℃ 100 % 1007.24 hPa
2021-05-14 19:11:29 10.46 ℃ 100 % 1007.3 hPa
2021-05-14 19:01:29 10.58 ℃ 100 % 1007.32 hPa
2021-05-14 18:51:29 10.63 ℃ 100 % 1007.31 hPa
2021-05-14 18:41:29 10.61 ℃ 100 % 1007.34 hPa
2021-05-14 18:31:29 10.64 ℃ 100 % 1007.33 hPa
2021-05-14 18:21:29 10.76 ℃ 100 % 1007.35 hPa
2021-05-14 18:11:30 10.78 ℃ 100 % 1007.38 hPa
2021-05-14 18:01:29 10.92 ℃ 100 % 1007.42 hPa
2021-05-14 17:51:32 10.96 ℃ 100 % 1007.45 hPa
2021-05-14 17:41:29 11.14 ℃ 100 % 1007.49 hPa
2021-05-14 17:31:30 11.09 ℃ 100 % 1007.46 hPa
2021-05-14 17:21:29 11.14 ℃ 100 % 1007.43 hPa
2021-05-14 17:11:30 11.12 ℃ 100 % 1007.37 hPa
2021-05-14 17:01:30 11.26 ℃ 100 % 1007.37 hPa
2021-05-14 16:51:30 11.32 ℃ 100 % 1007.31 hPa
2021-05-14 16:41:30 11.43 ℃ 100 % 1007.29 hPa
2021-05-14 16:31:30 11.47 ℃ 100 % 1007.27 hPa
2021-05-14 16:21:30 11.48 ℃ 100 % 1007.26 hPa
2021-05-14 16:11:30 11.55 ℃ 100 % 1007.23 hPa
2021-05-14 16:01:30 11.54 ℃ 100 % 1007.26 hPa
2021-05-14 15:51:30 11.59 ℃ 100 % 1007.23 hPa
2021-05-14 15:41:30 11.6 ℃ 100 % 1007.14 hPa
2021-05-14 15:31:30 11.62 ℃ 100 % 1007.14 hPa
2021-05-14 15:21:30 11.78 ℃ 100 % 1007.12 hPa
2021-05-14 15:11:30 11.66 ℃ 100 % 1007.03 hPa
2021-05-14 15:01:30 11.83 ℃ 100 % 1006.94 hPa
2021-05-14 14:51:30 12.03 ℃ 100 % 1006.84 hPa
2021-05-14 14:41:30 11.92 ℃ 100 % 1006.79 hPa
2021-05-14 14:31:30 11.83 ℃ 100 % 1006.71 hPa
2021-05-14 14:21:30 11.93 ℃ 100 % 1006.6 hPa
2021-05-14 14:11:30 12.07 ℃ 100 % 1006.52 hPa
2021-05-14 14:01:30 12.12 ℃ 100 % 1006.51 hPa
2021-05-14 13:51:30 12.25 ℃ 100 % 1006.52 hPa
2021-05-14 13:41:30 12.07 ℃ 100 % 1006.57 hPa
2021-05-14 13:31:30 11.92 ℃ 100 % 1006.57 hPa
2021-05-14 13:21:30 11.9 ℃ 100 % 1006.5 hPa
2021-05-14 13:11:30 11.9 ℃ 100 % 1006.38 hPa
2021-05-14 13:01:30 12.15 ℃ 100 % 1006.28 hPa
2021-05-14 12:51:30 12.26 ℃ 100 % 1006.27 hPa
2021-05-14 12:41:30 12.37 ℃ 100 % 1006.21 hPa
2021-05-14 12:31:30 12.62 ℃ 100 % 1006.14 hPa
2021-05-14 12:21:30 12.6 ℃ 100 % 1006.06 hPa
2021-05-14 12:11:30 12.5 ℃ 100 % 1006.15 hPa
2021-05-14 12:01:30 12.34 ℃ 100 % 1006.15 hPa
2021-05-14 11:51:30 12.36 ℃ 100 % 1006.15 hPa
2021-05-14 11:41:30 12.06 ℃ 100 % 1006.14 hPa
2021-05-14 11:31:30 12.1 ℃ 100 % 1006.15 hPa
2021-05-14 11:21:30 11.93 ℃ 100 % 1006.13 hPa
2021-05-14 11:11:30 11.68 ℃ 100 % 1006.07 hPa
2021-05-14 11:01:30 11.78 ℃ 100 % 1005.97 hPa
2021-05-14 10:51:30 11.68 ℃ 100 % 1005.96 hPa
2021-05-14 10:41:30 11.52 ℃ 100 % 1005.92 hPa
2021-05-14 10:31:30 11.47 ℃ 100 % 1005.91 hPa
2021-05-14 10:21:30 11.43 ℃ 100 % 1005.95 hPa
2021-05-14 10:11:30 11.39 ℃ 100 % 1006 hPa
2021-05-14 10:01:30 11.39 ℃ 100 % 1005.97 hPa
2021-05-14 09:51:31 11.4 ℃ 100 % 1005.93 hPa
2021-05-14 09:41:30 11.45 ℃ 100 % 1005.84 hPa
2021-05-14 09:31:30 11.33 ℃ 100 % 1005.78 hPa
2021-05-14 09:21:30 11.44 ℃ 100 % 1005.74 hPa
2021-05-14 09:11:30 11.45 ℃ 100 % 1005.68 hPa
2021-05-14 09:01:30 11.43 ℃ 100 % 1005.67 hPa
2021-05-14 08:51:30 11.29 ℃ 100 % 1005.64 hPa
2021-05-14 08:41:30 11.25 ℃ 100 % 1005.6 hPa
2021-05-14 08:31:30 11.14 ℃ 100 % 1005.57 hPa
2021-05-14 08:21:30 11.08 ℃ 100 % 1005.51 hPa
2021-05-14 08:11:30 10.94 ℃ 100 % 1005.47 hPa
2021-05-14 08:01:30 10.82 ℃ 100 % 1005.45 hPa
2021-05-14 07:51:30 10.8 ℃ 100 % 1005.46 hPa
2021-05-14 07:41:30 10.8 ℃ 100 % 1005.47 hPa
2021-05-14 07:31:30 10.87 ℃ 100 % 1005.41 hPa
2021-05-14 07:21:30 10.91 ℃ 100 % 1005.38 hPa
2021-05-14 07:11:30 11.06 ℃ 100 % 1005.37 hPa
2021-05-14 07:01:30 10.86 ℃ 100 % 1005.35 hPa
2021-05-14 06:51:31 10.59 ℃ 100 % 1005.34 hPa
2021-05-14 06:41:30 10.7 ℃ 100 % 1005.32 hPa
2021-05-14 06:31:31 10.64 ℃ 100 % 1005.36 hPa
2021-05-14 06:21:31 10.35 ℃ 100 % 1005.37 hPa
2021-05-14 06:11:31 10.41 ℃ 100 % 1005.4 hPa
2021-05-14 06:01:31 10.4 ℃ 100 % 1005.36 hPa
2021-05-14 05:51:31 10.38 ℃ 100 % 1005.35 hPa
2021-05-14 05:41:31 10.38 ℃ 100 % 1005.37 hPa
2021-05-14 05:31:31 10.4 ℃ 100 % 1005.43 hPa
2021-05-14 05:21:31 10.5 ℃ 100 % 1005.54 hPa
2021-05-14 05:11:31 10.72 ℃ 100 % 1005.53 hPa
2021-05-14 05:01:31 10.65 ℃ 100 % 1005.54 hPa
2021-05-14 04:51:31 10.63 ℃ 100 % 1005.59 hPa
2021-05-14 04:41:31 10.55 ℃ 100 % 1005.63 hPa
2021-05-14 04:31:31 10.64 ℃ 100 % 1005.64 hPa
2021-05-14 04:21:31 10.67 ℃ 100 % 1005.65 hPa
2021-05-14 04:11:31 10.7 ℃ 100 % 1005.73 hPa
2021-05-14 04:01:31 10.85 ℃ 100 % 1005.81 hPa
2021-05-14 03:51:31 10.8 ℃ 100 % 1005.86 hPa
2021-05-14 03:41:31 10.74 ℃ 100 % 1005.89 hPa
2021-05-14 03:31:31 10.53 ℃ 100 % 1005.86 hPa
2021-05-14 03:21:31 10.47 ℃ 100 % 1005.89 hPa
2021-05-14 03:11:31 10.23 ℃ 100 % 1006 hPa
2021-05-14 03:01:31 10.32 ℃ 100 % 1006.08 hPa
2021-05-14 02:51:31 10.18 ℃ 100 % 1006.13 hPa
2021-05-14 02:41:31 10.13 ℃ 100 % 1006.11 hPa
2021-05-14 02:31:31 10.14 ℃ 100 % 1006.16 hPa
2021-05-14 02:21:31 10.3 ℃ 100 % 1006.14 hPa
2021-05-14 02:11:31 10.44 ℃ 100 % 1006.17 hPa
2021-05-14 02:01:31 10.53 ℃ 100 % 1006.23 hPa
2021-05-14 01:51:33 10.53 ℃ 100 % 1006.31 hPa
2021-05-14 01:41:31 10.68 ℃ 100 % 1006.38 hPa
2021-05-14 01:31:31 10.66 ℃ 100 % 1006.45 hPa
2021-05-14 01:21:31 10.77 ℃ 100 % 1006.49 hPa
2021-05-14 01:11:31 10.82 ℃ 100 % 1006.56 hPa
2021-05-14 01:01:32 10.86 ℃ 100 % 1006.58 hPa
2021-05-14 00:51:31 10.84 ℃ 100 % 1006.6 hPa
2021-05-14 00:41:31 10.75 ℃ 100 % 1006.64 hPa
2021-05-14 00:31:31 10.88 ℃ 100 % 1006.67 hPa
2021-05-14 00:21:31 11.05 ℃ 100 % 1006.69 hPa
2021-05-14 00:11:31 11.26 ℃ 100 % 1006.7 hPa
2021-05-14 00:01:31 11.55 ℃ 100 % 1006.71 hPa
2021-05-13 23:51:31 12.16 ℃ 100 % 1006.74 hPa
2021-05-13 23:41:31 12.58 ℃ 100 % 1006.78 hPa
2021-05-13 23:31:31 12.65 ℃ 100 % 1006.76 hPa
2021-05-13 23:21:32 12.73 ℃ 100 % 1006.76 hPa
2021-05-13 23:11:31 12.75 ℃ 100 % 1006.76 hPa
2021-05-13 23:01:31 12.94 ℃ 100 % 1006.78 hPa
2021-05-13 22:51:32 12.66 ℃ 100 % 1006.82 hPa
2021-05-13 22:41:31 12.61 ℃ 100 % 1006.84 hPa
2021-05-13 22:31:31 12.66 ℃ 100 % 1006.86 hPa
2021-05-13 22:21:31 12.63 ℃ 100 % 1006.84 hPa
2021-05-13 22:11:31 12.78 ℃ 100 % 1006.83 hPa
2021-05-13 22:01:31 12.63 ℃ 100 % 1006.85 hPa
2021-05-13 21:51:31 12.24 ℃ 100 % 1006.85 hPa
2021-05-13 21:41:31 12.17 ℃ 100 % 1006.82 hPa
2021-05-13 21:31:31 12.35 ℃ 100 % 1006.8 hPa
2021-05-13 21:21:31 12.38 ℃ 100 % 1006.74 hPa
2021-05-13 21:11:31 12.19 ℃ 100 % 1006.73 hPa
2021-05-13 21:01:31 12.5 ℃ 100 % 1006.75 hPa
2021-05-13 20:51:31 12.65 ℃ 100 % 1006.78 hPa
2021-05-13 20:41:31 12.9 ℃ 100 % 1006.81 hPa
2021-05-13 20:31:32 13.04 ℃ 100 % 1006.87 hPa
2021-05-13 20:21:32 12.95 ℃ 100 % 1006.92 hPa
2021-05-13 20:11:31 13.29 ℃ 100 % 1006.9 hPa
2021-05-13 20:01:31 13.39 ℃ 100 % 1006.88 hPa
2021-05-13 19:51:32 13.45 ℃ 100 % 1006.89 hPa
2021-05-13 19:41:31 13.38 ℃ 100 % 1006.8 hPa
2021-05-13 19:31:32 13.35 ℃ 100 % 1006.77 hPa
2021-05-13 19:21:32 12.74 ℃ 100 % 1006.74 hPa
2021-05-13 19:11:32 12.46 ℃ 100 % 1006.76 hPa
2021-05-13 19:01:32 12.09 ℃ 100 % 1006.73 hPa
2021-05-13 18:51:32 12.22 ℃ 100 % 1006.79 hPa
2021-05-13 18:41:32 12.35 ℃ 100 % 1006.87 hPa
2021-05-13 18:31:32 12.62 ℃ 100 % 1006.94 hPa
2021-05-13 18:21:32 12.98 ℃ 100 % 1007 hPa
2021-05-13 18:11:32 13.37 ℃ 100 % 1007.07 hPa
2021-05-13 18:01:32 13.13 ℃ 100 % 1007.14 hPa
2021-05-13 17:51:32 13.09 ℃ 100 % 1007.22 hPa
2021-05-13 17:41:32 13.27 ℃ 100 % 1007.34 hPa
2021-05-13 17:31:32 12.95 ℃ 100 % 1007.43 hPa
2021-05-13 17:21:32 13.04 ℃ 100 % 1007.55 hPa
2021-05-13 17:11:32 13.57 ℃ 100 % 1007.64 hPa
2021-05-13 17:01:32 14.01 ℃ 100 % 1007.76 hPa
2021-05-13 16:51:32 14.3 ℃ 100 % 1007.85 hPa
2021-05-13 16:41:32 14.24 ℃ 100 % 1007.96 hPa
2021-05-13 16:31:32 14.1 ℃ 100 % 1007.95 hPa
2021-05-13 16:21:32 13.47 ℃ 100 % 1007.87 hPa
2021-05-13 16:11:32 13.48 ℃ 100 % 1007.82 hPa
2021-05-13 16:01:32 13.24 ℃ 100 % 1007.87 hPa
2021-05-13 15:51:32 12.8 ℃ 100 % 1007.94 hPa
2021-05-13 15:41:32 12.41 ℃ 100 % 1007.97 hPa
2021-05-13 15:31:32 12.39 ℃ 100 % 1007.99 hPa
2021-05-13 15:21:32 12.27 ℃ 100 % 1008.08 hPa
2021-05-13 15:11:32 12.34 ℃ 100 % 1008.13 hPa
2021-05-13 15:01:32 12.42 ℃ 100 % 1008.21 hPa
2021-05-13 14:51:32 12.38 ℃ 100 % 1008.2 hPa
2021-05-13 14:41:32 12.37 ℃ 100 % 1008.21 hPa
2021-05-13 14:31:32 12.26 ℃ 100 % 1008.18 hPa
2021-05-13 14:21:32 12.39 ℃ 100 % 1008.16 hPa
2021-05-13 14:11:32 12.49 ℃ 100 % 1008.2 hPa
2021-05-13 14:01:32 12.6 ℃ 100 % 1008.24 hPa
2021-05-13 13:51:32 12.62 ℃ 100 % 1008.29 hPa
2021-05-13 13:41:32 12.39 ℃ 100 % 1008.32 hPa
2021-05-13 13:31:32 12.39 ℃ 100 % 1008.31 hPa
2021-05-13 13:21:32 12.36 ℃ 100 % 1008.29 hPa
2021-05-13 13:11:32 12.4 ℃ 100 % 1008.26 hPa
2021-05-13 13:01:32 12.56 ℃ 100 % 1008.32 hPa
2021-05-13 12:51:32 12.54 ℃ 100 % 1008.34 hPa
2021-05-13 12:41:32 12.58 ℃ 100 % 1008.37 hPa
2021-05-13 12:31:32 12.59 ℃ 100 % 1008.39 hPa
2021-05-13 12:21:32 12.43 ℃ 100 % 1008.42 hPa
2021-05-13 12:11:32 12.47 ℃ 100 % 1008.41 hPa
2021-05-13 12:01:32 12.31 ℃ 100 % 1008.51 hPa
2021-05-13 11:51:32 12.23 ℃ 100 % 1008.56 hPa
2021-05-13 11:41:32 12.16 ℃ 100 % 1008.61 hPa
2021-05-13 11:31:32 12.25 ℃ 100 % 1008.66 hPa
2021-05-13 11:21:32 12.21 ℃ 100 % 1008.77 hPa
2021-05-13 11:11:32 12.24 ℃ 100 % 1008.8 hPa
2021-05-13 11:01:32 12.37 ℃ 100 % 1008.87 hPa
2021-05-13 10:51:32 12.32 ℃ 100 % 1008.87 hPa
2021-05-13 10:41:32 12.22 ℃ 100 % 1008.78 hPa
2021-05-13 10:31:32 12.21 ℃ 100 % 1008.72 hPa
2021-05-13 10:21:32 12.06 ℃ 100 % 1008.66 hPa
2021-05-13 10:11:32 12.07 ℃ 100 % 1008.63 hPa
2021-05-13 10:01:32 12.26 ℃ 100 % 1008.62 hPa
2021-05-13 09:51:32 12.24 ℃ 100 % 1008.65 hPa
2021-05-13 09:41:32 12.39 ℃ 100 % 1008.81 hPa
2021-05-13 09:31:32 12.55 ℃ 100 % 1008.91 hPa
2021-05-13 09:21:32 12.41 ℃ 100 % 1008.99 hPa
2021-05-13 09:11:32 12.44 ℃ 100 % 1009.05 hPa
2021-05-13 09:01:32 12.13 ℃ 100 % 1009.11 hPa
2021-05-13 08:51:33 12 ℃ 100 % 1009.11 hPa
2021-05-13 08:41:33 11.5 ℃ 100 % 1009.09 hPa
2021-05-13 08:31:33 11.5 ℃ 100 % 1009.1 hPa
2021-05-13 08:21:33 11.58 ℃ 100 % 1009.19 hPa
2021-05-13 08:11:33 11.68 ℃ 100 % 1009.24 hPa
2021-05-13 08:01:33 11.6 ℃ 100 % 1009.3 hPa
2021-05-13 07:51:33 11.63 ℃ 100 % 1009.34 hPa
2021-05-13 07:41:33 11.65 ℃ 100 % 1009.39 hPa
2021-05-13 07:31:33 11.79 ℃ 100 % 1009.4 hPa
2021-05-13 07:21:33 11.58 ℃ 100 % 1009.46 hPa
2021-05-13 07:11:33 11.51 ℃ 100 % 1009.51 hPa
2021-05-13 07:01:33 11.58 ℃ 100 % 1009.58 hPa
2021-05-13 06:51:33 11.61 ℃ 100 % 1009.55 hPa
2021-05-13 06:41:33 11.54 ℃ 100 % 1009.59 hPa
2021-05-13 06:31:33 11.55 ℃ 100 % 1009.61 hPa
2021-05-13 06:21:33 11.5 ℃ 100 % 1009.68 hPa
2021-05-13 06:11:33 11.56 ℃ 100 % 1009.84 hPa
2021-05-13 06:01:33 11.62 ℃ 100 % 1010 hPa
2021-05-13 05:51:33 11.73 ℃ 100 % 1010.02 hPa
2021-05-13 05:41:33 12.02 ℃ 100 % 1010.06 hPa
2021-05-13 05:31:33 12.34 ℃ 100 % 1010.14 hPa
2021-05-13 05:21:33 12.37 ℃ 100 % 1010.2 hPa
2021-05-13 05:11:33 12.48 ℃ 100 % 1010.21 hPa
2021-05-13 05:01:33 12.46 ℃ 100 % 1010.27 hPa
2021-05-13 04:51:33 12.25 ℃ 100 % 1010.36 hPa
2021-05-13 04:41:33 12.08 ℃ 100 % 1010.39 hPa
2021-05-13 04:31:33 12.4 ℃ 100 % 1010.42 hPa
2021-05-13 04:21:33 12.23 ℃ 100 % 1010.41 hPa
2021-05-13 04:11:33 12.21 ℃ 100 % 1010.45 hPa
2021-05-13 04:01:33 12.27 ℃ 100 % 1010.53 hPa
2021-05-13 03:51:33 12.4 ℃ 100 % 1010.52 hPa
2021-05-13 03:41:33 12.34 ℃ 100 % 1010.53 hPa
2021-05-13 03:31:33 12.34 ℃ 100 % 1010.54 hPa
2021-05-13 03:21:33 12.27 ℃ 100 % 1010.51 hPa
2021-05-13 03:11:33 12.04 ℃ 100 % 1010.43 hPa
2021-05-13 03:01:33 12.01 ℃ 100 % 1010.47 hPa
2021-05-13 02:51:33 11.93 ℃ 100 % 1010.55 hPa
2021-05-13 02:41:33 11.9 ℃ 100 % 1010.63 hPa
2021-05-13 02:31:33 11.92 ℃ 100 % 1010.69 hPa
2021-05-13 02:21:33 12.19 ℃ 100 % 1010.73 hPa
2021-05-13 02:11:33 12.14 ℃ 100 % 1010.75 hPa
2021-05-13 02:01:33 12.11 ℃ 100 % 1010.73 hPa
2021-05-13 01:51:33 11.9 ℃ 100 % 1010.76 hPa
2021-05-13 01:41:33 12.05 ℃ 100 % 1010.8 hPa
2021-05-13 01:31:33 12.19 ℃ 100 % 1010.83 hPa
2021-05-13 01:21:33 11.95 ℃ 100 % 1010.88 hPa
2021-05-13 01:11:33 12.01 ℃ 100 % 1010.94 hPa
2021-05-13 01:01:33 11.98 ℃ 100 % 1010.98 hPa
2021-05-13 00:51:33 11.93 ℃ 100 % 1011 hPa
2021-05-13 00:41:33 11.79 ℃ 100 % 1011.01 hPa
2021-05-13 00:31:33 11.82 ℃ 100 % 1011.09 hPa
2021-05-13 00:21:33 11.86 ℃ 100 % 1011.11 hPa
2021-05-13 00:11:33 11.9 ℃ 100 % 1011.18 hPa
2021-05-13 00:01:33 12.01 ℃ 100 % 1011.32 hPa
2021-05-12 23:51:33 12.26 ℃ 100 % 1011.38 hPa
2021-05-12 23:41:33 12.35 ℃ 100 % 1011.5 hPa
2021-05-12 23:31:33 12.45 ℃ 100 % 1011.56 hPa
2021-05-12 23:21:33 12.64 ℃ 100 % 1011.64 hPa
2021-05-12 23:11:33 12.74 ℃ 100 % 1011.74 hPa
2021-05-12 23:01:33 12.97 ℃ 100 % 1011.86 hPa
2021-05-12 22:51:33 12.96 ℃ 100 % 1011.92 hPa
2021-05-12 22:41:33 12.86 ℃ 100 % 1011.96 hPa
2021-05-12 22:31:33 12.94 ℃ 100 % 1012.03 hPa
2021-05-12 22:21:33 13.15 ℃ 100 % 1012.07 hPa
2021-05-12 22:11:33 13.34 ℃ 100 % 1012.09 hPa
2021-05-12 22:01:34 13.23 ℃ 100 % 1012.12 hPa
2021-05-12 21:51:34 13.28 ℃ 100 % 1012.12 hPa
2021-05-12 21:41:34 13.35 ℃ 100 % 1012.1 hPa
2021-05-12 21:31:34 13.61 ℃ 100 % 1012.08 hPa
2021-05-12 21:21:34 13.77 ℃ 100 % 1012.01 hPa
2021-05-12 21:11:34 13.81 ℃ 100 % 1011.95 hPa
2021-05-12 21:01:34 13.82 ℃ 100 % 1011.87 hPa
2021-05-12 20:51:34 13.96 ℃ 100 % 1011.78 hPa
2021-05-12 20:41:34 14.16 ℃ 100 % 1011.69 hPa
2021-05-12 20:31:34 14.49 ℃ 100 % 1011.61 hPa
2021-05-12 20:21:34 14.59 ℃ 100 % 1011.54 hPa
2021-05-12 20:11:34 14.72 ℃ 100 % 1011.43 hPa
2021-05-12 20:01:34 14.99 ℃ 99.99 % 1011.33 hPa
2021-05-12 19:51:34 15.01 ℃ 99.99 % 1011.24 hPa
2021-05-12 19:41:34 15.31 ℃ 99.98 % 1011.16 hPa
2021-05-12 19:31:34 15.61 ℃ 99.96 % 1011.07 hPa
2021-05-12 19:21:35 15.7 ℃ 99.92 % 1010.97 hPa
2021-05-12 19:11:34 15.56 ℃ 99.84 % 1010.92 hPa
2021-05-12 19:01:34 15.63 ℃ 99.67 % 1010.91 hPa
2021-05-12 18:51:34 15.99 ℃ 99.34 % 1010.91 hPa
2021-05-12 18:41:34 16.32 ℃ 98.69 % 1010.87 hPa
2021-05-12 18:31:34 16.59 ℃ 97.38 % 1010.82 hPa
2021-05-12 18:21:34 16.8 ℃ 94.76 % 1010.81 hPa
2021-05-12 18:11:34 17.15 ℃ 89.94 % 1010.84 hPa
2021-05-12 18:01:34 17.79 ℃ 84.76 % 1010.8 hPa
2021-05-12 17:51:34 17.88 ℃ 83.74 % 1010.72 hPa
2021-05-12 17:41:34 17.77 ℃ 84.66 % 1010.67 hPa
2021-05-12 17:31:34 17.95 ℃ 84.35 % 1010.62 hPa
2021-05-12 17:21:34 17.8 ℃ 84.41 % 1010.56 hPa
2021-05-12 17:11:34 18.01 ℃ 82.75 % 1010.53 hPa
2021-05-12 17:01:34 18.13 ℃ 81.23 % 1010.5 hPa
2021-05-12 16:51:34 18.22 ℃ 79.14 % 1010.5 hPa
2021-05-12 16:41:34 18.42 ℃ 76.69 % 1010.43 hPa
2021-05-12 16:31:34 18.13 ℃ 78.43 % 1010.3 hPa
2021-05-12 16:21:34 18.22 ℃ 79.81 % 1010.35 hPa
2021-05-12 16:11:34 18.13 ℃ 81.11 % 1010.36 hPa
2021-05-12 16:01:34 17.97 ℃ 82.14 % 1010.34 hPa
2021-05-12 15:51:35 18.12 ℃ 81.14 % 1010.29 hPa
2021-05-12 15:41:34 17.98 ℃ 82.35 % 1010.32 hPa
2021-05-12 15:31:34 17.76 ℃ 83.48 % 1010.27 hPa
2021-05-12 15:21:34 17.87 ℃ 80.8 % 1010.16 hPa
2021-05-12 15:11:34 18.29 ℃ 77.18 % 1010.07 hPa
2021-05-12 15:01:34 17.94 ℃ 77.97 % 1009.97 hPa
2021-05-12 14:51:34 18.13 ℃ 77.65 % 1009.88 hPa
2021-05-12 14:41:34 17.94 ℃ 77.99 % 1009.85 hPa
2021-05-12 14:31:34 17.9 ℃ 76.54 % 1009.83 hPa
2021-05-12 14:21:34 18.28 ℃ 74.37 % 1009.77 hPa
2021-05-12 14:11:34 18.41 ℃ 74.58 % 1009.72 hPa
2021-05-12 14:01:34 18.18 ℃ 76.94 % 1009.72 hPa
2021-05-12 13:51:34 18.18 ℃ 77.3 % 1009.66 hPa
2021-05-12 13:41:34 18.2 ℃ 79.46 % 1009.61 hPa
2021-05-12 13:31:34 18.23 ℃ 82.7 % 1009.6 hPa
2021-05-12 13:21:34 18.06 ℃ 84.08 % 1009.61 hPa
2021-05-12 13:11:34 18.08 ℃ 84.22 % 1009.63 hPa
2021-05-12 13:01:34 17.69 ℃ 86.73 % 1009.61 hPa
2021-05-12 12:51:34 17.78 ℃ 87.4 % 1009.6 hPa
2021-05-12 12:41:34 17.57 ℃ 90.64 % 1009.59 hPa
2021-05-12 12:31:34 17.49 ℃ 93.39 % 1009.54 hPa
2021-05-12 12:21:34 17.26 ℃ 96.53 % 1009.43 hPa
2021-05-12 12:11:34 17.03 ℃ 100 % 1009.34 hPa
2021-05-12 12:01:34 16.9 ℃ 100 % 1009.3 hPa
2021-05-12 11:51:35 16.51 ℃ 100 % 1009.29 hPa
2021-05-12 11:41:34 16.42 ℃ 100 % 1009.21 hPa
2021-05-12 11:31:34 16.43 ℃ 100 % 1009.18 hPa
2021-05-12 11:21:35 16.42 ℃ 100 % 1009.22 hPa
2021-05-12 11:11:35 16.31 ℃ 100 % 1009.19 hPa
2021-05-12 11:01:35 15.99 ℃ 100 % 1009.18 hPa
2021-05-12 10:51:35 15.7 ℃ 100 % 1009.14 hPa
2021-05-12 10:41:35 15.33 ℃ 100 % 1009.08 hPa
2021-05-12 10:31:35 15.2 ℃ 100 % 1009.09 hPa
2021-05-12 10:21:35 15.06 ℃ 100 % 1009.04 hPa
2021-05-12 10:11:35 14.78 ℃ 100 % 1009.06 hPa
2021-05-12 10:01:35 14.31 ℃ 100 % 1009.07 hPa
2021-05-12 09:51:35 13.83 ℃ 100 % 1009.09 hPa
2021-05-12 09:41:35 13.69 ℃ 100 % 1009.08 hPa
2021-05-12 09:31:35 13.61 ℃ 100 % 1008.99 hPa
2021-05-12 09:21:35 13.19 ℃ 100 % 1008.89 hPa
2021-05-12 09:11:35 13.27 ℃ 100 % 1008.82 hPa
2021-05-12 09:01:35 13.23 ℃ 100 % 1008.71 hPa
2021-05-12 08:51:35 13.13 ℃ 100 % 1008.55 hPa
2021-05-12 08:41:35 13.1 ℃ 100 % 1008.37 hPa
2021-05-12 08:31:35 13.1 ℃ 100 % 1008.3 hPa
2021-05-12 08:21:35 13 ℃ 100 % 1008.21 hPa
2021-05-12 08:11:35 12.67 ℃ 100 % 1008.18 hPa
2021-05-12 08:01:35 12.53 ℃ 100 % 1008.18 hPa
2021-05-12 07:51:35 12.51 ℃ 100 % 1008.04 hPa
2021-05-12 07:41:35 12.31 ℃ 100 % 1007.92 hPa
2021-05-12 07:31:35 12.08 ℃ 100 % 1007.79 hPa
2021-05-12 07:21:35 11.89 ℃ 100 % 1007.65 hPa
2021-05-12 07:11:35 11.88 ℃ 100 % 1007.59 hPa
2021-05-12 07:01:35 11.84 ℃ 100 % 1007.63 hPa
2021-05-12 06:51:35 11.9 ℃ 100 % 1007.64 hPa
2021-05-12 06:41:35 11.93 ℃ 100 % 1007.62 hPa
2021-05-12 06:31:35 11.9 ℃ 100 % 1007.61 hPa
2021-05-12 06:21:35 11.98 ℃ 100 % 1007.54 hPa
2021-05-12 06:11:35 11.96 ℃ 100 % 1007.42 hPa
2021-05-12 06:01:35 12.17 ℃ 100 % 1007.41 hPa
2021-05-12 05:51:35 12.28 ℃ 100 % 1007.37 hPa
2021-05-12 05:41:35 12.22 ℃ 100 % 1007.37 hPa
2021-05-12 05:31:35 12.18 ℃ 100 % 1007.46 hPa
2021-05-12 05:21:38 12.02 ℃ 100 % 1007.42 hPa
2021-05-12 05:11:35 12.1 ℃ 100 % 1007.36 hPa
2021-05-12 05:01:35 12.21 ℃ 100 % 1007.27 hPa
2021-05-12 04:51:35 12.07 ℃ 100 % 1007.22 hPa
2021-05-12 04:41:35 11.88 ℃ 100 % 1007.12 hPa
2021-05-12 04:31:35 11.94 ℃ 100 % 1007.14 hPa
2021-05-12 04:21:35 11.91 ℃ 100 % 1007.21 hPa
2021-05-12 04:11:35 11.95 ℃ 100 % 1007.27 hPa
2021-05-12 04:01:35 11.99 ℃ 100 % 1007.32 hPa
2021-05-12 03:51:35 11.92 ℃ 100 % 1007.38 hPa
2021-05-12 03:41:35 11.95 ℃ 100 % 1007.45 hPa
2021-05-12 03:31:35 11.89 ℃ 100 % 1007.48 hPa
2021-05-12 03:21:35 11.83 ℃ 100 % 1007.48 hPa
2021-05-12 03:11:35 11.71 ℃ 100 % 1007.45 hPa
2021-05-12 03:01:35 11.79 ℃ 100 % 1007.44 hPa
2021-05-12 02:51:35 11.84 ℃ 100 % 1007.37 hPa
2021-05-12 02:41:35 11.86 ℃ 100 % 1007.44 hPa
2021-05-12 02:31:35 11.77 ℃ 100 % 1007.54 hPa
2021-05-12 02:21:35 11.83 ℃ 100 % 1007.65 hPa
2021-05-12 02:11:35 11.95 ℃ 100 % 1007.68 hPa
2021-05-12 02:01:35 12.02 ℃ 100 % 1007.72 hPa
2021-05-12 01:51:35 12.17 ℃ 100 % 1007.73 hPa
2021-05-12 01:41:35 12.09 ℃ 100 % 1007.76 hPa
2021-05-12 01:31:35 12.11 ℃ 100 % 1007.81 hPa
2021-05-12 01:21:35 12.28 ℃ 100 % 1007.86 hPa
2021-05-12 01:11:35 12.15 ℃ 100 % 1007.91 hPa
2021-05-12 01:01:35 11.9 ℃ 100 % 1007.97 hPa
2021-05-12 00:51:35 11.91 ℃ 100 % 1008.04 hPa
2021-05-12 00:41:35 11.8 ℃ 100 % 1008.14 hPa
2021-05-12 00:31:35 11.8 ℃ 100 % 1008.25 hPa
2021-05-12 00:21:35 11.82 ℃ 100 % 1008.36 hPa
2021-05-12 00:11:35 11.85 ℃ 100 % 1008.41 hPa
2021-05-12 00:01:36 11.95 ℃ 100 % 1008.43 hPa
2021-05-11 23:51:36 11.97 ℃ 100 % 1008.5 hPa
2021-05-11 23:41:36 11.93 ℃ 100 % 1008.61 hPa
2021-05-11 23:31:36 12 ℃ 100 % 1008.72 hPa
2021-05-11 23:21:36 11.96 ℃ 100 % 1008.78 hPa
2021-05-11 23:11:36 12 ℃ 100 % 1008.81 hPa
2021-05-11 23:01:36 11.96 ℃ 100 % 1008.85 hPa
2021-05-11 22:51:36 11.97 ℃ 100 % 1008.91 hPa
2021-05-11 22:41:36 11.89 ℃ 100 % 1009.03 hPa
2021-05-11 22:31:36 11.89 ℃ 100 % 1009.02 hPa
2021-05-11 22:21:36 11.88 ℃ 100 % 1009.03 hPa
2021-05-11 22:11:36 11.86 ℃ 100 % 1009.06 hPa
2021-05-11 22:01:36 11.84 ℃ 100 % 1009.15 hPa
2021-05-11 21:51:36 11.94 ℃ 100 % 1009.2 hPa
2021-05-11 21:41:36 11.99 ℃ 100 % 1009.26 hPa
2021-05-11 21:31:36 12.08 ℃ 100 % 1009.25 hPa
2021-05-11 21:21:36 11.92 ℃ 100 % 1009.17 hPa
2021-05-11 21:11:36 11.87 ℃ 100 % 1009.05 hPa
2021-05-11 21:01:36 11.9 ℃ 100 % 1008.99 hPa
2021-05-11 20:51:36 11.93 ℃ 100 % 1008.97 hPa
2021-05-11 20:41:36 12.01 ℃ 100 % 1009.07 hPa
2021-05-11 20:31:36 12.08 ℃ 100 % 1009.26 hPa
2021-05-11 20:21:36 12.15 ℃ 100 % 1009.41 hPa
2021-05-11 20:11:36 12.31 ℃ 100 % 1009.51 hPa
2021-05-11 20:01:36 12.39 ℃ 100 % 1009.55 hPa
2021-05-11 19:51:36 12.54 ℃ 100 % 1009.61 hPa
2021-05-11 19:41:36 12.64 ℃ 100 % 1009.66 hPa
2021-05-11 19:31:36 12.8 ℃ 100 % 1009.74 hPa
2021-05-11 19:21:36 12.98 ℃ 100 % 1009.82 hPa
2021-05-11 19:11:36 13.05 ℃ 100 % 1009.73 hPa
2021-05-11 19:01:36 13.04 ℃ 100 % 1009.7 hPa
2021-05-11 18:51:36 13.12 ℃ 100 % 1009.81 hPa
2021-05-11 18:41:36 13.23 ℃ 100 % 1009.85 hPa
2021-05-11 18:31:36 13.42 ℃ 100 % 1009.89 hPa
2021-05-11 18:21:36 13.51 ℃ 100 % 1009.89 hPa
2021-05-11 18:11:36 13.25 ℃ 100 % 1009.92 hPa
2021-05-11 18:01:36 13.04 ℃ 100 % 1010.04 hPa
2021-05-11 17:51:36 13.06 ℃ 100 % 1010.14 hPa
2021-05-11 17:41:36 13.12 ℃ 100 % 1010.11 hPa
2021-05-11 17:31:36 13.27 ℃ 100 % 1010.13 hPa
2021-05-11 17:21:36 13.42 ℃ 100 % 1009.99 hPa
2021-05-11 17:11:36 13.37 ℃ 100 % 1009.95 hPa
2021-05-11 17:01:36 13.27 ℃ 100 % 1009.87 hPa
2021-05-11 16:51:36 13.39 ℃ 100 % 1009.68 hPa
2021-05-11 16:41:36 13.31 ℃ 100 % 1009.68 hPa
2021-05-11 16:31:36 13.47 ℃ 100 % 1009.82 hPa
2021-05-11 16:21:36 13.49 ℃ 100 % 1009.96 hPa
2021-05-11 16:11:36 13.61 ℃ 100 % 1010 hPa
2021-05-11 16:01:36 13.49 ℃ 100 % 1010.02 hPa
2021-05-11 15:51:36 13.28 ℃ 100 % 1010.06 hPa
2021-05-11 15:41:36 13.12 ℃ 100 % 1010.09 hPa
2021-05-11 15:31:36 12.91 ℃ 100 % 1010.31 hPa
2021-05-11 15:21:36 12.93 ℃ 100 % 1010.43 hPa
2021-05-11 15:11:36 12.86 ℃ 100 % 1010.49 hPa
2021-05-11 15:01:36 12.72 ℃ 100 % 1010.61 hPa
2021-05-11 14:51:36 12.89 ℃ 100 % 1010.89 hPa
2021-05-11 14:41:36 12.89 ℃ 100 % 1010.87 hPa
2021-05-11 14:31:36 12.96 ℃ 100 % 1010.88 hPa
2021-05-11 14:21:36 12.98 ℃ 100 % 1010.8 hPa
2021-05-11 14:11:36 13.03 ℃ 100 % 1010.69 hPa
2021-05-11 14:01:37 12.85 ℃ 100 % 1010.6 hPa
2021-05-11 13:51:36 12.76 ℃ 100 % 1010.57 hPa
2021-05-11 13:41:36 12.56 ℃ 100 % 1010.5 hPa
2021-05-11 13:31:37 12.31 ℃ 100 % 1010.4 hPa
2021-05-11 13:21:37 12.16 ℃ 100 % 1010.41 hPa
2021-05-11 13:11:37 12.35 ℃ 100 % 1010.59 hPa
2021-05-11 13:01:37 12.41 ℃ 100 % 1010.77 hPa
2021-05-11 12:51:37 12.21 ℃ 100 % 1010.79 hPa
2021-05-11 12:41:37 12.28 ℃ 100 % 1010.81 hPa
2021-05-11 12:31:37 12.4 ℃ 100 % 1010.84 hPa
2021-05-11 12:21:37 12.4 ℃ 100 % 1010.76 hPa
2021-05-11 12:11:37 12.44 ℃ 100 % 1010.94 hPa
2021-05-11 12:01:37 12.61 ℃ 100 % 1011.12 hPa
2021-05-11 11:51:37 12.7 ℃ 100 % 1011.19 hPa
2021-05-11 11:41:37 12.72 ℃ 100 % 1011.32 hPa
2021-05-11 11:31:37 12.66 ℃ 100 % 1011.6 hPa
2021-05-11 11:21:37 12.69 ℃ 100 % 1011.63 hPa
2021-05-11 11:11:37 12.69 ℃ 100 % 1011.73 hPa
2021-05-11 11:01:37 12.6 ℃ 100 % 1011.67 hPa
2021-05-11 10:51:37 12.44 ℃ 100 % 1011.72 hPa
2021-05-11 10:41:37 12.3 ℃ 100 % 1011.96 hPa
2021-05-11 10:31:37 12.4 ℃ 100 % 1012.1 hPa
2021-05-11 10:21:37 12.36 ℃ 100 % 1012.06 hPa
2021-05-11 10:11:37 12.34 ℃ 100 % 1012.14 hPa
2021-05-11 10:01:37 12.28 ℃ 100 % 1012.15 hPa
2021-05-11 09:51:37 12.17 ℃ 100 % 1012.25 hPa
2021-05-11 09:41:37 12.08 ℃ 100 % 1012.27 hPa
2021-05-11 09:31:37 12.01 ℃ 100 % 1012.26 hPa
2021-05-11 09:21:37 12 ℃ 100 % 1012.32 hPa
2021-05-11 09:11:37 11.9 ℃ 100 % 1012.4 hPa
2021-05-11 09:01:37 11.84 ℃ 100 % 1012.52 hPa
2021-05-11 08:51:37 11.92 ℃ 100 % 1012.66 hPa
2021-05-11 08:41:37 11.85 ℃ 100 % 1012.63 hPa
2021-05-11 08:31:37 11.9 ℃ 100 % 1012.59 hPa
2021-05-11 08:21:37 11.94 ℃ 100 % 1012.57 hPa
2021-05-11 08:11:37 11.96 ℃ 100 % 1012.5 hPa
2021-05-11 08:01:37 11.88 ℃ 100 % 1012.46 hPa
2021-05-11 07:51:37 11.86 ℃ 100 % 1012.41 hPa
2021-05-11 07:41:37 11.94 ℃ 100 % 1012.37 hPa
2021-05-11 07:31:37 11.93 ℃ 100 % 1012.2 hPa
2021-05-11 07:21:37 11.9 ℃ 100 % 1012.09 hPa
2021-05-11 07:11:37 11.77 ℃ 100 % 1011.95 hPa
2021-05-11 07:01:37 11.72 ℃ 100 % 1011.98 hPa
2021-05-11 06:51:37 11.83 ℃ 100 % 1012.12 hPa
2021-05-11 06:41:37 11.88 ℃ 100 % 1012.24 hPa
2021-05-11 06:31:37 12.09 ℃ 100 % 1012.27 hPa
2021-05-11 06:21:37 11.79 ℃ 100 % 1011.94 hPa
2021-05-11 06:11:37 11.72 ℃ 100 % 1011.92 hPa
2021-05-11 06:01:37 11.78 ℃ 100 % 1012.03 hPa
2021-05-11 05:51:37 11.82 ℃ 100 % 1012.16 hPa
2021-05-11 05:41:37 11.82 ℃ 100 % 1012.31 hPa
2021-05-11 05:31:37 11.99 ℃ 100 % 1012.3 hPa
2021-05-11 05:21:37 12.11 ℃ 100 % 1012.37 hPa
2021-05-11 05:11:37 12.23 ℃ 100 % 1012.39 hPa
2021-05-11 05:01:37 12.29 ℃ 100 % 1012.45 hPa
2021-05-11 04:51:37 12.2 ℃ 100 % 1012.43 hPa
2021-05-11 04:41:37 12.16 ℃ 100 % 1012.42 hPa
2021-05-11 04:31:37 12.09 ℃ 100 % 1012.33 hPa
2021-05-11 04:21:37 12.16 ℃ 100 % 1012.36 hPa
2021-05-11 04:11:37 12.27 ℃ 100 % 1012.46 hPa
2021-05-11 04:01:37 12.35 ℃ 100 % 1012.35 hPa
2021-05-11 03:51:37 12.39 ℃ 100 % 1012.32 hPa
2021-05-11 03:41:37 12.48 ℃ 100 % 1012.51 hPa
2021-05-11 03:31:37 12.66 ℃ 100 % 1012.61 hPa
2021-05-11 03:21:37 12.75 ℃ 100 % 1012.69 hPa
2021-05-11 03:11:37 12.9 ℃ 100 % 1012.77 hPa
2021-05-11 03:01:38 13.01 ℃ 100 % 1012.74 hPa
2021-05-11 02:51:38 13.23 ℃ 100 % 1012.9 hPa
2021-05-11 02:41:38 13.34 ℃ 100 % 1012.81 hPa
2021-05-11 02:31:38 13.49 ℃ 100 % 1012.8 hPa
2021-05-11 02:21:38 13.7 ℃ 100 % 1012.61 hPa
2021-05-11 02:11:38 13.61 ℃ 99.99 % 1012.37 hPa
2021-05-11 02:01:38 13.69 ℃ 99.98 % 1012.28 hPa
2021-05-11 01:51:38 13.83 ℃ 99.97 % 1012.27 hPa
2021-05-11 01:41:38 14.1 ℃ 99.93 % 1012.37 hPa
2021-05-11 01:31:38 14.29 ℃ 99.86 % 1012.36 hPa
2021-05-11 01:21:38 14.41 ℃ 99.73 % 1012.26 hPa
2021-05-11 01:11:38 14.58 ℃ 99.45 % 1012.07 hPa
2021-05-11 01:01:38 14.75 ℃ 98.91 % 1011.95 hPa
2021-05-11 00:51:38 15.05 ℃ 97.82 % 1011.93 hPa
2021-05-11 00:41:38 14.86 ℃ 97.52 % 1012.03 hPa
2021-05-11 00:31:38 14.91 ℃ 98.64 % 1012.03 hPa
2021-05-11 00:21:38 15.07 ℃ 99.64 % 1012.04 hPa
2021-05-11 00:11:38 15.17 ℃ 100 % 1012 hPa
2021-05-11 00:01:38 15.23 ℃ 99.99 % 1011.92 hPa
2021-05-10 23:51:38 15.27 ℃ 99.99 % 1011.9 hPa
2021-05-10 23:41:38 15.3 ℃ 99.98 % 1011.93 hPa
2021-05-10 23:31:38 15.39 ℃ 99.95 % 1012.02 hPa
2021-05-10 23:21:38 15.46 ℃ 99.9 % 1012.03 hPa
2021-05-10 23:11:38 15.56 ℃ 99.81 % 1011.99 hPa
2021-05-10 23:01:38 15.77 ℃ 99.61 % 1011.96 hPa
2021-05-10 22:51:38 15.95 ℃ 99.22 % 1011.92 hPa
2021-05-10 22:41:38 16.07 ℃ 98.45 % 1011.88 hPa
2021-05-10 22:31:38 16.36 ℃ 96.89 % 1011.86 hPa
2021-05-10 22:21:38 16.38 ℃ 96.2 % 1011.79 hPa
2021-05-10 22:11:38 16.55 ℃ 93.74 % 1011.86 hPa
2021-05-10 22:01:38 16.83 ℃ 90.03 % 1011.84 hPa
2021-05-10 21:51:38 16.98 ℃ 88.41 % 1011.76 hPa
2021-05-10 21:41:38 17.13 ℃ 87.37 % 1011.69 hPa
2021-05-10 21:31:38 17.54 ℃ 84.75 % 1011.65 hPa
2021-05-10 21:21:38 17.65 ℃ 83.79 % 1011.59 hPa
2021-05-10 21:11:38 17.84 ℃ 82.33 % 1011.47 hPa
2021-05-10 21:01:38 18.14 ℃ 80.56 % 1011.36 hPa
2021-05-10 20:51:38 18.7 ℃ 77.05 % 1011.27 hPa
2021-05-10 20:41:39 19.2 ℃ 73.51 % 1011.19 hPa
2021-05-10 20:31:38 19.19 ℃ 73.35 % 1011.08 hPa
2021-05-10 20:21:38 18.95 ℃ 73.65 % 1011.01 hPa
2021-05-10 20:11:38 18.41 ℃ 75.85 % 1010.88 hPa
2021-05-10 20:01:38 18.16 ℃ 77.42 % 1010.71 hPa
2021-05-10 19:51:38 18.34 ℃ 78.68 % 1010.54 hPa
2021-05-10 19:41:38 18.46 ℃ 81.31 % 1010.38 hPa
2021-05-10 19:31:38 18.53 ℃ 81.14 % 1010.28 hPa
2021-05-10 19:21:38 18.58 ℃ 80.65 % 1010.18 hPa
2021-05-10 19:11:38 18.64 ℃ 80.35 % 1010.19 hPa
2021-05-10 19:01:38 18.85 ℃ 80.12 % 1010.24 hPa
2021-05-10 18:51:38 18.85 ℃ 80.1 % 1010.15 hPa
2021-05-10 18:41:38 18.82 ℃ 80.46 % 1010.1 hPa
2021-05-10 18:31:38 18.77 ℃ 81.52 % 1009.98 hPa
2021-05-10 18:21:38 19.03 ℃ 79.86 % 1009.77 hPa
2021-05-10 18:11:38 19.33 ℃ 76.7 % 1009.49 hPa
2021-05-10 18:01:38 19.48 ℃ 77.29 % 1009.44 hPa
2021-05-10 17:51:38 19.5 ℃ 78.37 % 1009.34 hPa
2021-05-10 17:41:38 19.68 ℃ 78.71 % 1009.15 hPa
2021-05-10 17:31:39 19.77 ℃ 81.38 % 1009.05 hPa
2021-05-10 17:21:38 19.86 ℃ 86.76 % 1008.89 hPa
2021-05-10 17:11:39 20.15 ℃ 86.52 % 1008.65 hPa
2021-05-10 17:01:38 20.28 ℃ 85.49 % 1008.48 hPa
2021-05-10 16:51:38 20.52 ℃ 83.01 % 1008.25 hPa
2021-05-10 16:41:38 20.97 ℃ 77.91 % 1007.93 hPa
2021-05-10 16:31:39 21.51 ℃ 71.83 % 1007.64 hPa
2021-05-10 16:21:38 21.94 ℃ 66.86 % 1007.26 hPa
2021-05-10 16:11:38 22.51 ℃ 62.27 % 1007 hPa
2021-05-10 16:01:38 22.16 ℃ 63.78 % 1006.87 hPa
2021-05-10 15:51:38 22.34 ℃ 64.98 % 1006.72 hPa
2021-05-10 15:41:39 22.38 ℃ 65.86 % 1006.57 hPa
2021-05-10 15:31:39 22.38 ℃ 66.95 % 1006.41 hPa
2021-05-10 15:21:39 22.42 ℃ 68.41 % 1006.22 hPa
2021-05-10 15:11:39 22.79 ℃ 65.3 % 1005.97 hPa
2021-05-10 15:01:39 23.69 ℃ 57.19 % 1005.68 hPa
2021-05-10 14:51:39 25.21 ℃ 45.21 % 1005.28 hPa
2021-05-10 14:41:39 25.56 ℃ 44.31 % 1005.06 hPa
2021-05-10 14:31:39 26.1 ℃ 42.08 % 1004.93 hPa
2021-05-10 14:21:39 26.88 ℃ 40.35 % 1004.75 hPa
2021-05-10 14:11:39 27.22 ℃ 40.24 % 1004.62 hPa
2021-05-10 14:01:39 27.16 ℃ 40.56 % 1004.5 hPa
2021-05-10 13:51:39 27.19 ℃ 40.49 % 1004.46 hPa
2021-05-10 13:41:39 26.94 ℃ 41.4 % 1004.47 hPa
2021-05-10 13:31:39 26.67 ℃ 43.85 % 1004.45 hPa
2021-05-10 13:21:39 26.25 ℃ 46.34 % 1004.47 hPa
2021-05-10 13:11:39 25.79 ℃ 48.16 % 1004.51 hPa
2021-05-10 13:01:39 24.98 ℃ 49.52 % 1004.55 hPa
2021-05-10 12:51:39 24.73 ℃ 49.84 % 1004.44 hPa
2021-05-10 12:41:39 24.88 ℃ 49.66 % 1004.38 hPa
2021-05-10 12:31:39 25.16 ℃ 48.11 % 1004.32 hPa
2021-05-10 12:21:39 25.54 ℃ 47.23 % 1004.24 hPa
2021-05-10 12:11:39 25.69 ℃ 46.44 % 1004.17 hPa
2021-05-10 12:01:39 26.09 ℃ 45.54 % 1004.06 hPa
2021-05-10 11:51:39 26.22 ℃ 46.35 % 1003.95 hPa
2021-05-10 11:41:39 26.15 ℃ 45.99 % 1003.84 hPa
2021-05-10 11:31:39 25.65 ℃ 46.2 % 1003.79 hPa
2021-05-10 11:21:39 25.44 ℃ 46.48 % 1003.71 hPa
2021-05-10 11:11:39 25.12 ℃ 47.57 % 1003.7 hPa
2021-05-10 11:01:39 24.49 ℃ 49.49 % 1003.79 hPa
2021-05-10 10:51:39 24 ℃ 50.71 % 1003.82 hPa
2021-05-10 10:41:39 23.37 ℃ 52.69 % 1003.82 hPa
2021-05-10 10:31:39 22.78 ℃ 54.84 % 1003.78 hPa
2021-05-10 10:21:39 22.52 ℃ 55.76 % 1003.74 hPa
2021-05-10 10:11:39 22.21 ℃ 57.21 % 1003.74 hPa
2021-05-10 10:01:39 21.96 ℃ 58.28 % 1003.76 hPa
2021-05-10 09:51:39 21.78 ℃ 60 % 1003.75 hPa
2021-05-10 09:41:39 21.09 ℃ 62.03 % 1003.69 hPa
2021-05-10 09:31:39 20.81 ℃ 62.36 % 1003.62 hPa
2021-05-10 09:21:39 20.6 ℃ 62.35 % 1003.54 hPa
2021-05-10 09:11:39 20.6 ℃ 61.23 % 1003.43 hPa
2021-05-10 09:01:39 20.47 ℃ 61.15 % 1003.37 hPa
2021-05-10 08:51:39 20.36 ℃ 61.26 % 1003.3 hPa
2021-05-10 08:41:39 20.12 ℃ 62.21 % 1003.29 hPa
2021-05-10 08:31:39 20.18 ℃ 61.97 % 1003.29 hPa
2021-05-10 08:21:39 20.21 ℃ 61.72 % 1003.3 hPa
2021-05-10 08:11:39 20.27 ℃ 61.45 % 1003.3 hPa
2021-05-10 08:01:39 20.34 ℃ 61.3 % 1003.37 hPa
2021-05-10 07:51:39 20.48 ℃ 59.87 % 1003.45 hPa
2021-05-10 07:41:39 20.55 ℃ 60.07 % 1003.51 hPa
2021-05-10 07:31:39 20.39 ℃ 60.2 % 1003.48 hPa
2021-05-10 07:21:39 20.19 ℃ 60.5 % 1003.49 hPa
2021-05-10 07:11:39 20.23 ℃ 60.48 % 1003.42 hPa
2021-05-10 07:01:39 20.54 ℃ 58.66 % 1003.35 hPa
2021-05-10 06:51:39 20.8 ℃ 56.84 % 1003.27 hPa
2021-05-10 06:41:39 20.89 ℃ 56.51 % 1003.22 hPa
2021-05-10 06:31:39 20.89 ℃ 56.65 % 1003.11 hPa
2021-05-10 06:21:39 20.78 ℃ 57.01 % 1003.01 hPa
2021-05-10 06:11:39 20.32 ℃ 59.07 % 1002.91 hPa
2021-05-10 06:01:39 19.92 ℃ 61.37 % 1002.9 hPa
2021-05-10 05:51:39 19.63 ℃ 63.46 % 1002.77 hPa
2021-05-10 05:41:39 19.47 ℃ 64.23 % 1002.64 hPa
2021-05-10 05:31:39 19.57 ℃ 64.04 % 1002.53 hPa
2021-05-10 05:21:39 19.59 ℃ 63.98 % 1002.48 hPa
2021-05-10 05:11:39 19.74 ℃ 63.43 % 1002.42 hPa
2021-05-10 05:01:39 19.86 ℃ 62.75 % 1002.32 hPa
2021-05-10 04:51:39 20.18 ℃ 61.09 % 1002.22 hPa
2021-05-10 04:41:39 20.17 ℃ 61.33 % 1002.16 hPa
2021-05-10 04:31:39 20.26 ℃ 60.87 % 1002.11 hPa
2021-05-10 04:21:39 20.39 ℃ 60.2 % 1002.06 hPa
2021-05-10 04:11:39 20.56 ℃ 59.51 % 1002.06 hPa
2021-05-10 04:01:39 20.58 ℃ 59.47 % 1002.04 hPa
2021-05-10 03:51:40 20.63 ℃ 59.89 % 1002.06 hPa
2021-05-10 03:41:40 20.57 ℃ 61.43 % 1002.03 hPa
2021-05-10 03:31:40 20.67 ℃ 62.15 % 1002.02 hPa
2021-05-10 03:21:40 20.76 ℃ 62.79 % 1001.92 hPa
2021-05-10 03:11:40 20.72 ℃ 64.67 % 1001.87 hPa
2021-05-10 03:01:40 20.75 ℃ 66.02 % 1001.85 hPa
2021-05-10 02:51:40 20.73 ℃ 67.96 % 1001.81 hPa
2021-05-10 02:41:40 20.65 ℃ 71.12 % 1001.82 hPa
2021-05-10 02:31:40 20.74 ℃ 72.93 % 1001.82 hPa
2021-05-10 02:21:40 20.71 ℃ 74.6 % 1001.78 hPa
2021-05-10 02:11:40 20.73 ℃ 76.48 % 1001.73 hPa
2021-05-10 02:01:40 20.91 ℃ 75.95 % 1001.7 hPa
2021-05-10 01:51:40 21 ℃ 75.55 % 1001.73 hPa
2021-05-10 01:41:40 20.98 ℃ 76.03 % 1001.75 hPa
2021-05-10 01:31:40 21.08 ℃ 75.69 % 1001.77 hPa
2021-05-10 01:21:40 21.21 ℃ 75.19 % 1001.85 hPa
2021-05-10 01:11:40 21.19 ℃ 75.59 % 1001.86 hPa
2021-05-10 01:01:40 21.22 ℃ 75.78 % 1001.95 hPa
2021-05-10 00:51:40 21.36 ℃ 75.14 % 1002.01 hPa
2021-05-10 00:41:40 21.47 ℃ 74.53 % 1002.02 hPa
2021-05-10 00:31:40 21.55 ℃ 74.17 % 1002.04 hPa
2021-05-10 00:21:40 21.61 ℃ 73.75 % 1002.08 hPa
2021-05-10 00:11:40 21.67 ℃ 73.3 % 1002.14 hPa
2021-05-10 00:01:40 21.82 ℃ 72.2 % 1002.17 hPa
2021-05-09 23:51:40 21.97 ℃ 71.01 % 1002.22 hPa
2021-05-09 23:41:40 22.13 ℃ 69.94 % 1002.26 hPa
2021-05-09 23:31:40 22.19 ℃ 69.36 % 1002.23 hPa
2021-05-09 23:21:40 22.24 ℃ 68.82 % 1002.21 hPa
2021-05-09 23:11:40 22.22 ℃ 68.73 % 1002.21 hPa
2021-05-09 23:01:40 22.16 ℃ 68.1 % 1002.18 hPa
2021-05-09 22:51:40 22.12 ℃ 66.81 % 1002.19 hPa
2021-05-09 22:41:40 22.14 ℃ 65.01 % 1002.19 hPa
2021-05-09 22:31:40 22.18 ℃ 62.62 % 1002.18 hPa
2021-05-09 22:21:40 22.22 ℃ 60.46 % 1002.21 hPa
2021-05-09 22:11:40 22.28 ℃ 58.22 % 1002.19 hPa
2021-05-09 22:01:40 22.42 ℃ 55.66 % 1002.15 hPa
2021-05-09 21:51:41 22.51 ℃ 53.65 % 1002.2 hPa
2021-05-09 21:41:40 22.67 ℃ 51.55 % 1002.22 hPa
2021-05-09 21:31:40 22.77 ℃ 49.69 % 1002.17 hPa
2021-05-09 21:21:40 22.89 ℃ 48.06 % 1002.21 hPa
2021-05-09 21:11:40 23.03 ℃ 46.95 % 1002.27 hPa
2021-05-09 21:01:41 23.23 ℃ 46.05 % 1002.39 hPa
2021-05-09 20:51:40 23.36 ℃ 45.42 % 1002.46 hPa
2021-05-09 20:41:40 23.56 ℃ 44.77 % 1002.56 hPa
2021-05-09 20:31:40 23.73 ℃ 44.18 % 1002.6 hPa
2021-05-09 20:21:40 23.8 ℃ 44.13 % 1002.67 hPa
2021-05-09 20:11:40 23.84 ℃ 44.63 % 1002.8 hPa
2021-05-09 20:01:40 23.86 ℃ 45.87 % 1003.01 hPa
2021-05-09 19:51:40 23.8 ℃ 47.49 % 1003.2 hPa
2021-05-09 19:41:40 23.78 ℃ 48.32 % 1003.5 hPa
2021-05-09 19:31:40 23.69 ℃ 49.29 % 1003.68 hPa
2021-05-09 19:21:40 23.66 ℃ 50.01 % 1003.79 hPa
2021-05-09 19:11:40 23.63 ℃ 51.02 % 1003.88 hPa
2021-05-09 19:01:40 23.66 ℃ 51.92 % 1003.92 hPa
2021-05-09 18:51:40 23.72 ℃ 53.1 % 1003.99 hPa
2021-05-09 18:41:40 23.61 ℃ 55.13 % 1004 hPa
2021-05-09 18:31:40 23.66 ℃ 56.78 % 1004.15 hPa
2021-05-09 18:21:40 23.75 ℃ 58.14 % 1004.44 hPa
2021-05-09 18:11:40 23.71 ℃ 59.11 % 1004.66 hPa
2021-05-09 18:01:40 23.61 ℃ 57.99 % 1004.88 hPa
2021-05-09 17:51:40 23.86 ℃ 54.36 % 1005.11 hPa
2021-05-09 17:41:40 23.85 ℃ 52.78 % 1004.91 hPa
2021-05-09 17:31:40 24.2 ℃ 49.09 % 1004.49 hPa
2021-05-09 17:21:40 24.73 ℃ 43.2 % 1004.79 hPa
2021-05-09 17:11:41 25.2 ℃ 39.47 % 1004.92 hPa
2021-05-09 17:01:40 25.53 ℃ 37.86 % 1004.69 hPa
2021-05-09 16:51:40 25.66 ℃ 37.17 % 1004.67 hPa
2021-05-09 16:41:40 25.56 ℃ 37.39 % 1004.7 hPa
2021-05-09 16:31:42 25.66 ℃ 37.92 % 1004.83 hPa
2021-05-09 16:21:40 25.49 ℃ 39.5 % 1005.09 hPa
2021-05-09 16:11:41 25.34 ℃ 41.95 % 1005.31 hPa
2021-05-09 16:01:41 25.52 ℃ 43.59 % 1005.55 hPa
2021-05-09 15:51:41 25.31 ℃ 44.46 % 1005.79 hPa
2021-05-09 15:41:41 25.23 ℃ 43.66 % 1006.06 hPa
2021-05-09 15:31:41 25.14 ℃ 43.25 % 1006.2 hPa
2021-05-09 15:21:41 24.8 ℃ 44 % 1006.1 hPa
2021-05-09 15:11:41 24.73 ℃ 43.15 % 1005.95 hPa
2021-05-09 15:01:41 24.69 ℃ 42.64 % 1005.86 hPa
2021-05-09 14:51:41 24.82 ℃ 41.15 % 1005.84 hPa
2021-05-09 14:41:42 24.79 ℃ 41.22 % 1005.89 hPa
2021-05-09 14:31:41 24.7 ℃ 41.58 % 1005.95 hPa
2021-05-09 14:21:41 24.74 ℃ 41.98 % 1006.01 hPa
2021-05-09 14:11:41 24.64 ℃ 42.84 % 1006.05 hPa
2021-05-09 14:01:41 24.58 ℃ 42.94 % 1006.11 hPa
2021-05-09 13:51:41 24.38 ℃ 44.25 % 1006.14 hPa
2021-05-09 13:41:41 24.35 ℃ 45.23 % 1006.11 hPa
2021-05-09 13:31:41 24.25 ℃ 46.92 % 1006.02 hPa
2021-05-09 13:21:41 24.07 ℃ 48.92 % 1005.95 hPa
2021-05-09 13:11:41 23.93 ℃ 50.46 % 1005.8 hPa
2021-05-09 13:01:41 23.77 ℃ 51.66 % 1005.74 hPa
2021-05-09 12:51:41 23.56 ℃ 51.76 % 1005.81 hPa
2021-05-09 12:41:41 23.25 ℃ 52.98 % 1005.94 hPa
2021-05-09 12:31:41 22.9 ℃ 54.53 % 1006.05 hPa
2021-05-09 12:21:41 22.52 ℃ 56.5 % 1006.15 hPa
2021-05-09 12:11:41 22.3 ℃ 59.78 % 1006.22 hPa
2021-05-09 12:01:41 22.17 ℃ 64.03 % 1006.27 hPa
2021-05-09 11:51:41 21.85 ℃ 66.05 % 1006.41 hPa
2021-05-09 11:41:41 21.9 ℃ 65.88 % 1006.52 hPa
2021-05-09 11:31:41 21.87 ℃ 64.7 % 1006.59 hPa
2021-05-09 11:21:41 21.88 ℃ 65.33 % 1006.71 hPa
2021-05-09 11:11:41 21.55 ℃ 67.75 % 1006.76 hPa
2021-05-09 11:01:41 21.13 ℃ 67.59 % 1006.79 hPa
2021-05-09 10:51:41 21.04 ℃ 68.09 % 1006.88 hPa
2021-05-09 10:41:41 20.88 ℃ 69.39 % 1006.92 hPa
2021-05-09 10:31:41 20.62 ℃ 71.12 % 1006.92 hPa
2021-05-09 10:21:41 20.22 ℃ 74.88 % 1006.98 hPa
2021-05-09 10:11:41 19.94 ℃ 77.67 % 1006.95 hPa
2021-05-09 10:01:41 19.77 ℃ 79.72 % 1006.94 hPa
2021-05-09 09:51:41 19.59 ℃ 78.98 % 1007 hPa
2021-05-09 09:41:41 19.47 ℃ 81.02 % 1006.98 hPa
2021-05-09 09:31:41 19.18 ℃ 81.95 % 1006.99 hPa
2021-05-09 09:21:41 19.03 ℃ 81.47 % 1006.96 hPa
2021-05-09 09:11:41 18.64 ℃ 84.08 % 1006.94 hPa
2021-05-09 09:01:41 18.37 ℃ 86.54 % 1006.97 hPa
2021-05-09 08:51:41 18.02 ℃ 88.89 % 1006.98 hPa
2021-05-09 08:41:41 17.61 ℃ 90.23 % 1007.02 hPa
2021-05-09 08:31:41 16.93 ℃ 95.91 % 1007.06 hPa
2021-05-09 08:21:41 16.2 ℃ 98.44 % 1007.11 hPa
2021-05-09 08:11:41 15.71 ℃ 100 % 1007.18 hPa
2021-05-09 08:01:41 15.33 ℃ 100 % 1007.18 hPa
2021-05-09 07:51:41 15.3 ℃ 100 % 1007.18 hPa
2021-05-09 07:41:41 15.23 ℃ 100 % 1007.17 hPa
2021-05-09 07:31:41 14.56 ℃ 100 % 1007.17 hPa
2021-05-09 07:21:41 14.32 ℃ 100 % 1007.19 hPa
2021-05-09 07:11:41 14.05 ℃ 100 % 1007.2 hPa
2021-05-09 07:01:42 13.64 ℃ 100 % 1007.23 hPa
2021-05-09 06:51:42 13.56 ℃ 100 % 1007.25 hPa
2021-05-09 06:41:42 13.31 ℃ 100 % 1007.26 hPa
2021-05-09 06:31:42 13.12 ℃ 100 % 1007.27 hPa
2021-05-09 06:21:41 13.05 ℃ 100 % 1007.25 hPa
2021-05-09 06:11:41 12.42 ℃ 100 % 1007.21 hPa
2021-05-09 06:01:42 12.01 ℃ 100 % 1007.2 hPa
2021-05-09 05:51:41 11.89 ℃ 100 % 1007.15 hPa
2021-05-09 05:41:42 11.83 ℃ 100 % 1007.11 hPa
2021-05-09 05:31:42 11.66 ℃ 100 % 1007.08 hPa
2021-05-09 05:21:41 11.62 ℃ 100 % 1007.06 hPa
2021-05-09 05:11:41 11.61 ℃ 100 % 1007.05 hPa
2021-05-09 05:01:42 11.37 ℃ 100 % 1007.05 hPa
2021-05-09 04:51:42 11.36 ℃ 100 % 1007.08 hPa
2021-05-09 04:41:41 11.14 ℃ 100 % 1007.12 hPa
2021-05-09 04:31:42 11.08 ℃ 100 % 1007.14 hPa
2021-05-09 04:21:42 10.94 ℃ 100 % 1007.1 hPa
2021-05-09 04:11:42 10.89 ℃ 100 % 1007.12 hPa
2021-05-09 04:01:42 10.8 ℃ 100 % 1007.18 hPa
2021-05-09 03:51:42 10.7 ℃ 100 % 1007.26 hPa
2021-05-09 03:41:42 10.71 ℃ 100 % 1007.37 hPa
2021-05-09 03:31:42 10.42 ℃ 100 % 1007.37 hPa
2021-05-09 03:21:42 10.27 ℃ 100 % 1007.41 hPa
2021-05-09 03:11:42 10.17 ℃ 100 % 1007.43 hPa
2021-05-09 03:01:42 10.07 ℃ 100 % 1007.42 hPa
2021-05-09 02:51:42 9.98 ℃ 100 % 1007.63 hPa
2021-05-09 02:41:42 9.99 ℃ 100 % 1007.74 hPa
2021-05-09 02:31:42 9.81 ℃ 100 % 1007.87 hPa
2021-05-09 02:21:42 9.67 ℃ 100 % 1007.93 hPa
2021-05-09 02:11:42 9.64 ℃ 100 % 1008.05 hPa
2021-05-09 02:01:42 9.55 ℃ 100 % 1008.25 hPa
2021-05-09 01:51:42 9.46 ℃ 100 % 1008.45 hPa
2021-05-09 01:41:42 9.41 ℃ 100 % 1008.61 hPa
2021-05-09 01:31:42 9.43 ℃ 100 % 1008.73 hPa
2021-05-09 01:21:42 9.51 ℃ 100 % 1008.89 hPa
2021-05-09 01:11:42 9.54 ℃ 100 % 1008.97 hPa
2021-05-09 01:01:42 9.43 ℃ 100 % 1009.05 hPa
2021-05-09 00:51:42 9.46 ℃ 100 % 1009.2 hPa
2021-05-09 00:41:43 9.44 ℃ 100 % 1009.4 hPa
2021-05-09 00:31:42 9.43 ℃ 100 % 1009.62 hPa
2021-05-09 00:21:42 9.47 ℃ 100 % 1009.83 hPa
2021-05-09 00:11:43 9.52 ℃ 99.99 % 1010.03 hPa
2021-05-09 00:01:42 9.6 ℃ 99.99 % 1010.26 hPa
2021-05-08 23:51:42 9.75 ℃ 99.98 % 1010.39 hPa
2021-05-08 23:41:42 9.83 ℃ 99.95 % 1010.56 hPa
2021-05-08 23:31:43 10.05 ℃ 99.9 % 1010.76 hPa
2021-05-08 23:21:42 10.04 ℃ 99.8 % 1010.96 hPa
2021-05-08 23:11:42 10.09 ℃ 99.6 % 1011.17 hPa
2021-05-08 23:01:42 10.22 ℃ 99.2 % 1011.31 hPa
2021-05-08 22:51:43 10.48 ℃ 98.41 % 1011.47 hPa
2021-05-08 22:41:42 10.87 ℃ 96.81 % 1011.65 hPa
2021-05-08 22:31:42 11.41 ℃ 93.63 % 1011.89 hPa
2021-05-08 22:21:42 11.47 ℃ 87.26 % 1012.01 hPa
2021-05-08 22:11:42 12 ℃ 78.36 % 1012.12 hPa
2021-05-08 22:01:42 12.31 ℃ 73.6 % 1012.2 hPa
2021-05-08 21:51:42 12.81 ℃ 68 % 1012.28 hPa
2021-05-08 21:41:42 12.78 ℃ 67.8 % 1012.37 hPa
2021-05-08 21:31:42 12.74 ℃ 67.6 % 1012.49 hPa
2021-05-08 21:21:42 12.89 ℃ 65.3 % 1012.55 hPa
2021-05-08 21:11:42 12.99 ℃ 61.87 % 1012.65 hPa
2021-05-08 21:01:42 13.33 ℃ 58.13 % 1012.71 hPa
2021-05-08 20:51:42 13.11 ℃ 56.78 % 1012.83 hPa
2021-05-08 20:41:42 13.08 ℃ 54.79 % 1012.9 hPa
2021-05-08 20:31:42 13.08 ℃ 54.46 % 1012.96 hPa
2021-05-08 20:21:42 13.6 ℃ 51.07 % 1012.98 hPa
2021-05-08 20:11:42 14.01 ℃ 47.93 % 1013.03 hPa
2021-05-08 20:01:42 14.56 ℃ 44.41 % 1013.04 hPa
2021-05-08 19:51:42 15.06 ℃ 42.66 % 1013.11 hPa
2021-05-08 19:41:42 15.07 ℃ 41.33 % 1013.23 hPa
2021-05-08 19:31:42 14.9 ℃ 41.27 % 1013.28 hPa
2021-05-08 19:21:42 15.33 ℃ 40.71 % 1013.42 hPa
2021-05-08 19:11:42 15.51 ℃ 40.65 % 1013.5 hPa
2021-05-08 19:01:43 15.61 ℃ 41.51 % 1013.61 hPa
2021-05-08 18:51:42 15.44 ℃ 40.22 % 1013.71 hPa
2021-05-08 18:41:42 15.44 ℃ 41.15 % 1013.77 hPa
2021-05-08 18:31:42 15.17 ℃ 42.19 % 1013.82 hPa
2021-05-08 18:21:42 15.05 ℃ 38.85 % 1013.86 hPa
2021-05-08 18:11:42 15.05 ℃ 39.05 % 1013.96 hPa
2021-05-08 18:01:42 15.41 ℃ 38.28 % 1014.04 hPa
2021-05-08 17:51:43 15.45 ℃ 38.45 % 1014.11 hPa
2021-05-08 17:41:43 15.34 ℃ 38.33 % 1014.22 hPa
2021-05-08 17:31:43 15.53 ℃ 38.29 % 1014.28 hPa
2021-05-08 17:21:43 15.59 ℃ 38.25 % 1014.36 hPa
2021-05-08 17:11:43 15.68 ℃ 38.36 % 1014.44 hPa
2021-05-08 17:01:43 16.1 ℃ 38.41 % 1014.53 hPa
2021-05-08 16:51:43 16.16 ℃ 39.08 % 1014.62 hPa
2021-05-08 16:41:43 16.09 ℃ 37.58 % 1014.71 hPa
2021-05-08 16:31:43 16.33 ℃ 37.51 % 1014.82 hPa
2021-05-08 16:21:43 16.65 ℃ 37.55 % 1014.96 hPa
2021-05-08 16:11:43 16.43 ℃ 39.09 % 1015.07 hPa
2021-05-08 16:01:43 16.17 ℃ 38.64 % 1015.24 hPa
2021-05-08 15:51:43 16.39 ℃ 39.15 % 1015.42 hPa
2021-05-08 15:41:43 16.43 ℃ 40.34 % 1015.55 hPa
2021-05-08 15:31:43 16.36 ℃ 40.35 % 1015.7 hPa
2021-05-08 15:21:43 16.57 ℃ 42.97 % 1015.82 hPa
2021-05-08 15:11:43 15.92 ℃ 40.97 % 1015.9 hPa
2021-05-08 15:01:43 16.09 ℃ 41.69 % 1016.04 hPa
2021-05-08 14:51:43 16.17 ℃ 41.81 % 1016.11 hPa
2021-05-08 14:41:43 16.16 ℃ 40.95 % 1016.17 hPa
2021-05-08 14:31:43 16.23 ℃ 41.53 % 1016.24 hPa
2021-05-08 14:21:46 16.07 ℃ 40.86 % 1016.3 hPa
2021-05-08 14:11:43 15.61 ℃ 41.69 % 1016.35 hPa
2021-05-08 14:01:43 15.47 ℃ 43 % 1016.38 hPa
2021-05-08 13:51:43 15.67 ℃ 43.98 % 1016.44 hPa
2021-05-08 13:41:43 15.76 ℃ 45.25 % 1016.55 hPa
2021-05-08 13:31:43 15.54 ℃ 45.98 % 1016.63 hPa
2021-05-08 13:21:43 15.37 ℃ 49.42 % 1016.72 hPa
2021-05-08 13:11:43 15.9 ℃ 55.5 % 1016.79 hPa
2021-05-08 13:01:43 15.66 ℃ 49.95 % 1016.86 hPa
2021-05-08 12:51:43 14.96 ℃ 47.23 % 1016.94 hPa
2021-05-08 12:41:43 14.49 ℃ 44.83 % 1017.04 hPa
2021-05-08 12:31:43 14.54 ℃ 46.95 % 1017.08 hPa
2021-05-08 12:21:43 14.04 ℃ 49.72 % 1017.15 hPa
2021-05-08 12:11:43 13.92 ℃ 51.89 % 1017.26 hPa
2021-05-08 12:01:43 13.55 ℃ 55.9 % 1017.36 hPa
2021-05-08 11:51:43 13.27 ℃ 56.02 % 1017.45 hPa
2021-05-08 11:41:43 13.05 ℃ 56.67 % 1017.5 hPa
2021-05-08 11:31:43 13.01 ℃ 56.73 % 1017.57 hPa
2021-05-08 11:21:44 12.64 ℃ 58.46 % 1017.59 hPa
2021-05-08 11:11:43 12.58 ℃ 58.31 % 1017.64 hPa
2021-05-08 11:01:43 12.37 ℃ 56.99 % 1017.68 hPa
2021-05-08 10:51:43 12.71 ℃ 54.7 % 1017.64 hPa
2021-05-08 10:41:43 12.35 ℃ 58.65 % 1017.72 hPa
2021-05-08 10:31:43 12.33 ℃ 60.03 % 1017.73 hPa
2021-05-08 10:21:43 12.02 ℃ 62.91 % 1017.69 hPa
2021-05-08 10:11:43 11.76 ℃ 67.25 % 1017.71 hPa
2021-05-08 10:01:43 11.38 ℃ 71.97 % 1017.68 hPa
2021-05-08 09:51:43 11.21 ℃ 77.9 % 1017.71 hPa
2021-05-08 09:41:43 10.73 ℃ 80.01 % 1017.74 hPa
2021-05-08 09:31:43 10.69 ℃ 82.38 % 1017.73 hPa
2021-05-08 09:21:43 10.8 ℃ 82.82 % 1017.66 hPa
2021-05-08 09:11:46 11.18 ℃ 82.33 % 1017.62 hPa
2021-05-08 09:01:43 11.59 ℃ 81.74 % 1017.6 hPa
2021-05-08 08:51:43 11.75 ℃ 82.62 % 1017.53 hPa
2021-05-08 08:41:43 11.93 ℃ 82.98 % 1017.5 hPa
2021-05-08 08:31:43 11.47 ℃ 84.77 % 1017.5 hPa
2021-05-08 08:21:43 11.51 ℃ 85.02 % 1017.46 hPa
2021-05-08 08:11:43 11.31 ℃ 86.06 % 1017.37 hPa
2021-05-08 08:01:43 11.11 ℃ 86.6 % 1017.29 hPa
2021-05-08 07:51:43 11.14 ℃ 85.81 % 1017.22 hPa
2021-05-08 07:41:43 10.96 ℃ 85.99 % 1017.16 hPa
2021-05-08 07:31:43 10.39 ℃ 88.66 % 1017.1 hPa
2021-05-08 07:21:43 10.2 ℃ 89.88 % 1017.05 hPa
2021-05-08 07:11:44 10.05 ℃ 90.9 % 1017.01 hPa
2021-05-08 07:01:44 9.78 ℃ 93.41 % 1016.92 hPa
2021-05-08 06:51:44 9.57 ℃ 94.1 % 1016.86 hPa
2021-05-08 06:41:44 9.56 ℃ 93.08 % 1016.81 hPa
2021-05-08 06:31:44 9.56 ℃ 93.6 % 1016.79 hPa
2021-05-08 06:21:44 9.27 ℃ 96.16 % 1016.79 hPa
2021-05-08 06:11:44 8.8 ℃ 99.11 % 1016.81 hPa
2021-05-08 06:01:44 8.31 ℃ 100 % 1016.84 hPa
2021-05-08 05:51:44 7.57 ℃ 100 % 1016.81 hPa
2021-05-08 05:41:44 7.39 ℃ 100 % 1016.76 hPa
2021-05-08 05:31:44 7.12 ℃ 100 % 1016.73 hPa
2021-05-08 05:21:44 6.91 ℃ 100 % 1016.72 hPa
2021-05-08 05:11:44 6.75 ℃ 100 % 1016.71 hPa
2021-05-08 05:01:44 6.94 ℃ 100 % 1016.72 hPa
2021-05-08 04:51:44 6.93 ℃ 100 % 1016.7 hPa
2021-05-08 04:41:44 6.96 ℃ 100 % 1016.71 hPa
2021-05-08 04:31:44 6.94 ℃ 100 % 1016.7 hPa
2021-05-08 04:21:44 6.8 ℃ 100 % 1016.68 hPa
2021-05-08 04:11:44 6.77 ℃ 100 % 1016.68 hPa
2021-05-08 04:01:44 6.88 ℃ 100 % 1016.65 hPa
2021-05-08 03:51:44 6.85 ℃ 100 % 1016.65 hPa
2021-05-08 03:41:44 7.19 ℃ 100 % 1016.59 hPa
2021-05-08 03:31:44 7.15 ℃ 100 % 1016.57 hPa
2021-05-08 03:21:44 7.08 ℃ 100 % 1016.55 hPa
2021-05-08 03:11:44 6.98 ℃ 100 % 1016.54 hPa
2021-05-08 03:01:44 6.94 ℃ 100 % 1016.53 hPa
2021-05-08 02:51:44 6.85 ℃ 100 % 1016.49 hPa
2021-05-08 02:41:44 6.58 ℃ 100 % 1016.48 hPa
2021-05-08 02:31:44 6.63 ℃ 100 % 1016.47 hPa
2021-05-08 02:21:44 6.76 ℃ 100 % 1016.46 hPa
2021-05-08 02:11:44 6.8 ℃ 100 % 1016.44 hPa
2021-05-08 02:01:44 6.92 ℃ 100 % 1016.44 hPa
2021-05-08 01:51:44 6.86 ℃ 100 % 1016.42 hPa
2021-05-08 01:41:44 6.9 ℃ 100 % 1016.36 hPa
2021-05-08 01:31:44 6.81 ℃ 100 % 1016.34 hPa
2021-05-08 01:21:44 6.88 ℃ 100 % 1016.32 hPa
2021-05-08 01:11:44 6.89 ℃ 100 % 1016.26 hPa
2021-05-08 01:01:44 6.92 ℃ 100 % 1016.21 hPa
2021-05-08 00:51:44 6.98 ℃ 100 % 1016.15 hPa
2021-05-08 00:41:44 7.05 ℃ 100 % 1016.07 hPa
2021-05-08 00:31:44 7.21 ℃ 100 % 1015.95 hPa
2021-05-08 00:21:44 7.32 ℃ 100 % 1015.85 hPa
2021-05-08 00:11:44 7.37 ℃ 100 % 1015.75 hPa
2021-05-08 00:01:44 7.65 ℃ 100 % 1015.62 hPa
2021-05-07 23:51:44 7.52 ℃ 100 % 1015.55 hPa
2021-05-07 23:41:44 7.67 ℃ 100 % 1015.46 hPa
2021-05-07 23:31:44 7.64 ℃ 100 % 1015.37 hPa
2021-05-07 23:21:44 7.62 ℃ 100 % 1015.25 hPa
2021-05-07 23:11:44 7.69 ℃ 100 % 1015.2 hPa
2021-05-07 23:01:44 7.72 ℃ 99.99 % 1015.1 hPa
2021-05-07 22:51:44 7.74 ℃ 99.98 % 1015.02 hPa
2021-05-07 22:41:44 7.79 ℃ 99.96 % 1014.96 hPa
2021-05-07 22:31:44 7.92 ℃ 99.93 % 1014.92 hPa
2021-05-07 22:21:44 7.96 ℃ 99.86 % 1014.92 hPa
2021-05-07 22:11:44 7.98 ℃ 99.71 % 1014.92 hPa
2021-05-07 22:01:44 8.04 ℃ 99.42 % 1014.92 hPa
2021-05-07 21:51:45 8.2 ℃ 98.84 % 1014.92 hPa
2021-05-07 21:41:44 8.29 ℃ 97.69 % 1014.84 hPa
2021-05-07 21:31:44 8.45 ℃ 95.38 % 1014.76 hPa
2021-05-07 21:21:44 8.53 ℃ 90.76 % 1014.64 hPa
2021-05-07 21:11:44 8.58 ℃ 88.75 % 1014.54 hPa
2021-05-07 21:01:45 8.69 ℃ 87.62 % 1014.43 hPa
2021-05-07 20:51:44 8.85 ℃ 86.39 % 1014.3 hPa
2021-05-07 20:41:44 9.09 ℃ 84.7 % 1014.21 hPa
2021-05-07 20:31:45 9.23 ℃ 82.82 % 1014.11 hPa
2021-05-07 20:21:44 9.42 ℃ 80.8 % 1013.97 hPa
2021-05-07 20:11:44 9.56 ℃ 79.02 % 1013.81 hPa
2021-05-07 20:01:45 9.75 ℃ 77.35 % 1013.73 hPa
2021-05-07 19:51:45 9.71 ℃ 76.06 % 1013.67 hPa
2021-05-07 19:41:45 9.77 ℃ 75.24 % 1013.53 hPa
2021-05-07 19:31:45 9.99 ℃ 75.7 % 1013.43 hPa
2021-05-07 19:21:45 10.11 ℃ 78.3 % 1013.36 hPa
2021-05-07 19:11:45 10.02 ℃ 82.88 % 1013.34 hPa
2021-05-07 19:01:45 9.87 ℃ 80.91 % 1013.29 hPa
2021-05-07 18:51:45 10.08 ℃ 76.65 % 1013.17 hPa
2021-05-07 18:41:45 10.37 ℃ 71.34 % 1013.11 hPa
2021-05-07 18:31:45 10.42 ℃ 67.91 % 1013.02 hPa
2021-05-07 18:21:45 10.69 ℃ 67.74 % 1012.92 hPa
2021-05-07 18:11:45 10.84 ℃ 68.21 % 1012.81 hPa
2021-05-07 18:01:45 10.75 ℃ 65.68 % 1012.74 hPa
2021-05-07 17:51:45 10.77 ℃ 64.19 % 1012.72 hPa
2021-05-07 17:41:45 10.65 ℃ 63.62 % 1012.65 hPa
2021-05-07 17:31:45 10.81 ℃ 61.32 % 1012.57 hPa
2021-05-07 17:21:45 10.94 ℃ 62.41 % 1012.5 hPa
2021-05-07 17:11:45 11.07 ℃ 62.61 % 1012.4 hPa
2021-05-07 17:01:45 11.1 ℃ 63.14 % 1012.36 hPa
2021-05-07 16:51:45 11.23 ℃ 60.11 % 1012.26 hPa
2021-05-07 16:41:45 11.53 ℃ 54.7 % 1012.18 hPa
2021-05-07 16:31:45 11.61 ℃ 48.74 % 1012.07 hPa
2021-05-07 16:21:45 11.58 ℃ 48.21 % 1011.97 hPa
2021-05-07 16:11:45 11.29 ℃ 48.97 % 1011.92 hPa
2021-05-07 16:01:45 11.24 ℃ 48.76 % 1011.77 hPa
2021-05-07 15:51:45 11.4 ℃ 47.76 % 1011.71 hPa
2021-05-07 15:41:45 11.2 ℃ 49.56 % 1011.66 hPa
2021-05-07 15:31:45 10.79 ℃ 49.55 % 1011.66 hPa
2021-05-07 15:21:46 10.95 ℃ 49.79 % 1011.6 hPa
2021-05-07 15:11:46 11.03 ℃ 51.21 % 1011.47 hPa
2021-05-07 15:01:45 10.83 ℃ 58.68 % 1011.32 hPa
2021-05-07 14:51:45 10.94 ℃ 64.34 % 1011.22 hPa
2021-05-07 14:41:45 10.79 ℃ 67.81 % 1011.11 hPa
2021-05-07 14:31:45 10.6 ℃ 68.57 % 1010.99 hPa
2021-05-07 14:21:45 10.23 ℃ 72.38 % 1010.97 hPa
2021-05-07 14:11:45 10.62 ℃ 71.44 % 1010.83 hPa
2021-05-07 14:01:46 10.1 ℃ 77.65 % 1010.87 hPa
2021-05-07 13:51:45 9.8 ℃ 84.15 % 1010.81 hPa
2021-05-07 13:41:45 9.84 ℃ 86.2 % 1010.69 hPa
2021-05-07 13:31:45 10.3 ℃ 89.54 % 1010.56 hPa
2021-05-07 13:21:45 10.06 ℃ 95.7 % 1010.53 hPa
2021-05-07 13:11:45 10.26 ℃ 96.26 % 1010.51 hPa
2021-05-07 13:01:45 10.03 ℃ 97.19 % 1010.47 hPa
2021-05-07 12:51:45 9.86 ℃ 97.2 % 1010.44 hPa
2021-05-07 12:41:45 9.48 ℃ 100 % 1010.42 hPa
2021-05-07 12:31:45 9.56 ℃ 100 % 1010.37 hPa
2021-05-07 12:21:45 8.79 ℃ 100 % 1010.36 hPa
2021-05-07 12:11:45 8.46 ℃ 100 % 1010.27 hPa
2021-05-07 12:01:45 8 ℃ 100 % 1010.24 hPa
2021-05-07 11:51:45 7.79 ℃ 100 % 1010.16 hPa
2021-05-07 11:41:45 7.74 ℃ 100 % 1010.06 hPa
2021-05-07 11:31:45 7.69 ℃ 100 % 1009.92 hPa
2021-05-07 11:21:45 7.43 ℃ 100 % 1009.78 hPa
2021-05-07 11:11:45 7.24 ℃ 100 % 1009.63 hPa
2021-05-07 11:01:45 7.38 ℃ 100 % 1009.47 hPa
2021-05-07 10:51:45 7.53 ℃ 100 % 1009.27 hPa
2021-05-07 10:41:45 7.52 ℃ 100 % 1009.14 hPa
2021-05-07 10:31:46 7.27 ℃ 100 % 1009.04 hPa
2021-05-07 10:21:45 7.48 ℃ 100 % 1008.88 hPa
2021-05-07 10:11:45 7.07 ℃ 100 % 1008.76 hPa
2021-05-07 10:01:45 6.77 ℃ 99.99 % 1008.67 hPa
2021-05-07 09:51:45 6.78 ℃ 99.99 % 1008.58 hPa
2021-05-07 09:41:46 6.62 ℃ 99.98 % 1008.5 hPa
2021-05-07 09:31:46 6.63 ℃ 99.95 % 1008.43 hPa
2021-05-07 09:21:46 6.74 ℃ 99.91 % 1008.34 hPa
2021-05-07 09:11:46 6.55 ℃ 99.81 % 1008.27 hPa
2021-05-07 09:01:46 6.89 ℃ 99.62 % 1008.15 hPa
2021-05-07 08:51:46 6.94 ℃ 99.25 % 1008.05 hPa
2021-05-07 08:41:46 7.18 ℃ 98.49 % 1007.99 hPa
2021-05-07 08:31:46 7.32 ℃ 96.99 % 1007.9 hPa
2021-05-07 08:21:46 7.6 ℃ 93.98 % 1007.76 hPa
2021-05-07 08:11:46 8.22 ℃ 87.95 % 1007.62 hPa
2021-05-07 08:01:46 8.69 ℃ 84.97 % 1007.52 hPa
2021-05-07 07:51:46 8.56 ℃ 85.41 % 1007.46 hPa
2021-05-07 07:41:46 8.59 ℃ 84.53 % 1007.37 hPa
2021-05-07 07:31:46 8.54 ℃ 83.52 % 1007.31 hPa
2021-05-07 07:21:46 8.45 ℃ 82.86 % 1007.25 hPa
2021-05-07 07:11:46 8.58 ℃ 82.09 % 1007.15 hPa
2021-05-07 07:01:46 8.46 ℃ 84.1 % 1007.04 hPa
2021-05-07 06:51:46 8.2 ℃ 85.47 % 1006.92 hPa
2021-05-07 06:41:46 7.92 ℃ 87.13 % 1006.85 hPa
2021-05-07 06:31:46 8.01 ℃ 85.64 % 1006.76 hPa
2021-05-07 06:21:46 8.02 ℃ 85.55 % 1006.69 hPa
2021-05-07 06:11:46 7.96 ℃ 86.9 % 1006.61 hPa
2021-05-07 06:01:46 7.08 ℃ 92.92 % 1006.55 hPa
2021-05-07 05:51:46 6.08 ℃ 100 % 1006.58 hPa
2021-05-07 05:41:46 5.97 ℃ 100 % 1006.54 hPa
2021-05-07 05:31:46 5.96 ℃ 100 % 1006.49 hPa
2021-05-07 05:21:46 5.87 ℃ 100 % 1006.46 hPa
2021-05-07 05:11:46 5.72 ℃ 99.99 % 1006.46 hPa
2021-05-07 05:01:46 5.82 ℃ 99.98 % 1006.4 hPa
2021-05-07 04:51:46 5.81 ℃ 99.97 % 1006.38 hPa
2021-05-07 04:41:46 5.9 ℃ 99.93 % 1006.38 hPa
2021-05-07 04:31:46 5.86 ℃ 99.87 % 1006.39 hPa
2021-05-07 04:21:46 5.95 ℃ 99.74 % 1006.35 hPa
2021-05-07 04:11:46 6.18 ℃ 99.48 % 1006.28 hPa
2021-05-07 04:01:46 6.17 ℃ 98.96 % 1006.22 hPa
2021-05-07 03:51:46 6.01 ℃ 99.84 % 1006.15 hPa
2021-05-07 03:41:46 6.1 ℃ 99.68 % 1006.16 hPa
2021-05-07 03:31:46 6.13 ℃ 99.35 % 1006.14 hPa
2021-05-07 03:21:46 6.44 ℃ 98.7 % 1006.14 hPa
2021-05-07 03:11:46 6.67 ℃ 97.41 % 1006.14 hPa
2021-05-07 03:01:46 6.8 ℃ 95.21 % 1006.11 hPa
2021-05-07 02:51:46 6.69 ℃ 96.63 % 1006.07 hPa
2021-05-07 02:41:46 6.59 ℃ 96.34 % 1006.08 hPa
2021-05-07 02:31:47 6.66 ℃ 96.42 % 1006.13 hPa
2021-05-07 02:21:46 6.79 ℃ 95.45 % 1006.15 hPa
2021-05-07 02:11:46 7 ℃ 91.59 % 1006.17 hPa
2021-05-07 02:01:47 7.11 ℃ 91.77 % 1006.19 hPa
2021-05-07 01:51:46 7.28 ℃ 90.73 % 1006.21 hPa
2021-05-07 01:41:47 7.41 ℃ 89.75 % 1006.2 hPa
2021-05-07 01:31:46 7.6 ℃ 88.84 % 1006.18 hPa
2021-05-07 01:21:46 7.63 ℃ 88.49 % 1006.18 hPa
2021-05-07 01:11:46 7.71 ℃ 87.69 % 1006.17 hPa
2021-05-07 01:01:46 7.81 ℃ 86.85 % 1006.16 hPa
2021-05-07 00:51:47 7.84 ℃ 86.44 % 1006.14 hPa
2021-05-07 00:41:47 7.72 ℃ 88.03 % 1006.13 hPa
2021-05-07 00:31:46 7.67 ℃ 88.83 % 1006.13 hPa
2021-05-07 00:21:47 7.72 ℃ 88.87 % 1006.15 hPa
2021-05-07 00:11:46 7.73 ℃ 87.73 % 1006.15 hPa
2021-05-07 00:01:46 7.62 ℃ 88.35 % 1006.15 hPa
2021-05-06 23:51:47 7.26 ℃ 89.95 % 1006.2 hPa
2021-05-06 23:41:46 7.25 ℃ 89.81 % 1006.22 hPa
2021-05-06 23:31:47 7.09 ℃ 88.83 % 1006.23 hPa
2021-05-06 23:21:46 7.28 ℃ 87.67 % 1006.23 hPa
2021-05-06 23:11:46 7.51 ℃ 85.15 % 1006.23 hPa
2021-05-06 23:01:47 7.6 ℃ 85.01 % 1006.23 hPa
2021-05-06 22:51:46 7.62 ℃ 82.54 % 1006.27 hPa
2021-05-06 22:41:47 7.71 ℃ 82.48 % 1006.29 hPa
2021-05-06 22:31:47 7.91 ℃ 82.17 % 1006.26 hPa
2021-05-06 22:21:47 7.95 ℃ 79.11 % 1006.19 hPa
2021-05-06 22:11:47 7.91 ℃ 78.5 % 1006.13 hPa
2021-05-06 22:01:47 7.87 ℃ 76.38 % 1006.1 hPa
2021-05-06 21:51:47 8.02 ℃ 74.06 % 1006.08 hPa
2021-05-06 21:41:47 8.18 ℃ 71.84 % 1006.04 hPa
2021-05-06 21:31:47 8.31 ℃ 70.3 % 1006 hPa
2021-05-06 21:21:47 8.45 ℃ 69.98 % 1005.92 hPa
2021-05-06 21:11:47 8.53 ℃ 69.12 % 1005.82 hPa
2021-05-06 21:01:47 8.83 ℃ 67.52 % 1005.76 hPa
2021-05-06 20:51:47 8.94 ℃ 66.21 % 1005.7 hPa
2021-05-06 20:41:47 9.31 ℃ 64.32 % 1005.64 hPa
2021-05-06 20:31:47 9.43 ℃ 60.11 % 1005.56 hPa
2021-05-06 20:21:47 9.47 ℃ 59.08 % 1005.5 hPa
2021-05-06 20:11:47 9.46 ℃ 57.86 % 1005.44 hPa
2021-05-06 20:01:47 9.53 ℃ 58.57 % 1005.4 hPa
2021-05-06 19:51:47 9.59 ℃ 58.3 % 1005.36 hPa
2021-05-06 19:41:47 9.75 ℃ 57.44 % 1005.33 hPa
2021-05-06 19:31:47 9.93 ℃ 55.34 % 1005.3 hPa
2021-05-06 19:21:47 10.1 ℃ 54.06 % 1005.26 hPa
2021-05-06 19:11:47 10.14 ℃ 54.66 % 1005.21 hPa
2021-05-06 19:01:47 10.18 ℃ 55.36 % 1005.16 hPa
2021-05-06 18:51:47 10.33 ℃ 55.05 % 1005.09 hPa
2021-05-06 18:41:47 10.35 ℃ 54.5 % 1005.09 hPa
2021-05-06 18:31:47 10.4 ℃ 53.8 % 1005.07 hPa
2021-05-06 18:21:47 10.42 ℃ 54.33 % 1005.11 hPa
2021-05-06 18:11:47 10.35 ℃ 55.9 % 1005.11 hPa
2021-05-06 18:01:47 10.53 ℃ 55.27 % 1005.17 hPa
2021-05-06 17:51:47 10.66 ℃ 54.6 % 1005.14 hPa
2021-05-06 17:41:47 10.6 ℃ 54.47 % 1005.09 hPa
2021-05-06 17:31:47 10.93 ℃ 50.65 % 1005.03 hPa
2021-05-06 17:21:47 11.06 ℃ 49.19 % 1004.99 hPa
2021-05-06 17:11:47 11.02 ℃ 48.37 % 1005.01 hPa
2021-05-06 17:01:47 11.04 ℃ 49.64 % 1005.01 hPa
2021-05-06 16:51:47 10.98 ℃ 52.22 % 1004.96 hPa
2021-05-06 16:41:47 10.72 ℃ 53.65 % 1004.95 hPa
2021-05-06 16:31:47 10.94 ℃ 51.89 % 1004.91 hPa
2021-05-06 16:21:47 11.25 ℃ 50.21 % 1004.96 hPa
2021-05-06 16:11:47 11.15 ℃ 50.48 % 1004.91 hPa
2021-05-06 16:01:47 11.15 ℃ 49.49 % 1004.87 hPa
2021-05-06 15:51:47 11.21 ℃ 49.9 % 1004.83 hPa
2021-05-06 15:41:47 11.1 ℃ 49.38 % 1004.79 hPa
2021-05-06 15:31:47 10.91 ℃ 51.99 % 1004.83 hPa
2021-05-06 15:21:47 10.71 ℃ 53.42 % 1004.79 hPa
2021-05-06 15:11:47 10.59 ℃ 55.22 % 1004.79 hPa
2021-05-06 15:01:47 11.05 ℃ 53.58 % 1004.71 hPa
2021-05-06 14:51:47 10.69 ℃ 55.61 % 1004.7 hPa
2021-05-06 14:41:47 10.55 ℃ 57.81 % 1004.65 hPa
2021-05-06 14:31:47 10.75 ℃ 58.45 % 1004.53 hPa
2021-05-06 14:21:47 10.82 ℃ 64.11 % 1004.52 hPa
2021-05-06 14:11:47 10.71 ℃ 67.44 % 1004.56 hPa
2021-05-06 14:01:47 11.08 ℃ 61.12 % 1004.53 hPa
2021-05-06 13:51:47 11.07 ℃ 63.78 % 1004.51 hPa
2021-05-06 13:41:47 10.69 ℃ 64.9 % 1004.51 hPa
2021-05-06 13:31:47 9.97 ℃ 67.19 % 1004.59 hPa
2021-05-06 13:21:47 9.87 ℃ 70.23 % 1004.57 hPa
2021-05-06 13:11:47 9.62 ℃ 74.17 % 1004.57 hPa
2021-05-06 13:01:47 9.15 ℃ 84.95 % 1004.57 hPa
2021-05-06 12:51:47 8.53 ℃ 85.76 % 1004.57 hPa
2021-05-06 12:41:47 9.07 ℃ 83.71 % 1004.44 hPa
2021-05-06 12:31:48 9.75 ℃ 68.22 % 1004.28 hPa
2021-05-06 12:21:48 10.22 ℃ 62.28 % 1004.08 hPa
2021-05-06 12:11:48 10.42 ℃ 61.63 % 1003.99 hPa
2021-05-06 12:01:48 10.8 ℃ 61.28 % 1003.93 hPa
2021-05-06 11:51:48 10.38 ℃ 63.3 % 1003.83 hPa
2021-05-06 11:41:48 10.27 ℃ 65.33 % 1003.73 hPa
2021-05-06 11:31:48 10.31 ℃ 69.63 % 1003.72 hPa
2021-05-06 11:21:48 9.84 ℃ 72.15 % 1003.65 hPa
2021-05-06 11:11:48 9.59 ℃ 71.12 % 1003.58 hPa
2021-05-06 11:01:48 9.72 ℃ 70.14 % 1003.42 hPa
2021-05-06 10:51:48 9.35 ℃ 73.19 % 1003.4 hPa
2021-05-06 10:41:48 9.29 ℃ 77.07 % 1003.28 hPa
2021-05-06 10:31:48 9.21 ℃ 81.97 % 1003.18 hPa
2021-05-06 10:21:48 9.14 ℃ 90.14 % 1003.13 hPa
2021-05-06 10:11:48 8.88 ℃ 91.34 % 1003.04 hPa
2021-05-06 10:01:48 8.94 ℃ 90.54 % 1002.88 hPa
2021-05-06 09:51:48 9.05 ℃ 90.48 % 1002.88 hPa
2021-05-06 09:41:48 8.84 ℃ 91.99 % 1002.82 hPa
2021-05-06 09:31:48 8.56 ℃ 95.63 % 1002.77 hPa
2021-05-06 09:21:48 8.3 ℃ 98.75 % 1002.71 hPa
2021-05-06 09:11:48 8.08 ℃ 99.39 % 1002.68 hPa
2021-05-06 09:01:48 7.93 ℃ 100 % 1002.73 hPa
2021-05-06 08:51:48 7.98 ℃ 100 % 1002.7 hPa
2021-05-06 08:41:48 7.78 ℃ 100 % 1002.66 hPa
2021-05-06 08:31:48 7.61 ℃ 100 % 1002.65 hPa
2021-05-06 08:21:48 7.6 ℃ 100 % 1002.62 hPa
2021-05-06 08:11:48 7.7 ℃ 100 % 1002.63 hPa
2021-05-06 08:01:48 7.5 ℃ 100 % 1002.58 hPa
2021-05-06 07:51:48 7.29 ℃ 100 % 1002.54 hPa
2021-05-06 07:41:48 7.08 ℃ 100 % 1002.56 hPa
2021-05-06 07:31:48 6.95 ℃ 100 % 1002.57 hPa
2021-05-06 07:21:48 6.82 ℃ 100 % 1002.6 hPa
2021-05-06 07:11:48 6.85 ℃ 100 % 1002.54 hPa
2021-05-06 07:01:53 6.53 ℃ 100 % 1002.5 hPa
2021-05-06 06:51:48 6.15 ℃ 100 % 1002.41 hPa
2021-05-06 06:41:48 5.89 ℃ 100 % 1002.35 hPa
2021-05-06 06:31:48 5.8 ℃ 100 % 1002.3 hPa
2021-05-06 06:21:48 5.69 ℃ 100 % 1002.29 hPa
2021-05-06 06:11:48 5.56 ℃ 100 % 1002.24 hPa
2021-05-06 06:01:48 5.55 ℃ 100 % 1002.27 hPa
2021-05-06 05:51:48 5.39 ℃ 100 % 1002.28 hPa
2021-05-06 05:41:48 5.3 ℃ 100 % 1002.29 hPa
2021-05-06 05:31:49 5.25 ℃ 100 % 1002.21 hPa
2021-05-06 05:21:49 5.13 ℃ 100 % 1002.2 hPa
2021-05-06 05:11:48 5.05 ℃ 100 % 1002.19 hPa
2021-05-06 05:01:48 5.05 ℃ 100 % 1002.16 hPa
2021-05-06 04:51:48 5.12 ℃ 100 % 1002.13 hPa
2021-05-06 04:41:48 5.18 ℃ 100 % 1002.15 hPa
2021-05-06 04:31:48 5.3 ℃ 100 % 1002.17 hPa
2021-05-06 04:21:49 5.41 ℃ 100 % 1002.07 hPa
2021-05-06 04:11:48 5.51 ℃ 100 % 1001.95 hPa
2021-05-06 04:01:48 5.69 ℃ 100 % 1002 hPa
2021-05-06 03:51:48 6.04 ℃ 100 % 1001.95 hPa
2021-05-06 03:41:48 6.11 ℃ 100 % 1001.87 hPa
2021-05-06 03:31:48 6.09 ℃ 100 % 1001.88 hPa
2021-05-06 03:21:48 6.07 ℃ 100 % 1001.84 hPa
2021-05-06 03:11:49 5.99 ℃ 100 % 1001.81 hPa
2021-05-06 03:01:48 6.02 ℃ 100 % 1001.92 hPa
2021-05-06 02:51:48 6.06 ℃ 100 % 1001.93 hPa
2021-05-06 02:41:48 6.24 ℃ 100 % 1001.92 hPa
2021-05-06 02:31:48 6.45 ℃ 100 % 1001.84 hPa
2021-05-06 02:21:48 6.46 ℃ 100 % 1001.83 hPa
2021-05-06 02:11:48 6.4 ℃ 100 % 1001.81 hPa
2021-05-06 02:01:49 6.28 ℃ 100 % 1001.79 hPa
2021-05-06 01:51:49 6.21 ℃ 100 % 1001.72 hPa
2021-05-06 01:41:49 5.98 ℃ 100 % 1001.69 hPa
2021-05-06 01:31:49 5.85 ℃ 100 % 1001.66 hPa
2021-05-06 01:21:49 5.84 ℃ 100 % 1001.76 hPa
2021-05-06 01:11:49 6.14 ℃ 100 % 1001.72 hPa
2021-05-06 01:01:49 6.44 ℃ 100 % 1001.62 hPa
2021-05-06 00:51:49 6.49 ℃ 100 % 1001.53 hPa
2021-05-06 00:41:49 6.45 ℃ 100 % 1001.54 hPa
2021-05-06 00:31:49 6.4 ℃ 100 % 1001.52 hPa
2021-05-06 00:21:49 6.37 ℃ 100 % 1001.59 hPa
2021-05-06 00:11:49 6.35 ℃ 100 % 1001.54 hPa
2021-05-06 00:01:49 6.37 ℃ 100 % 1001.52 hPa
2021-05-05 23:51:49 6.39 ℃ 100 % 1001.5 hPa
2021-05-05 23:41:49 6.4 ℃ 100 % 1001.49 hPa
2021-05-05 23:31:49 6.37 ℃ 100 % 1001.44 hPa
2021-05-05 23:21:49 6.42 ℃ 100 % 1001.4 hPa
2021-05-05 23:11:49 6.34 ℃ 100 % 1001.25 hPa
2021-05-05 23:01:49 6.25 ℃ 100 % 1001.19 hPa
2021-05-05 22:51:49 6.29 ℃ 100 % 1001.16 hPa
2021-05-05 22:41:49 6.22 ℃ 100 % 1001.11 hPa
2021-05-05 22:31:49 6.32 ℃ 100 % 1001.05 hPa
2021-05-05 22:21:51 6.5 ℃ 100 % 1000.91 hPa
2021-05-05 22:11:49 6.54 ℃ 100 % 1000.78 hPa
2021-05-05 22:01:49 6.52 ℃ 100 % 1000.67 hPa
2021-05-05 21:51:49 6.5 ℃ 100 % 1000.56 hPa
2021-05-05 21:41:49 6.55 ℃ 100 % 1000.39 hPa
2021-05-05 21:31:49 6.46 ℃ 100 % 1000.23 hPa
2021-05-05 21:21:49 6.53 ℃ 100 % 1000.05 hPa
2021-05-05 21:11:49 6.58 ℃ 100 % 999.94 hPa
2021-05-05 21:01:49 6.59 ℃ 100 % 999.72 hPa
2021-05-05 20:51:49 6.61 ℃ 100 % 999.61 hPa
2021-05-05 20:41:49 6.73 ℃ 100 % 999.48 hPa
2021-05-05 20:31:49 6.76 ℃ 100 % 999.34 hPa
2021-05-05 20:21:49 6.81 ℃ 100 % 999.21 hPa
2021-05-05 20:11:49 6.85 ℃ 100 % 999.06 hPa
2021-05-05 20:01:49 6.97 ℃ 100 % 998.91 hPa
2021-05-05 19:51:49 7.03 ℃ 100 % 998.73 hPa
2021-05-05 19:41:49 6.93 ℃ 100 % 998.51 hPa
2021-05-05 19:31:49 7.14 ℃ 100 % 998.39 hPa
2021-05-05 19:21:49 7.28 ℃ 100 % 998.15 hPa
2021-05-05 19:11:49 7.2 ℃ 100 % 997.96 hPa
2021-05-05 19:01:49 7.15 ℃ 100 % 997.78 hPa
2021-05-05 18:51:49 7.21 ℃ 100 % 997.62 hPa
2021-05-05 18:41:49 7.26 ℃ 100 % 997.46 hPa
2021-05-05 18:31:49 7.2 ℃ 100 % 997.33 hPa
2021-05-05 18:21:49 7.12 ℃ 100 % 997.13 hPa
2021-05-05 18:11:49 7.06 ℃ 100 % 996.92 hPa
2021-05-05 18:01:49 6.93 ℃ 100 % 996.78 hPa
2021-05-05 17:51:49 6.84 ℃ 100 % 996.59 hPa
2021-05-05 17:41:49 6.81 ℃ 100 % 996.38 hPa
2021-05-05 17:31:49 6.77 ℃ 100 % 996.2 hPa
2021-05-05 17:21:49 6.65 ℃ 100 % 996.03 hPa
2021-05-05 17:11:50 6.49 ℃ 100 % 995.81 hPa
2021-05-05 17:01:49 6.35 ℃ 100 % 995.67 hPa
2021-05-05 16:51:50 6.23 ℃ 100 % 995.55 hPa
2021-05-05 16:41:49 6.16 ℃ 100 % 995.45 hPa
2021-05-05 16:31:49 6.28 ℃ 100 % 995.38 hPa
2021-05-05 16:21:49 6.51 ℃ 100 % 995.15 hPa
2021-05-05 16:11:49 6.75 ℃ 100 % 994.91 hPa
2021-05-05 16:01:49 6.85 ℃ 100 % 994.59 hPa
2021-05-05 15:51:49 6.86 ℃ 100 % 994.35 hPa
2021-05-05 15:41:49 6.91 ℃ 100 % 994.22 hPa
2021-05-05 15:31:50 6.96 ℃ 100 % 994.05 hPa
2021-05-05 15:21:50 7.08 ℃ 100 % 993.9 hPa
2021-05-05 15:11:50 7.26 ℃ 100 % 993.71 hPa
2021-05-05 15:01:50 7.23 ℃ 100 % 993.56 hPa
2021-05-05 14:51:50 7.29 ℃ 100 % 993.41 hPa
2021-05-05 14:41:50 7.54 ℃ 100 % 993.35 hPa
2021-05-05 14:31:50 7.79 ℃ 100 % 993.19 hPa
2021-05-05 14:21:50 8.09 ℃ 100 % 993.04 hPa
2021-05-05 14:11:50 7.88 ℃ 100 % 992.92 hPa
2021-05-05 14:01:50 7.72 ℃ 100 % 992.84 hPa
2021-05-05 13:51:50 7.81 ℃ 100 % 992.66 hPa
2021-05-05 13:41:50 7.88 ℃ 100 % 992.54 hPa
2021-05-05 13:31:50 7.89 ℃ 100 % 992.38 hPa
2021-05-05 13:21:50 8.19 ℃ 100 % 992.3 hPa
2021-05-05 13:11:50 8.49 ℃ 100 % 992.16 hPa
2021-05-05 13:01:50 8.64 ℃ 100 % 992.05 hPa
2021-05-05 12:51:50 8.37 ℃ 100 % 991.97 hPa
2021-05-05 12:41:51 8.38 ℃ 100 % 991.9 hPa
2021-05-05 12:31:50 8.38 ℃ 100 % 991.82 hPa
2021-05-05 12:21:50 8.03 ℃ 100 % 991.77 hPa
2021-05-05 12:11:50 8.02 ℃ 100 % 991.75 hPa
2021-05-05 12:01:50 8.2 ℃ 100 % 991.66 hPa
2021-05-05 11:51:50 8.26 ℃ 100 % 991.53 hPa
2021-05-05 11:41:50 8.37 ℃ 100 % 991.47 hPa
2021-05-05 11:31:50 8.31 ℃ 100 % 991.38 hPa
2021-05-05 11:21:50 8.49 ℃ 100 % 991.28 hPa
2021-05-05 11:11:50 8.55 ℃ 100 % 991.21 hPa
2021-05-05 11:01:50 8.09 ℃ 100 % 991.14 hPa
2021-05-05 10:51:50 7.89 ℃ 100 % 991.02 hPa
2021-05-05 10:41:50 7.96 ℃ 100 % 990.92 hPa
2021-05-05 10:31:50 7.85 ℃ 100 % 990.79 hPa
2021-05-05 10:21:50 7.54 ℃ 100 % 990.66 hPa
2021-05-05 10:11:50 7.58 ℃ 100 % 990.58 hPa
2021-05-05 10:01:50 7.42 ℃ 100 % 990.43 hPa
2021-05-05 09:51:50 7.2 ℃ 100 % 990.37 hPa
2021-05-05 09:41:50 7 ℃ 100 % 990.28 hPa
2021-05-05 09:31:50 6.83 ℃ 100 % 990.17 hPa
2021-05-05 09:21:50 6.62 ℃ 100 % 990 hPa
2021-05-05 09:11:50 6.53 ℃ 100 % 989.84 hPa
2021-05-05 09:01:50 6.62 ℃ 100 % 989.74 hPa
2021-05-05 08:51:50 6.79 ℃ 100 % 989.69 hPa
2021-05-05 08:41:50 6.81 ℃ 100 % 989.62 hPa
2021-05-05 08:31:50 6.95 ℃ 100 % 989.6 hPa
2021-05-05 08:21:50 6.91 ℃ 100 % 989.53 hPa
2021-05-05 08:11:50 6.8 ℃ 100 % 989.47 hPa
2021-05-05 08:01:50 6.86 ℃ 100 % 989.51 hPa
2021-05-05 07:51:50 6.98 ℃ 100 % 989.55 hPa
2021-05-05 07:41:50 7 ℃ 100 % 989.49 hPa
2021-05-05 07:31:50 7.1 ℃ 100 % 989.47 hPa
2021-05-05 07:21:50 7.14 ℃ 100 % 989.49 hPa
2021-05-05 07:11:50 7.14 ℃ 100 % 989.46 hPa
2021-05-05 07:01:50 7.29 ℃ 100 % 989.45 hPa
2021-05-05 06:51:50 7.41 ℃ 100 % 989.41 hPa
2021-05-05 06:41:51 7.27 ℃ 100 % 989.47 hPa
2021-05-05 06:31:50 7.27 ℃ 100 % 989.47 hPa
2021-05-05 06:21:50 7.17 ℃ 100 % 989.51 hPa
2021-05-05 06:11:50 7.11 ℃ 100 % 989.53 hPa
2021-05-05 06:01:50 7.12 ℃ 100 % 989.54 hPa
2021-05-05 05:51:50 7.14 ℃ 100 % 989.62 hPa
2021-05-05 05:41:50 7.17 ℃ 100 % 989.66 hPa
2021-05-05 05:31:50 7.29 ℃ 100 % 989.7 hPa
2021-05-05 05:21:50 7.3 ℃ 100 % 989.65 hPa
2021-05-05 05:11:51 7.34 ℃ 100 % 989.67 hPa
2021-05-05 05:01:51 7.32 ℃ 100 % 989.63 hPa
2021-05-05 04:51:51 7.28 ℃ 100 % 989.64 hPa
2021-05-05 04:41:51 7.26 ℃ 100 % 989.68 hPa
2021-05-05 04:31:51 7.27 ℃ 100 % 989.67 hPa
2021-05-05 04:21:51 7.35 ℃ 100 % 989.74 hPa
2021-05-05 04:11:51 7.53 ℃ 100 % 989.71 hPa
2021-05-05 04:01:51 7.57 ℃ 100 % 989.7 hPa
2021-05-05 03:51:51 7.47 ℃ 100 % 989.71 hPa
2021-05-05 03:41:51 7.41 ℃ 100 % 989.69 hPa
2021-05-05 03:31:51 7.38 ℃ 100 % 989.73 hPa
2021-05-05 03:21:51 7.33 ℃ 100 % 989.75 hPa
2021-05-05 03:11:51 7.31 ℃ 100 % 989.8 hPa
2021-05-05 03:01:51 7.31 ℃ 100 % 989.8 hPa
2021-05-05 02:51:51 7.34 ℃ 100 % 989.84 hPa
2021-05-05 02:41:51 7.33 ℃ 100 % 989.86 hPa
2021-05-05 02:31:51 7.48 ℃ 100 % 989.89 hPa
2021-05-05 02:21:51 7.42 ℃ 100 % 989.95 hPa
2021-05-05 02:11:51 7.41 ℃ 100 % 989.89 hPa
2021-05-05 02:01:51 7.4 ℃ 100 % 989.94 hPa
2021-05-05 01:51:51 7.41 ℃ 100 % 989.98 hPa
2021-05-05 01:41:51 7.44 ℃ 100 % 990.02 hPa
2021-05-05 01:31:51 7.52 ℃ 100 % 990.04 hPa
2021-05-05 01:21:51 7.5 ℃ 100 % 990.12 hPa
2021-05-05 01:11:51 7.62 ℃ 100 % 990.21 hPa
2021-05-05 01:01:51 7.72 ℃ 100 % 990.3 hPa
2021-05-05 00:51:51 7.8 ℃ 100 % 990.35 hPa
2021-05-05 00:41:51 7.88 ℃ 100 % 990.39 hPa
2021-05-05 00:31:51 7.97 ℃ 100 % 990.45 hPa
2021-05-05 00:21:51 7.86 ℃ 100 % 990.46 hPa
2021-05-05 00:11:51 7.92 ℃ 100 % 990.45 hPa
2021-05-05 00:01:51 7.92 ℃ 100 % 990.5 hPa
2021-05-04 23:51:51 7.98 ℃ 100 % 990.5 hPa
2021-05-04 23:41:51 7.96 ℃ 100 % 990.52 hPa
2021-05-04 23:31:51 7.99 ℃ 100 % 990.59 hPa
2021-05-04 23:21:51 8 ℃ 100 % 990.63 hPa
2021-05-04 23:11:51 8.11 ℃ 100 % 990.65 hPa
2021-05-04 23:01:51 8.1 ℃ 100 % 990.69 hPa
2021-05-04 22:51:51 8.03 ℃ 100 % 990.71 hPa
2021-05-04 22:41:51 8.03 ℃ 100 % 990.79 hPa
2021-05-04 22:31:51 8.14 ℃ 100 % 990.85 hPa
2021-05-04 22:21:51 8.18 ℃ 100 % 990.9 hPa
2021-05-04 22:11:51 8.16 ℃ 100 % 990.93 hPa
2021-05-04 22:01:51 8.21 ℃ 100 % 990.98 hPa
2021-05-04 21:51:51 8.29 ℃ 100 % 990.97 hPa
2021-05-04 21:41:51 8.29 ℃ 100 % 990.94 hPa
2021-05-04 21:31:51 8.39 ℃ 100 % 990.91 hPa
2021-05-04 21:21:51 8.45 ℃ 100 % 990.89 hPa
2021-05-04 21:11:51 8.48 ℃ 100 % 990.92 hPa
2021-05-04 21:01:51 8.55 ℃ 100 % 990.91 hPa
2021-05-04 20:51:51 8.61 ℃ 100 % 990.94 hPa
2021-05-04 20:41:51 8.75 ℃ 100 % 990.97 hPa
2021-05-04 20:31:51 8.76 ℃ 100 % 990.95 hPa
2021-05-04 20:21:51 8.79 ℃ 100 % 990.88 hPa
2021-05-04 20:11:51 8.84 ℃ 100 % 990.8 hPa
2021-05-04 20:01:51 9.05 ℃ 100 % 990.77 hPa
2021-05-04 19:51:52 9.08 ℃ 100 % 990.81 hPa
2021-05-04 19:41:51 9.11 ℃ 100 % 990.87 hPa
2021-05-04 19:31:51 9.07 ℃ 100 % 990.95 hPa
2021-05-04 19:21:51 9.06 ℃ 100 % 991 hPa
2021-05-04 19:11:51 9.12 ℃ 100 % 991.12 hPa
2021-05-04 19:01:51 9.21 ℃ 100 % 991.26 hPa
2021-05-04 18:51:52 9.11 ℃ 100 % 991.36 hPa
2021-05-04 18:41:52 8.95 ℃ 100 % 991.35 hPa
2021-05-04 18:31:52 9.17 ℃ 100 % 991.42 hPa
2021-05-04 18:21:52 8.94 ℃ 100 % 991.53 hPa
2021-05-04 18:11:52 9.21 ℃ 100 % 991.48 hPa
2021-05-04 18:01:52 9.36 ℃ 100 % 991.38 hPa
2021-05-04 17:51:52 9.4 ℃ 100 % 991.4 hPa
2021-05-04 17:41:52 9.57 ℃ 100 % 991.4 hPa
2021-05-04 17:31:52 9.83 ℃ 99.99 % 991.34 hPa
2021-05-04 17:21:52 10.01 ℃ 99.99 % 991.31 hPa
2021-05-04 17:11:52 10.1 ℃ 99.97 % 991.27 hPa
2021-05-04 17:01:52 9.87 ℃ 99.95 % 991.48 hPa
2021-05-04 16:51:52 9.7 ℃ 99.89 % 991.52 hPa
2021-05-04 16:41:52 9.88 ℃ 99.78 % 991.46 hPa
2021-05-04 16:31:52 9.55 ℃ 99.56 % 991.42 hPa
2021-05-04 16:21:52 9.36 ℃ 99.12 % 991.5 hPa
2021-05-04 16:11:52 9.7 ℃ 98.25 % 991.4 hPa
2021-05-04 16:01:52 10.85 ℃ 96.5 % 991.17 hPa
2021-05-04 15:51:52 12.69 ℃ 93 % 990.5 hPa
2021-05-04 15:41:52 12.95 ℃ 90.14 % 990.42 hPa
2021-05-03 15:49:57 11.92 ℃ 68.32 % 1016.16 hPa
2021-05-03 15:39:55 12.58 ℃ 61.63 % 1016.13 hPa
2021-05-03 15:29:55 12.55 ℃ 63.68 % 1016.23 hPa
2021-05-03 15:09:56 12.1 ℃ 68.15 % 1016.49 hPa
2021-05-03 14:59:56 12.19 ℃ 66.39 % 1016.6 hPa
2021-05-03 14:49:55 11.57 ℃ 68.92 % 1016.71 hPa
2021-05-03 14:39:56 11.62 ℃ 69.18 % 1016.78 hPa
2021-05-03 14:29:56 11.35 ℃ 71.1 % 1016.88 hPa
2021-05-03 14:19:56 11.15 ℃ 73.18 % 1016.93 hPa
2021-05-03 14:09:56 10.58 ℃ 78.1 % 1016.98 hPa
2021-05-03 13:59:56 10.65 ℃ 73.18 % 1016.95 hPa
2021-05-03 13:49:57 11.1 ℃ 73.06 % 1016.94 hPa
2021-05-03 13:39:56 11.25 ℃ 76.06 % 1016.9 hPa
2021-05-03 13:29:56 11.47 ℃ 71.57 % 1016.87 hPa
2021-05-03 13:09:56 12.2 ℃ 59.71 % 1016.79 hPa
2021-05-03 12:59:56 12.47 ℃ 48.64 % 1016.79 hPa
2021-05-03 12:49:59 12.74 ℃ 47.39 % 1016.77 hPa
2021-05-03 12:39:56 12.44 ℃ 48.32 % 1016.9 hPa
2021-05-03 12:29:56 11.87 ℃ 52.01 % 1017 hPa
2021-05-03 12:19:56 11.86 ℃ 52.05 % 1017.09 hPa
2021-05-03 12:09:56 11.58 ℃ 51.72 % 1017.24 hPa
2021-05-03 11:59:56 11.31 ℃ 52.63 % 1017.31 hPa
2021-05-03 11:49:56 11.39 ℃ 54.17 % 1017.3 hPa
2021-05-03 11:39:56 11.05 ℃ 63.11 % 1017.38 hPa
2021-05-03 11:29:56 11.09 ℃ 63.58 % 1017.38 hPa
2021-05-03 11:09:56 11.04 ℃ 69.98 % 1017.42 hPa
2021-05-03 10:59:56 11.03 ℃ 72.37 % 1017.48 hPa
2021-05-03 10:49:56 10.34 ℃ 77.08 % 1017.54 hPa
2021-05-03 10:39:56 10.2 ℃ 77.74 % 1017.52 hPa
2021-05-03 10:29:56 10.32 ℃ 72 % 1017.44 hPa
2021-05-03 10:19:56 10.89 ℃ 62.79 % 1017.35 hPa
2021-05-03 10:09:56 11.11 ℃ 61.9 % 1017.39 hPa
2021-05-03 09:59:56 11.01 ℃ 63.35 % 1017.38 hPa
2021-05-03 09:49:56 10.63 ℃ 66.36 % 1017.44 hPa
2021-05-03 09:39:56 10.75 ℃ 68.03 % 1017.46 hPa
2021-05-03 09:29:56 10.43 ℃ 73.72 % 1017.47 hPa
2021-05-03 09:19:56 10.84 ℃ 76.19 % 1017.5 hPa
2021-05-03 08:59:56 10.15 ℃ 84.9 % 1017.51 hPa
2021-05-03 08:49:56 10.44 ℃ 84.76 % 1017.49 hPa
2021-05-03 08:39:56 9.86 ℃ 87.44 % 1017.45 hPa
2021-05-03 08:29:56 9.81 ℃ 88.48 % 1017.42 hPa
2021-05-03 08:19:56 9.65 ℃ 90.17 % 1017.38 hPa
2021-05-03 08:09:56 9.43 ℃ 92.25 % 1017.31 hPa
2021-05-03 07:59:56 9.04 ℃ 94.4 % 1017.3 hPa
2021-05-03 07:49:56 9.01 ℃ 95.76 % 1017.26 hPa
2021-05-03 07:39:56 8.55 ℃ 97.69 % 1017.23 hPa
2021-05-03 07:29:56 7.93 ℃ 100 % 1017.22 hPa
2021-05-03 07:19:56 8.01 ℃ 100 % 1017.17 hPa
2021-05-03 07:09:56 7.74 ℃ 100 % 1017.14 hPa
2021-05-03 06:39:56 7.61 ℃ 100 % 1016.95 hPa
2021-05-03 06:29:56 7.38 ℃ 100 % 1016.86 hPa
2021-05-03 06:19:56 7.46 ℃ 100 % 1016.8 hPa
2021-05-03 06:09:56 7.4 ℃ 100 % 1016.74 hPa
2021-05-03 05:59:56 7.35 ℃ 100 % 1016.67 hPa
2021-05-03 05:49:56 7.39 ℃ 100 % 1016.64 hPa
2021-05-03 05:39:56 7.45 ℃ 100 % 1016.62 hPa
2021-05-03 05:29:56 7.45 ℃ 100 % 1016.61 hPa
2021-05-03 05:19:56 7.43 ℃ 100 % 1016.57 hPa
2021-05-03 05:09:56 7.44 ℃ 100 % 1016.51 hPa
2021-05-03 04:59:56 7.42 ℃ 100 % 1016.49 hPa
2021-05-03 04:39:56 7.33 ℃ 100 % 1016.43 hPa
2021-05-03 04:29:57 7.36 ℃ 100 % 1016.36 hPa
2021-05-03 04:19:56 7.32 ℃ 100 % 1016.28 hPa
2021-05-03 04:09:57 7.19 ℃ 100 % 1016.27 hPa
2021-05-03 03:59:56 7.24 ℃ 100 % 1016.21 hPa
2021-05-03 03:49:57 7.11 ℃ 100 % 1016.16 hPa
2021-05-03 03:39:57 7.18 ℃ 100 % 1016.1 hPa
2021-05-03 03:29:56 7.24 ℃ 100 % 1016.11 hPa
2021-05-03 03:19:57 7.39 ℃ 100 % 1016.11 hPa
2021-05-03 03:09:57 7.49 ℃ 100 % 1016.09 hPa
2021-05-03 02:59:57 7.5 ℃ 100 % 1016.06 hPa
2021-05-03 02:29:57 7.65 ℃ 100 % 1015.98 hPa
2021-05-03 02:19:57 7.68 ℃ 100 % 1015.97 hPa
2021-05-03 02:09:57 7.71 ℃ 100 % 1016 hPa
2021-05-03 01:59:57 7.56 ℃ 100 % 1016.01 hPa
2021-05-03 01:49:57 7.51 ℃ 100 % 1016.01 hPa
2021-05-03 01:39:57 7.53 ℃ 100 % 1015.99 hPa
2021-05-03 01:29:57 7.59 ℃ 100 % 1015.96 hPa
2021-05-03 01:19:57 7.55 ℃ 100 % 1016 hPa
2021-05-03 01:09:57 7.44 ℃ 100 % 1016 hPa
2021-05-03 00:59:57 7.42 ℃ 100 % 1016.02 hPa
2021-05-03 00:49:57 7.49 ℃ 100 % 1015.99 hPa
2021-05-03 00:19:57 7.56 ℃ 100 % 1015.85 hPa
2021-05-03 00:09:57 7.65 ℃ 100 % 1015.8 hPa
2021-05-02 23:59:57 7.72 ℃ 100 % 1015.79 hPa
2021-05-02 23:49:57 7.88 ℃ 100 % 1015.75 hPa
2021-05-02 23:39:57 8.06 ℃ 100 % 1015.71 hPa
2021-05-02 23:29:57 8.49 ℃ 100 % 1015.68 hPa
2021-05-02 23:19:57 8.74 ℃ 99.99 % 1015.63 hPa
2021-05-02 23:09:57 8.62 ℃ 99.98 % 1015.6 hPa
2021-05-02 22:59:57 8.52 ℃ 99.96 % 1015.59 hPa
2021-05-02 22:49:57 8.72 ℃ 99.93 % 1015.55 hPa
2021-05-02 22:39:57 8.96 ℃ 99.86 % 1015.52 hPa
2021-05-02 22:19:57 8.99 ℃ 99.44 % 1015.53 hPa
2021-05-02 22:09:57 9.1 ℃ 98.88 % 1015.55 hPa
2021-05-02 21:59:57 9.47 ℃ 97.76 % 1015.56 hPa
2021-05-02 21:49:57 9.23 ℃ 98.64 % 1015.52 hPa
2021-05-02 21:39:57 9.28 ℃ 98.84 % 1015.47 hPa
2021-05-02 21:29:57 8.97 ℃ 98.78 % 1015.4 hPa
2021-05-02 21:19:57 8.97 ℃ 98.44 % 1015.37 hPa
2021-05-02 21:09:57 9.1 ℃ 97.28 % 1015.28 hPa
2021-05-02 20:59:57 9.23 ℃ 95.77 % 1015.17 hPa
2021-05-02 20:49:58 9.28 ℃ 96.88 % 1015.1 hPa
2021-05-02 20:39:58 9.25 ℃ 96.85 % 1015.04 hPa
2021-05-02 20:19:57 10.49 ℃ 96.66 % 1014.83 hPa
2021-05-02 20:09:58 10.71 ℃ 95.63 % 1014.73 hPa
2021-05-02 19:59:57 10.78 ℃ 94.32 % 1014.68 hPa
2021-05-02 19:49:57 10.98 ℃ 93.15 % 1014.62 hPa
2021-05-02 19:39:57 10.94 ℃ 92.36 % 1014.6 hPa
2021-05-02 19:29:57 10.89 ℃ 93.01 % 1014.58 hPa
2021-05-02 19:19:57 10.99 ℃ 92.89 % 1014.55 hPa
2021-05-02 19:09:58 10.9 ℃ 93.01 % 1014.54 hPa
2021-05-02 18:59:57 10.61 ℃ 95.19 % 1014.52 hPa
2021-05-02 18:49:57 10.45 ℃ 95.89 % 1014.51 hPa
2021-05-02 18:39:57 10.89 ℃ 96.95 % 1014.47 hPa
2021-05-02 18:29:57 11 ℃ 95.94 % 1014.42 hPa
2021-05-02 18:09:57 12.27 ℃ 87.16 % 1014.28 hPa
2021-05-02 17:59:58 12.19 ℃ 86.62 % 1014.26 hPa
2021-05-02 17:49:57 12.09 ℃ 86.9 % 1014.24 hPa
2021-05-02 17:39:57 11.63 ℃ 89.59 % 1014.19 hPa
2021-05-02 17:29:57 10.89 ℃ 92.71 % 1014.16 hPa
2021-05-02 17:19:57 10.73 ℃ 94.48 % 1014.12 hPa
2021-05-02 17:09:58 10.88 ℃ 94.1 % 1014.08 hPa
2021-05-02 16:59:58 11.01 ℃ 90.72 % 1014.03 hPa
2021-05-02 16:49:58 11.24 ℃ 88.55 % 1013.99 hPa
2021-05-02 16:39:58 11.22 ℃ 89.9 % 1014.01 hPa
2021-05-02 16:29:58 10.74 ℃ 93.71 % 1014.05 hPa
2021-05-02 16:09:58 10.37 ℃ 99.34 % 1014.07 hPa
2021-05-02 15:59:58 10.19 ℃ 98.68 % 1014.02 hPa
2021-05-02 15:49:58 10.15 ℃ 97.36 % 1013.98 hPa
2021-05-02 15:39:58 10.5 ℃ 94.72 % 1013.9 hPa
2021-05-02 15:29:58 11.28 ℃ 89.44 % 1013.84 hPa
2021-05-02 15:19:58 12.43 ℃ 78.88 % 1013.74 hPa
2021-05-02 15:09:58 13.48 ℃ 64.7 % 1013.67 hPa
2021-05-02 14:59:58 13.27 ℃ 71.87 % 1013.63 hPa
2021-05-02 14:49:58 12.72 ℃ 79.37 % 1013.65 hPa
2021-05-02 14:39:58 11.9 ℃ 84.95 % 1013.68 hPa
2021-05-02 14:29:58 11.53 ℃ 88.84 % 1013.68 hPa
2021-05-02 14:19:58 11.68 ℃ 87.86 % 1013.68 hPa
2021-05-02 13:59:58 13.18 ℃ 81.25 % 1013.49 hPa
2021-05-02 13:49:58 12.99 ℃ 84.72 % 1013.52 hPa
2021-05-02 13:39:58 12.07 ℃ 90.68 % 1013.6 hPa
2021-05-02 13:29:58 12.31 ℃ 91.75 % 1013.68 hPa
2021-05-02 13:19:58 11.9 ℃ 93.03 % 1013.72 hPa
2021-05-02 13:09:58 11.49 ℃ 97.15 % 1013.77 hPa
2021-05-02 12:59:58 11.21 ℃ 98.87 % 1013.78 hPa
2021-05-02 12:49:58 10.99 ℃ 99.55 % 1013.82 hPa
2021-05-02 12:39:58 11.05 ℃ 99.75 % 1013.8 hPa
2021-05-02 12:29:58 10.91 ℃ 99.96 % 1013.83 hPa
2021-05-02 12:19:58 10.77 ℃ 99.91 % 1013.82 hPa
2021-05-02 12:09:58 10.73 ℃ 99.82 % 1013.85 hPa
2021-05-02 11:49:58 10.85 ℃ 99.28 % 1013.81 hPa
2021-05-02 11:39:58 11.17 ℃ 98.56 % 1013.78 hPa
2021-05-02 11:29:58 11.61 ℃ 97.12 % 1013.76 hPa
2021-05-02 11:19:58 12.21 ℃ 94.24 % 1013.77 hPa
2021-05-02 11:09:58 13.23 ℃ 88.48 % 1013.78 hPa
2021-05-02 10:59:58 12.6 ℃ 92.96 % 1013.81 hPa
2021-05-02 10:49:58 12.28 ℃ 96.65 % 1013.83 hPa
2021-05-02 10:39:58 12 ℃ 100 % 1013.83 hPa
2021-05-02 10:29:58 11.44 ℃ 100 % 1013.81 hPa
2021-05-02 10:19:58 11 ℃ 100 % 1013.8 hPa
2021-05-02 10:09:58 10.98 ℃ 100 % 1013.76 hPa
2021-05-02 09:39:58 11.04 ℃ 100 % 1013.71 hPa
2021-05-02 09:29:58 11.32 ℃ 100 % 1013.66 hPa
2021-05-02 09:19:59 11.29 ℃ 100 % 1013.65 hPa
2021-05-02 09:09:58 11.07 ℃ 100 % 1013.62 hPa
2021-05-02 08:59:58 11.01 ℃ 100 % 1013.58 hPa
2021-05-02 08:49:58 10.96 ℃ 100 % 1013.54 hPa
2021-05-02 08:39:59 10.26 ℃ 100 % 1013.57 hPa
2021-05-02 08:29:58 10.14 ℃ 100 % 1013.55 hPa
2021-05-02 08:19:58 9.62 ℃ 100 % 1013.55 hPa
2021-05-02 08:09:58 9.11 ℃ 100 % 1013.57 hPa
2021-05-02 07:59:58 8.88 ℃ 100 % 1013.55 hPa
2021-05-02 07:29:59 8.87 ℃ 100 % 1013.42 hPa
2021-05-02 07:19:59 9.08 ℃ 100 % 1013.34 hPa
2021-05-02 07:09:59 9.13 ℃ 100 % 1013.32 hPa
2021-05-02 06:59:59 9.07 ℃ 100 % 1013.24 hPa
2021-05-02 06:49:59 8.49 ℃ 100 % 1013.23 hPa
2021-05-02 06:39:58 8.78 ℃ 100 % 1013.22 hPa
2021-05-02 06:29:59 9.06 ℃ 100 % 1013.19 hPa
2021-05-02 06:19:59 9.18 ℃ 100 % 1013.14 hPa
2021-05-02 06:09:58 8.89 ℃ 100 % 1013.1 hPa
2021-05-02 05:59:59 8.77 ℃ 100 % 1013.06 hPa
2021-05-02 05:49:59 9.2 ℃ 100 % 1013.02 hPa
2021-05-02 05:19:59 10.11 ℃ 100 % 1012.89 hPa
2021-05-02 05:09:59 10.31 ℃ 100 % 1012.86 hPa
2021-05-02 04:59:59 10.2 ℃ 100 % 1012.86 hPa
2021-05-02 04:49:59 10.06 ℃ 100 % 1012.85 hPa
2021-05-02 04:39:59 10.14 ℃ 100 % 1012.84 hPa
2021-05-02 04:29:59 10.3 ℃ 100 % 1012.82 hPa
2021-05-02 04:19:59 10.33 ℃ 100 % 1012.8 hPa
2021-05-02 04:09:59 10.11 ℃ 100 % 1012.87 hPa
2021-05-02 03:59:59 9.91 ℃ 100 % 1012.86 hPa
2021-05-02 03:49:59 10.07 ℃ 100 % 1012.84 hPa
2021-05-02 03:39:59 10.14 ℃ 100 % 1012.86 hPa
2021-05-02 03:09:59 9.88 ℃ 100 % 1013.04 hPa
2021-05-02 02:59:59 9.89 ℃ 100 % 1013.1 hPa
2021-05-02 02:49:59 9.88 ℃ 100 % 1013.13 hPa
2021-05-02 02:39:59 9.72 ℃ 100 % 1013.19 hPa
2021-05-02 02:29:59 9.74 ℃ 100 % 1013.21 hPa
2021-05-02 02:19:59 9.63 ℃ 100 % 1013.27 hPa
2021-05-02 02:09:59 10.08 ℃ 100 % 1013.25 hPa
2021-05-02 01:59:59 10.16 ℃ 100 % 1013.26 hPa
2021-05-02 01:49:59 10.3 ℃ 100 % 1013.3 hPa
2021-05-02 01:39:59 10.41 ℃ 100 % 1013.33 hPa
2021-05-02 01:29:59 10.31 ℃ 100 % 1013.36 hPa
2021-05-02 00:59:59 10.3 ℃ 100 % 1013.5 hPa
2021-05-02 00:49:59 10.04 ℃ 100 % 1013.54 hPa
2021-05-02 00:39:59 10.12 ℃ 100 % 1013.57 hPa
2021-05-02 00:29:59 10.13 ℃ 100 % 1013.57 hPa
2021-05-02 00:19:59 10.01 ℃ 100 % 1013.62 hPa
2021-05-02 00:09:59 9.96 ℃ 100 % 1013.68 hPa
2021-05-01 23:59:59 9.83 ℃ 100 % 1013.76 hPa
2021-05-01 23:49:59 9.93 ℃ 100 % 1013.88 hPa
2021-05-01 23:39:59 10.17 ℃ 100 % 1013.92 hPa
2021-05-01 23:29:59 10.12 ℃ 100 % 1013.96 hPa
2021-05-01 23:19:59 10.27 ℃ 100 % 1013.95 hPa
2021-05-01 23:00:00 10.5 ℃ 100 % 1013.97 hPa
2021-05-01 22:49:59 10.72 ℃ 99.99 % 1014 hPa
2021-05-01 22:39:59 10.48 ℃ 99.98 % 1013.99 hPa
2021-05-01 22:29:59 10.53 ℃ 99.96 % 1013.99 hPa
2021-05-01 22:19:59 10.69 ℃ 99.92 % 1013.97 hPa
2021-05-01 22:09:59 10.63 ℃ 99.84 % 1013.97 hPa
2021-05-01 21:59:59 10.56 ℃ 99.69 % 1014.01 hPa
2021-05-01 21:49:59 10.83 ℃ 99.38 % 1014.05 hPa
2021-05-01 21:39:59 10.97 ℃ 98.76 % 1014 hPa
2021-05-01 21:29:59 11.18 ℃ 97.52 % 1013.95 hPa
2021-05-01 21:19:59 11.19 ℃ 97.95 % 1013.92 hPa
2021-05-01 21:09:59 11.32 ℃ 97.15 % 1013.87 hPa
2021-05-01 20:49:59 11.22 ℃ 98.94 % 1013.74 hPa
2021-05-01 20:40:00 11.57 ℃ 97.89 % 1013.66 hPa
2021-05-01 20:29:59 11.91 ℃ 95.78 % 1013.61 hPa
2021-05-01 20:20:00 11.87 ℃ 95.86 % 1013.59 hPa
2021-05-01 20:09:59 11.94 ℃ 93.41 % 1013.58 hPa
2021-05-01 20:00:00 11.99 ℃ 92.13 % 1013.56 hPa
2021-05-01 19:50:00 12.43 ℃ 87.85 % 1013.51 hPa
2021-05-01 19:39:59 12.5 ℃ 87.4 % 1013.46 hPa
2021-05-01 19:29:59 12.64 ℃ 85.61 % 1013.39 hPa
2021-05-01 19:20:00 12.88 ℃ 83.69 % 1013.34 hPa
2021-05-01 19:10:00 13.29 ℃ 80.68 % 1013.29 hPa
2021-05-01 19:00:00 13.7 ℃ 78.95 % 1013.23 hPa
2021-05-01 18:40:00 13.29 ℃ 77.6 % 1013.22 hPa
2021-05-01 18:30:00 13.28 ℃ 75.06 % 1013.18 hPa
2021-05-01 18:20:00 13.03 ℃ 71.63 % 1013.17 hPa
2021-05-01 18:10:00 12.99 ℃ 71.14 % 1013.18 hPa
2021-05-01 18:00:00 13.28 ℃ 69.48 % 1013.14 hPa
2021-05-01 17:50:00 13.26 ℃ 69.64 % 1013.13 hPa
2021-05-01 17:40:00 13.17 ℃ 71.1 % 1013.12 hPa
2021-05-01 17:30:00 13.12 ℃ 74.12 % 1013.11 hPa
2021-05-01 17:20:00 12.91 ℃ 76.32 % 1013.14 hPa
2021-05-01 17:10:00 12.57 ℃ 78.5 % 1013.23 hPa
2021-05-01 17:00:00 12.44 ℃ 78.16 % 1013.29 hPa
2021-05-01 16:30:00 12.66 ℃ 74.12 % 1013.58 hPa
2021-05-01 16:20:00 12.56 ℃ 76.15 % 1013.66 hPa
2021-05-01 16:10:00 12.53 ℃ 77.42 % 1013.74 hPa
2021-05-01 16:00:00 12.42 ℃ 77.75 % 1013.79 hPa
2021-05-01 15:50:00 12.37 ℃ 78.5 % 1013.91 hPa
2021-05-01 15:40:00 12.74 ℃ 76.59 % 1013.98 hPa
2021-05-01 15:30:00 12.75 ℃ 77.51 % 1014.07 hPa
2021-05-01 15:20:00 12.7 ℃ 77.47 % 1014.17 hPa
2021-05-01 15:10:00 12.63 ℃ 79.22 % 1014.25 hPa
2021-05-01 15:00:00 12.6 ℃ 81.16 % 1014.3 hPa
2021-05-01 14:50:00 12.72 ℃ 79.3 % 1014.34 hPa
2021-05-01 14:30:00 13.3 ℃ 73.14 % 1014.35 hPa
2021-05-01 14:20:00 13.41 ℃ 72.17 % 1014.4 hPa
2021-05-01 14:10:00 12.98 ℃ 74.48 % 1014.44 hPa
2021-05-01 14:00:00 12.72 ℃ 76.76 % 1014.53 hPa
2021-05-01 13:50:00 12.73 ℃ 78.18 % 1014.55 hPa
2021-05-01 13:40:00 12.44 ℃ 79.35 % 1014.62 hPa
2021-05-01 13:30:00 12.06 ℃ 80.44 % 1014.69 hPa
2021-05-01 13:20:00 12.27 ℃ 78.87 % 1014.74 hPa
2021-05-01 13:10:00 12.49 ℃ 78.35 % 1014.79 hPa
2021-05-01 13:00:00 12.75 ℃ 77.75 % 1014.78 hPa
2021-05-01 12:50:00 12.31 ℃ 80.15 % 1014.78 hPa
2021-05-01 12:30:00 12.37 ℃ 80.72 % 1014.86 hPa
2021-05-01 12:20:00 12.36 ℃ 81.09 % 1014.89 hPa
2021-05-01 12:10:00 12.19 ℃ 81.05 % 1014.95 hPa
2021-05-01 12:00:00 12.18 ℃ 80.63 % 1015.04 hPa
2021-05-01 11:50:00 11.74 ℃ 82.91 % 1015.12 hPa
2021-05-01 11:40:00 11.67 ℃ 83.71 % 1015.2 hPa
2021-05-01 11:30:00 11.68 ℃ 84.22 % 1015.27 hPa
2021-05-01 11:20:00 11.9 ℃ 84.68 % 1015.34 hPa
2021-05-01 11:10:00 11.42 ℃ 85.95 % 1015.44 hPa
2021-05-01 11:00:00 10.97 ℃ 87.49 % 1015.53 hPa
2021-05-01 10:50:00 11.16 ℃ 87.44 % 1015.56 hPa
2021-05-01 10:30:00 11.09 ℃ 87.62 % 1015.59 hPa
2021-05-01 10:20:00 10.81 ℃ 89.34 % 1015.63 hPa
2021-05-01 10:10:00 10.42 ℃ 90.73 % 1015.63 hPa
2021-05-01 10:00:00 10.22 ℃ 91.86 % 1015.65 hPa
2021-05-01 09:50:01 10.21 ℃ 92.48 % 1015.68 hPa
2021-05-01 09:40:01 10.01 ℃ 94.84 % 1015.69 hPa
2021-05-01 09:30:01 10.05 ℃ 96.93 % 1015.69 hPa
2021-05-01 09:20:00 9.78 ℃ 98.11 % 1015.68 hPa
2021-05-01 09:10:01 9.58 ℃ 100 % 1015.69 hPa
2021-05-01 09:00:00 9.45 ℃ 100 % 1015.72 hPa
2021-05-01 08:50:01 9.39 ℃ 100 % 1015.72 hPa
2021-05-01 08:40:00 9.18 ℃ 100 % 1015.71 hPa
2021-05-01 08:10:01 8.72 ℃ 100 % 1015.67 hPa
2021-05-01 08:00:01 8.54 ℃ 100 % 1015.66 hPa
2021-05-01 07:50:01 8.6 ℃ 100 % 1015.58 hPa
2021-05-01 07:40:01 8.63 ℃ 100 % 1015.5 hPa
2021-05-01 07:30:01 8.59 ℃ 100 % 1015.4 hPa
2021-05-01 07:20:01 8.48 ℃ 100 % 1015.33 hPa
2021-05-01 07:10:01 8.33 ℃ 100 % 1015.29 hPa
2021-05-01 07:00:01 8.18 ℃ 100 % 1015.29 hPa
2021-05-01 06:50:01 8.13 ℃ 100 % 1015.3 hPa
2021-05-01 06:40:01 8.27 ℃ 100 % 1015.3 hPa
2021-05-01 06:30:01 8.14 ℃ 100 % 1015.27 hPa
2021-05-01 06:00:01 8.35 ℃ 100 % 1015.32 hPa
2021-05-01 05:50:01 8.24 ℃ 100 % 1015.34 hPa
2021-05-01 05:40:01 8.1 ℃ 100 % 1015.35 hPa
2021-05-01 05:30:01 8.08 ℃ 100 % 1015.39 hPa
2021-05-01 05:20:01 8.02 ℃ 100 % 1015.45 hPa
2021-05-01 05:10:01 7.98 ℃ 100 % 1015.58 hPa
2021-05-01 05:00:01 7.89 ℃ 100 % 1015.63 hPa
2021-05-01 04:50:01 7.96 ℃ 100 % 1015.68 hPa
2021-05-01 04:40:01 7.86 ℃ 100 % 1015.76 hPa
2021-05-01 04:30:01 7.79 ℃ 100 % 1015.8 hPa
2021-05-01 04:20:01 7.84 ℃ 100 % 1015.88 hPa
2021-05-01 04:00:01 7.94 ℃ 100 % 1016.05 hPa
2021-05-01 03:50:01 7.93 ℃ 100 % 1016.08 hPa
2021-05-01 03:40:01 8.1 ℃ 100 % 1016.13 hPa
2021-05-01 03:30:01 8 ℃ 100 % 1016.17 hPa
2021-05-01 03:20:01 7.9 ℃ 100 % 1016.23 hPa
2021-05-01 03:10:01 7.59 ℃ 100 % 1016.22 hPa
2021-05-01 03:00:01 7.36 ℃ 100 % 1016.26 hPa
2021-05-01 02:50:01 7.3 ℃ 100 % 1016.27 hPa
2021-05-01 02:40:01 7.24 ℃ 100 % 1016.26 hPa
2021-05-01 02:30:01 7.19 ℃ 100 % 1016.28 hPa
2021-05-01 02:20:01 7.17 ℃ 100 % 1016.34 hPa
2021-05-01 02:10:01 7.23 ℃ 100 % 1016.41 hPa
2021-05-01 01:50:01 7.11 ℃ 100 % 1016.5 hPa
2021-05-01 01:40:01 7.12 ℃ 100 % 1016.49 hPa
2021-05-01 01:30:01 7.26 ℃ 100 % 1016.47 hPa
2021-05-01 01:20:01 7.3 ℃ 100 % 1016.47 hPa
2021-05-01 01:10:01 7.37 ℃ 100 % 1016.42 hPa
2021-05-01 01:00:01 7.34 ℃ 99.99 % 1016.39 hPa
2021-05-01 00:50:01 7.33 ℃ 99.98 % 1016.34 hPa
2021-05-01 00:40:01 7.51 ℃ 99.97 % 1016.31 hPa
2021-05-01 00:30:01 7.65 ℃ 99.93 % 1016.23 hPa
2021-05-01 00:20:01 8 ℃ 99.87 % 1016.11 hPa
2021-05-01 00:10:01 8.15 ℃ 99.73 % 1016.02 hPa
2021-05-01 00:00:01 8.24 ℃ 99.47 % 1015.95 hPa
2021-04-30 23:30:01 8.37 ℃ 98.58 % 1015.87 hPa
2021-04-30 23:20:01 8.46 ℃ 98.33 % 1015.83 hPa
2021-04-30 23:10:01 8.55 ℃ 99.31 % 1015.8 hPa
2021-04-30 23:00:01 8.74 ℃ 99.55 % 1015.81 hPa
2021-04-30 22:50:01 8.8 ℃ 99.78 % 1015.8 hPa
2021-04-30 22:40:01 9.07 ℃ 99.55 % 1015.79 hPa
2021-04-30 22:30:01 9.04 ℃ 99.11 % 1015.8 hPa
2021-04-30 22:20:01 9.26 ℃ 98.22 % 1015.78 hPa
2021-04-30 22:10:01 9.25 ℃ 97.66 % 1015.73 hPa
2021-04-30 22:00:01 9.25 ℃ 97.1 % 1015.72 hPa
2021-04-30 21:50:02 9.41 ℃ 95.81 % 1015.69 hPa
2021-04-30 21:30:02 9.99 ℃ 92.21 % 1015.61 hPa
2021-04-30 21:20:02 10.1 ℃ 92.04 % 1015.59 hPa
2021-04-30 21:10:02 10.28 ℃ 91.8 % 1015.51 hPa
2021-04-30 21:00:02 10.39 ℃ 92.43 % 1015.38 hPa
2021-04-30 20:50:02 10.5 ℃ 93.23 % 1015.3 hPa
2021-04-30 20:40:02 10.61 ℃ 93.15 % 1015.26 hPa
2021-04-30 20:30:02 10.69 ℃ 93.66 % 1015.22 hPa
2021-04-30 20:20:02 10.95 ℃ 92.09 % 1015.13 hPa
2021-04-30 20:10:02 11.08 ℃ 90.34 % 1015.03 hPa
2021-04-30 20:00:02 11.17 ℃ 87.17 % 1014.93 hPa
2021-04-30 19:50:02 11.27 ℃ 83.94 % 1014.85 hPa
2021-04-30 19:30:02 11.82 ℃ 76.75 % 1014.78 hPa
2021-04-30 19:20:02 11.95 ℃ 74.21 % 1014.68 hPa
2021-04-30 19:10:02 12.1 ℃ 72.02 % 1014.62 hPa
2021-04-30 19:00:02 12.13 ℃ 71 % 1014.56 hPa
2021-04-30 18:50:02 12.03 ℃ 70.46 % 1014.53 hPa
2021-04-30 18:40:03 12.13 ℃ 68.99 % 1014.52 hPa
2021-04-30 18:30:02 12.55 ℃ 67.45 % 1014.48 hPa
2021-04-30 18:20:02 12.65 ℃ 65.76 % 1014.45 hPa
2021-04-30 18:10:02 13.04 ℃ 62.1 % 1014.41 hPa
2021-04-30 18:00:02 13.26 ℃ 60.22 % 1014.35 hPa
2021-04-30 17:50:02 13.37 ℃ 60.42 % 1014.36 hPa
2021-04-30 17:30:02 12.85 ℃ 64.68 % 1014.41 hPa
2021-04-30 17:20:02 12.78 ℃ 64.09 % 1014.43 hPa
2021-04-30 17:10:02 12.82 ℃ 61.88 % 1014.42 hPa
2021-04-30 17:00:02 12.89 ℃ 59.06 % 1014.43 hPa
2021-04-30 16:50:02 13.02 ℃ 57.75 % 1014.41 hPa
2021-04-30 16:40:02 12.79 ℃ 58.21 % 1014.46 hPa
2021-04-30 16:30:02 12.75 ℃ 57.66 % 1014.49 hPa
2021-04-30 16:20:02 12.68 ℃ 57.96 % 1014.48 hPa
2021-04-30 16:10:02 12.64 ℃ 59.68 % 1014.51 hPa
2021-04-30 16:00:02 12.48 ℃ 60.58 % 1014.5 hPa
2021-04-30 15:50:02 12.44 ℃ 64 % 1014.54 hPa
2021-04-30 15:30:02 12.57 ℃ 67.71 % 1014.6 hPa
2021-04-30 15:20:02 12.4 ℃ 69.73 % 1014.63 hPa
2021-04-30 15:10:02 12.58 ℃ 71.65 % 1014.62 hPa
2021-04-30 15:00:02 12.44 ℃ 73.18 % 1014.66 hPa
2021-04-30 14:50:02 12.69 ℃ 74.6 % 1014.64 hPa
2021-04-30 14:40:02 12.19 ℃ 79.37 % 1014.63 hPa
2021-04-30 14:30:02 12.13 ℃ 80.98 % 1014.64 hPa
2021-04-30 14:20:02 11.76 ℃ 82.31 % 1014.63 hPa
2021-04-30 14:10:02 11.73 ℃ 83.98 % 1014.61 hPa
2021-04-30 14:00:02 11.63 ℃ 84.43 % 1014.57 hPa
2021-04-30 13:50:02 11.65 ℃ 84.83 % 1014.53 hPa
2021-04-30 13:30:02 11.3 ℃ 86.33 % 1014.53 hPa
2021-04-30 13:20:02 11.31 ℃ 87.49 % 1014.48 hPa
2021-04-30 13:10:02 11.27 ℃ 88.63 % 1014.45 hPa
2021-04-30 13:00:02 11.28 ℃ 88.71 % 1014.48 hPa
2021-04-30 12:50:02 11.29 ℃ 90.96 % 1014.5 hPa
2021-04-30 12:40:02 10.89 ℃ 91.65 % 1014.55 hPa
2021-04-30 12:30:02 10.9 ℃ 88.31 % 1014.51 hPa
2021-04-30 12:20:03 11.15 ℃ 83.96 % 1014.39 hPa
2021-04-30 12:10:02 11.43 ℃ 80.35 % 1014.37 hPa
2021-04-30 12:00:02 11.08 ℃ 83.19 % 1014.36 hPa
2021-04-30 11:50:02 10.87 ℃ 85.87 % 1014.37 hPa
2021-04-30 11:30:02 10.66 ℃ 86.69 % 1014.32 hPa
2021-04-30 11:20:02 10.8 ℃ 82.61 % 1014.3 hPa
2021-04-30 11:10:03 10.77 ℃ 87.18 % 1014.24 hPa
2021-04-30 11:00:03 10.82 ℃ 91.82 % 1014.16 hPa
2021-04-30 10:50:03 10.51 ℃ 93.21 % 1014.1 hPa
2021-04-30 10:40:03 10.75 ℃ 91.09 % 1013.96 hPa
2021-04-30 10:30:03 10.68 ℃ 92.27 % 1013.84 hPa
2021-04-30 10:20:03 10.94 ℃ 92.94 % 1013.7 hPa
2021-04-30 10:10:03 10.69 ℃ 93.59 % 1013.62 hPa
2021-04-30 10:00:03 10.62 ℃ 93.95 % 1013.5 hPa
2021-04-30 09:50:03 10.74 ℃ 95.06 % 1013.46 hPa
2021-04-30 09:30:03 9.64 ℃ 100 % 1013.33 hPa
2021-04-30 09:20:03 9.75 ℃ 100 % 1013.19 hPa
2021-04-30 09:10:03 9.48 ℃ 100 % 1013.13 hPa
2021-04-30 09:00:03 9.48 ℃ 100 % 1013 hPa
2021-04-30 08:50:03 9.39 ℃ 100 % 1012.89 hPa
2021-04-30 08:40:03 9.39 ℃ 100 % 1012.74 hPa
2021-04-30 08:30:03 9.13 ℃ 100 % 1012.65 hPa
2021-04-30 08:20:03 8.87 ℃ 100 % 1012.55 hPa
2021-04-30 08:10:03 8.81 ℃ 100 % 1012.45 hPa
2021-04-30 08:00:03 8.56 ℃ 100 % 1012.38 hPa
2021-04-30 07:50:03 8.45 ℃ 100 % 1012.3 hPa
2021-04-30 07:40:03 8.3 ℃ 100 % 1012.18 hPa
2021-04-30 07:20:03 8.06 ℃ 100 % 1011.95 hPa
2021-04-30 07:10:03 7.97 ℃ 100 % 1011.78 hPa
2021-04-30 07:00:03 8.01 ℃ 100 % 1011.65 hPa
2021-04-30 06:50:03 8.01 ℃ 100 % 1011.49 hPa
2021-04-30 06:40:03 7.93 ℃ 100 % 1011.37 hPa
2021-04-30 06:30:03 7.93 ℃ 100 % 1011.22 hPa
2021-04-30 06:20:03 7.97 ℃ 100 % 1011.16 hPa
2021-04-30 06:10:03 7.99 ℃ 100 % 1011.11 hPa
2021-04-30 06:00:03 7.97 ℃ 100 % 1011 hPa
2021-04-30 05:50:03 7.92 ℃ 100 % 1010.88 hPa
2021-04-30 05:40:03 7.9 ℃ 100 % 1010.79 hPa
2021-04-30 05:30:03 7.86 ℃ 100 % 1010.66 hPa
2021-04-30 05:00:03 7.76 ℃ 100 % 1010.45 hPa
2021-04-30 04:50:03 7.79 ℃ 100 % 1010.4 hPa
2021-04-30 04:40:03 8 ℃ 100 % 1010.29 hPa
2021-04-30 04:30:03 7.9 ℃ 100 % 1010.23 hPa
2021-04-30 04:20:03 7.92 ℃ 100 % 1010.08 hPa
2021-04-30 04:10:03 7.87 ℃ 100 % 1009.97 hPa
2021-04-30 04:00:03 7.88 ℃ 100 % 1009.87 hPa
2021-04-30 03:50:03 7.86 ℃ 100 % 1009.71 hPa
2021-04-30 03:40:03 7.81 ℃ 100 % 1009.6 hPa
2021-04-30 03:30:03 7.79 ℃ 100 % 1009.44 hPa
2021-04-30 03:20:03 7.84 ℃ 100 % 1009.28 hPa
2021-04-30 02:50:03 7.92 ℃ 100 % 1009.01 hPa
2021-04-30 02:40:03 7.91 ℃ 100 % 1008.92 hPa
2021-04-30 02:30:03 7.87 ℃ 100 % 1008.85 hPa
2021-04-30 02:20:03 7.87 ℃ 100 % 1008.75 hPa
2021-04-30 02:10:03 7.92 ℃ 100 % 1008.69 hPa
2021-04-30 02:00:04 7.99 ℃ 100 % 1008.56 hPa
2021-04-30 01:50:03 7.99 ℃ 100 % 1008.42 hPa
2021-04-30 01:40:04 7.92 ℃ 100 % 1008.32 hPa
2021-04-30 01:30:04 7.96 ℃ 100 % 1008.16 hPa
2021-04-30 01:20:04 7.99 ℃ 100 % 1008 hPa
2021-04-30 01:10:04 7.96 ℃ 100 % 1007.9 hPa
2021-04-30 00:40:04 7.87 ℃ 100 % 1007.53 hPa
2021-04-30 00:30:04 7.81 ℃ 100 % 1007.42 hPa
2021-04-30 00:20:04 7.82 ℃ 100 % 1007.32 hPa
2021-04-30 00:10:04 7.84 ℃ 100 % 1007.13 hPa
2021-04-30 00:00:04 7.88 ℃ 100 % 1007.01 hPa
2021-04-29 23:50:04 7.88 ℃ 100 % 1006.87 hPa
2021-04-29 23:40:04 7.84 ℃ 100 % 1006.78 hPa
2021-04-29 23:30:04 7.87 ℃ 100 % 1006.69 hPa
2021-04-29 23:20:04 7.86 ℃ 100 % 1006.53 hPa
2021-04-29 23:10:04 7.9 ℃ 100 % 1006.47 hPa
2021-04-29 23:00:04 7.8 ℃ 100 % 1006.44 hPa
2021-04-29 22:40:04 7.8 ℃ 100 % 1006.21 hPa
2021-04-29 22:30:04 7.76 ℃ 100 % 1006.1 hPa
2021-04-29 22:20:04 7.69 ℃ 100 % 1005.97 hPa
2021-04-29 22:10:04 7.61 ℃ 100 % 1005.86 hPa
2021-04-29 22:00:04 7.56 ℃ 100 % 1005.84 hPa
2021-04-29 21:50:04 7.49 ℃ 100 % 1005.78 hPa
2021-04-29 21:40:04 7.47 ℃ 100 % 1005.64 hPa
2021-04-29 21:30:04 7.46 ℃ 100 % 1005.57 hPa
2021-04-29 21:20:04 7.44 ℃ 100 % 1005.48 hPa
2021-04-29 21:10:05 7.47 ℃ 100 % 1005.36 hPa
2021-04-29 21:00:04 7.51 ℃ 100 % 1005.23 hPa
2021-04-29 20:40:04 7.62 ℃ 100 % 1005.15 hPa
2021-04-29 20:30:04 7.61 ℃ 100 % 1005.13 hPa
2021-04-29 20:20:04 7.62 ℃ 100 % 1005.09 hPa
2021-04-29 20:00:04 7.59 ℃ 100 % 1004.99 hPa
2021-04-29 19:50:04 7.61 ℃ 100 % 1004.9 hPa
2021-04-29 19:40:04 7.73 ℃ 100 % 1004.86 hPa
2021-04-29 19:30:04 7.82 ℃ 100 % 1004.81 hPa
2021-04-29 19:20:04 7.84 ℃ 100 % 1004.76 hPa
2021-04-29 19:10:05 7.88 ℃ 100 % 1004.72 hPa
2021-04-29 19:00:04 7.89 ℃ 100 % 1004.67 hPa
2021-04-29 18:40:04 7.86 ℃ 100 % 1004.65 hPa
2021-04-29 18:30:04 7.87 ℃ 100 % 1004.62 hPa
2021-04-29 18:20:04 7.75 ℃ 100 % 1004.69 hPa
2021-04-29 18:10:04 7.76 ℃ 100 % 1004.69 hPa
2021-04-29 18:00:04 7.65 ℃ 100 % 1004.7 hPa
2021-04-29 17:50:04 7.73 ℃ 100 % 1004.66 hPa
2021-04-29 17:40:04 7.59 ℃ 100 % 1004.69 hPa
2021-04-29 17:30:04 7.47 ℃ 100 % 1004.72 hPa
2021-04-29 17:20:04 7.44 ℃ 100 % 1004.75 hPa
2021-04-29 17:10:04 7.54 ℃ 100 % 1004.69 hPa
2021-04-29 17:00:04 7.56 ℃ 100 % 1004.68 hPa
2021-04-29 16:40:04 7.62 ℃ 100 % 1004.6 hPa
2021-04-29 16:30:04 7.61 ℃ 100 % 1004.59 hPa
2021-04-29 16:20:04 7.59 ℃ 100 % 1004.58 hPa
2021-04-29 16:10:05 7.71 ℃ 100 % 1004.59 hPa
2021-04-29 16:00:05 7.75 ℃ 100 % 1004.66 hPa
2021-04-29 15:50:04 7.89 ℃ 100 % 1004.67 hPa
2021-04-29 15:40:05 8.01 ℃ 100 % 1004.68 hPa
2021-04-29 15:30:05 7.92 ℃ 100 % 1004.74 hPa
2021-04-29 15:20:05 8.01 ℃ 100 % 1004.72 hPa
2021-04-29 15:10:04 7.88 ℃ 100 % 1004.74 hPa
2021-04-29 15:00:04 7.88 ℃ 100 % 1004.77 hPa
2021-04-29 14:40:04 7.74 ℃ 100 % 1004.76 hPa
2021-04-29 14:30:05 7.79 ℃ 100 % 1004.74 hPa
2021-04-29 14:20:05 7.68 ℃ 100 % 1004.79 hPa
2021-04-29 14:10:05 7.78 ℃ 100 % 1004.73 hPa
2021-04-29 14:00:05 7.88 ℃ 100 % 1004.7 hPa
2021-04-29 13:50:05 7.91 ℃ 100 % 1004.73 hPa
2021-04-29 13:40:05 7.99 ℃ 100 % 1004.71 hPa
2021-04-29 13:30:05 8.14 ℃ 100 % 1004.68 hPa
2021-04-29 13:20:05 8.06 ℃ 100 % 1004.69 hPa
2021-04-29 13:10:05 8.15 ℃ 100 % 1004.73 hPa
2021-04-29 13:00:05 8.3 ℃ 100 % 1004.79 hPa
2021-04-29 12:50:05 8.28 ℃ 100 % 1004.82 hPa
2021-04-29 12:30:05 8.2 ℃ 100 % 1004.84 hPa
2021-04-29 12:20:05 8.14 ℃ 100 % 1004.83 hPa
2021-04-29 12:10:05 8.21 ℃ 100 % 1004.82 hPa
2021-04-29 12:00:05 8.36 ℃ 100 % 1004.78 hPa
2021-04-29 11:50:05 8.37 ℃ 100 % 1004.74 hPa
2021-04-29 11:40:05 8.5 ℃ 100 % 1004.72 hPa
2021-04-29 11:30:05 8.49 ℃ 100 % 1004.71 hPa
2021-04-29 11:20:05 8.45 ℃ 100 % 1004.69 hPa
2021-04-29 11:10:05 8.46 ℃ 100 % 1004.72 hPa
2021-04-29 11:00:05 8.32 ℃ 100 % 1004.7 hPa
2021-04-29 10:50:05 8.27 ℃ 100 % 1004.77 hPa
2021-04-29 10:40:05 8.41 ℃ 100 % 1004.73 hPa
2021-04-29 10:20:05 8.54 ℃ 100 % 1004.8 hPa
2021-04-29 10:10:05 8.66 ℃ 100 % 1004.76 hPa
2021-04-29 10:00:05 8.66 ℃ 100 % 1004.83 hPa
2021-04-29 09:50:05 8.65 ℃ 100 % 1004.83 hPa
2021-04-29 09:40:05 8.83 ℃ 100 % 1004.77 hPa
2021-04-29 09:30:05 8.99 ℃ 100 % 1004.69 hPa
2021-04-29 09:20:05 9.28 ℃ 100 % 1004.69 hPa
2021-04-29 09:10:05 9.5 ℃ 100 % 1004.73 hPa
2021-04-29 09:00:05 9.38 ℃ 100 % 1004.74 hPa
2021-04-29 08:50:05 9.4 ℃ 100 % 1004.77 hPa
2021-04-29 08:40:05 9.58 ℃ 100 % 1004.81 hPa
2021-04-29 08:10:05 9.43 ℃ 100 % 1004.73 hPa
2021-04-29 08:00:05 9.23 ℃ 100 % 1004.72 hPa
2021-04-29 07:50:05 8.94 ℃ 100 % 1004.73 hPa
2021-04-29 07:40:05 8.94 ℃ 100 % 1004.72 hPa
2021-04-29 07:30:05 8.92 ℃ 100 % 1004.71 hPa
2021-04-29 07:20:05 8.79 ℃ 100 % 1004.72 hPa
2021-04-29 07:10:05 8.68 ℃ 100 % 1004.73 hPa
2021-04-29 07:00:05 8.55 ℃ 100 % 1004.78 hPa
2021-04-29 06:50:05 8.53 ℃ 100 % 1004.76 hPa
2021-04-29 06:40:05 8.65 ℃ 100 % 1004.81 hPa
2021-04-29 06:30:05 8.54 ℃ 100 % 1004.9 hPa
2021-04-29 06:00:05 8.59 ℃ 100 % 1005.05 hPa
2021-04-29 05:50:05 8.39 ℃ 100 % 1005.06 hPa
2021-04-29 05:40:05 8.5 ℃ 100 % 1005.04 hPa
2021-04-29 05:30:06 8.49 ℃ 100 % 1005 hPa
2021-04-29 05:20:05 8.55 ℃ 100 % 1005.05 hPa
2021-04-29 05:10:05 8.47 ℃ 100 % 1005.1 hPa
2021-04-29 05:00:06 8.55 ℃ 100 % 1005.19 hPa
2021-04-29 04:50:05 8.58 ℃ 100 % 1005.29 hPa
2021-04-29 04:40:05 8.63 ℃ 100 % 1005.4 hPa
2021-04-29 04:30:06 8.61 ℃ 100 % 1005.44 hPa
2021-04-29 04:20:06 8.53 ℃ 100 % 1005.5 hPa
2021-04-29 03:50:06 8.45 ℃ 100 % 1005.66 hPa
2021-04-29 03:40:06 8.41 ℃ 100 % 1005.71 hPa
2021-04-29 03:30:06 8.32 ℃ 100 % 1005.77 hPa
2021-04-29 03:20:06 8.4 ℃ 100 % 1005.92 hPa
2021-04-29 03:10:06 8.44 ℃ 100 % 1006 hPa
2021-04-29 03:00:06 8.36 ℃ 100 % 1006.06 hPa
2021-04-29 02:50:06 8.28 ℃ 100 % 1006.08 hPa
2021-04-29 02:40:06 8.29 ℃ 100 % 1006.22 hPa
2021-04-29 02:30:06 8.36 ℃ 100 % 1006.23 hPa
2021-04-29 02:20:06 8.38 ℃ 100 % 1006.29 hPa
2021-04-29 02:10:06 8.43 ℃ 100 % 1006.35 hPa
2021-04-29 01:50:06 8.73 ℃ 100 % 1006.62 hPa
2021-04-29 01:40:06 8.75 ℃ 100 % 1006.65 hPa
2021-04-29 01:30:06 8.49 ℃ 99.99 % 1006.63 hPa
2021-04-29 01:20:06 8.32 ℃ 99.99 % 1006.63 hPa
2021-04-29 01:10:06 8.32 ℃ 99.97 % 1006.69 hPa
2021-04-29 01:00:06 8.43 ℃ 99.94 % 1006.71 hPa
2021-04-29 00:50:06 8.58 ℃ 99.88 % 1006.72 hPa
2021-04-29 00:40:06 8.68 ℃ 99.77 % 1006.74 hPa
2021-04-29 00:30:06 8.66 ℃ 99.98 % 1006.72 hPa
2021-04-29 00:20:06 8.63 ℃ 99.97 % 1006.78 hPa
2021-04-29 00:10:06 8.72 ℃ 99.94 % 1006.83 hPa
2021-04-28 23:50:06 8.89 ℃ 99.74 % 1006.82 hPa
2021-04-28 23:40:06 9.02 ℃ 99.49 % 1006.78 hPa
2021-04-28 23:30:06 9.15 ℃ 98.97 % 1006.73 hPa
2021-04-28 23:20:06 9.14 ℃ 99.83 % 1006.76 hPa
2021-04-28 23:10:06 9.22 ℃ 99.66 % 1006.92 hPa
2021-04-28 23:00:06 9.16 ℃ 99.31 % 1007 hPa
2021-04-28 22:50:06 9.29 ℃ 98.62 % 1007.25 hPa
2021-04-28 22:40:06 9.42 ℃ 97.24 % 1007.59 hPa
2021-04-28 22:30:06 9.61 ℃ 94.99 % 1007.77 hPa
2021-04-28 22:20:06 9.57 ℃ 93.94 % 1007.97 hPa
2021-04-28 22:10:06 9.35 ℃ 93.91 % 1007.92 hPa
2021-04-28 22:00:06 9.36 ℃ 92.71 % 1007.94 hPa
2021-04-28 21:40:06 9.23 ℃ 92.54 % 1007.94 hPa
2021-04-28 21:30:06 9.31 ℃ 89.71 % 1007.95 hPa
2021-04-28 21:20:06 9.34 ℃ 87.42 % 1007.85 hPa
2021-04-28 21:10:06 9.28 ℃ 86.87 % 1007.81 hPa
2021-04-28 21:00:06 9.28 ℃ 85.78 % 1007.77 hPa
2021-04-28 20:50:06 9.37 ℃ 84.18 % 1007.82 hPa
2021-04-28 20:40:06 9.37 ℃ 83.08 % 1007.86 hPa
2021-04-28 20:30:06 9.48 ℃ 81.51 % 1007.92 hPa
2021-04-28 20:20:06 9.58 ℃ 80.51 % 1007.91 hPa
2021-04-28 20:10:06 9.73 ℃ 78.87 % 1007.85 hPa
2021-04-28 20:00:06 10.01 ℃ 76.67 % 1007.82 hPa
2021-04-28 19:50:06 10.16 ℃ 74.93 % 1007.77 hPa
2021-04-28 19:30:06 10.5 ℃ 70.39 % 1007.85 hPa
2021-04-28 19:20:06 10.79 ℃ 67.17 % 1007.94 hPa
2021-04-28 19:10:06 10.92 ℃ 65 % 1007.83 hPa
2021-04-28 19:00:06 11.08 ℃ 62.18 % 1007.84 hPa
2021-04-28 18:50:06 11.34 ℃ 60.13 % 1007.86 hPa
2021-04-28 18:40:06 11.42 ℃ 59.41 % 1007.9 hPa
2021-04-28 18:30:07 11.48 ℃ 57.34 % 1008 hPa
2021-04-28 18:20:07 11.48 ℃ 55.89 % 1008.03 hPa
2021-04-28 18:10:07 11.67 ℃ 54.22 % 1008.04 hPa
2021-04-28 18:00:08 11.66 ℃ 53.86 % 1008.16 hPa
2021-04-28 17:50:07 11.63 ℃ 53.94 % 1008.28 hPa
2021-04-28 17:40:11 11.71 ℃ 53.44 % 1008.35 hPa
2021-04-28 17:20:07 11.79 ℃ 52.43 % 1008.41 hPa
2021-04-28 17:10:07 11.75 ℃ 51.99 % 1008.52 hPa
2021-04-28 17:00:07 11.8 ℃ 50.02 % 1008.55 hPa
2021-04-28 16:50:07 11.79 ℃ 48.57 % 1008.66 hPa
2021-04-28 16:40:07 11.76 ℃ 48.28 % 1008.72 hPa
2021-04-28 16:30:07 11.74 ℃ 48.41 % 1008.89 hPa
2021-04-28 16:20:07 11.79 ℃ 48.25 % 1009 hPa
2021-04-28 16:10:07 11.79 ℃ 48.79 % 1008.91 hPa
2021-04-28 16:00:07 11.88 ℃ 49.17 % 1008.95 hPa
2021-04-28 15:50:07 11.79 ℃ 49.68 % 1009.01 hPa
2021-04-28 15:40:07 12.01 ℃ 48.38 % 1009.16 hPa
2021-04-28 15:10:07 12.55 ℃ 44.25 % 1009.42 hPa
2021-04-28 15:00:07 12.75 ℃ 41.65 % 1009.44 hPa
2021-04-28 14:50:07 12.57 ℃ 43.07 % 1009.51 hPa
2021-04-28 14:40:07 12.7 ℃ 42.39 % 1009.53 hPa
2021-04-28 14:30:07 12.56 ℃ 40.99 % 1009.64 hPa
2021-04-28 14:20:07 12.57 ℃ 40.5 % 1009.78 hPa
2021-04-28 14:10:07 12.63 ℃ 41.62 % 1009.71 hPa
2021-04-28 14:00:07 12.51 ℃ 42.38 % 1009.79 hPa
2021-04-28 13:50:07 12.49 ℃ 42.58 % 1009.86 hPa
2021-04-28 13:40:07 12.69 ℃ 41.74 % 1009.92 hPa
2021-04-28 13:30:07 12.57 ℃ 41.27 % 1010.06 hPa
2021-04-28 13:00:07 12.53 ℃ 37.31 % 1010.28 hPa
2021-04-28 12:50:07 12.45 ℃ 36.44 % 1010.36 hPa
2021-04-28 12:40:07 12.38 ℃ 36.44 % 1010.42 hPa
2021-04-28 12:30:07 12.45 ℃ 36.96 % 1010.5 hPa
2021-04-28 12:20:07 12.42 ℃ 38.09 % 1010.61 hPa
2021-04-28 12:10:07 12.43 ℃ 37.65 % 1010.7 hPa
2021-04-28 12:00:07 12.19 ℃ 37.37 % 1010.76 hPa
2021-04-28 11:50:07 12.26 ℃ 36.31 % 1010.8 hPa
2021-04-28 11:40:07 12.26 ℃ 35.83 % 1010.87 hPa
2021-04-28 11:30:07 12.29 ℃ 35.23 % 1010.94 hPa
2021-04-28 11:20:07 12.17 ℃ 34.61 % 1011.04 hPa
2021-04-28 10:50:07 12.41 ℃ 34.95 % 1011.13 hPa
2021-04-28 10:40:07 12.62 ℃ 35.13 % 1011.19 hPa
2021-04-28 10:30:07 12.56 ℃ 35.57 % 1011.21 hPa
2021-04-28 10:20:07 12.29 ℃ 37.14 % 1011.31 hPa
2021-04-28 10:10:07 12.02 ℃ 38.43 % 1011.4 hPa
2021-04-28 10:00:07 12.01 ℃ 40.43 % 1011.46 hPa
2021-04-28 09:50:07 11.46 ℃ 42.63 % 1011.52 hPa
2021-04-28 09:40:07 11.05 ℃ 45.21 % 1011.58 hPa
2021-04-28 09:30:07 10.66 ℃ 47.12 % 1011.67 hPa
2021-04-28 09:20:07 10.43 ℃ 48.74 % 1011.71 hPa
2021-04-28 09:10:07 10.19 ℃ 51.47 % 1011.73 hPa
2021-04-28 08:50:07 9.6 ℃ 59.52 % 1011.82 hPa
2021-04-28 08:40:07 9.47 ℃ 64.33 % 1011.86 hPa
2021-04-28 08:30:08 8.35 ℃ 72.78 % 1011.96 hPa
2021-04-28 08:20:08 7.88 ℃ 76.43 % 1011.99 hPa
2021-04-28 08:10:07 7.68 ℃ 77.48 % 1012.04 hPa
2021-04-28 08:00:07 7.15 ℃ 79.78 % 1012.05 hPa
2021-04-28 07:50:07 6.92 ℃ 80.59 % 1012.08 hPa
2021-04-28 07:40:08 6.49 ℃ 82.58 % 1012.12 hPa
2021-04-28 07:30:07 6.33 ℃ 83.16 % 1012.15 hPa
2021-04-28 07:20:08 6.14 ℃ 83.93 % 1012.18 hPa
2021-04-28 07:10:08 6.15 ℃ 83.78 % 1012.19 hPa
2021-04-28 06:40:08 5.74 ℃ 84.89 % 1012.19 hPa
2021-04-28 06:30:08 5.94 ℃ 83.68 % 1012.22 hPa
2021-04-28 06:20:08 6.27 ℃ 81.82 % 1012.22 hPa
2021-04-28 06:10:08 6.04 ℃ 81.73 % 1012.26 hPa
2021-04-28 06:00:08 5.63 ℃ 81.71 % 1012.29 hPa
2021-04-28 05:50:08 5.7 ℃ 77.67 % 1012.28 hPa
2021-04-28 05:40:08 5.66 ℃ 76.87 % 1012.32 hPa
2021-04-28 05:30:08 5.66 ℃ 76.02 % 1012.36 hPa
2021-04-28 05:20:08 5.68 ℃ 75.59 % 1012.43 hPa
2021-04-28 05:10:08 5.74 ℃ 74.87 % 1012.51 hPa
2021-04-28 05:00:08 5.78 ℃ 74.78 % 1012.57 hPa
2021-04-28 04:30:08 6.15 ℃ 72.6 % 1012.76 hPa
2021-04-28 04:20:08 6.07 ℃ 73.29 % 1012.87 hPa
2021-04-28 04:10:08 6.08 ℃ 73.28 % 1012.92 hPa
2021-04-28 04:00:08 6.1 ℃ 73.09 % 1012.97 hPa
2021-04-28 03:50:08 6.01 ℃ 73.77 % 1013.05 hPa
2021-04-28 03:40:08 5.95 ℃ 74.27 % 1013.07 hPa
2021-04-28 03:30:08 6.12 ℃ 73.74 % 1013.09 hPa
2021-04-28 03:20:08 6.05 ℃ 74.77 % 1013.17 hPa
2021-04-28 03:10:08 6.23 ℃ 74.32 % 1013.23 hPa
2021-04-28 03:00:08 6.26 ℃ 74.68 % 1013.31 hPa
2021-04-28 02:50:08 6.45 ℃ 74.68 % 1013.4 hPa
2021-04-28 02:30:08 6.33 ℃ 74.71 % 1013.57 hPa
2021-04-28 02:20:08 6.46 ℃ 74.56 % 1013.68 hPa
2021-04-28 02:10:08 6.48 ℃ 74.96 % 1013.75 hPa
2021-04-28 02:00:08 6.54 ℃ 75.29 % 1013.79 hPa
2021-04-28 01:50:08 6.57 ℃ 75.98 % 1013.85 hPa
2021-04-28 01:40:08 6.68 ℃ 76.22 % 1013.88 hPa
2021-04-28 01:30:08 6.7 ℃ 77.11 % 1013.92 hPa
2021-04-28 01:20:08 6.66 ℃ 78.34 % 1013.97 hPa
2021-04-28 01:10:08 6.77 ℃ 78.78 % 1014.05 hPa
2021-04-28 01:00:08 6.92 ℃ 78.79 % 1014.1 hPa
2021-04-28 00:50:08 7.03 ℃ 79.46 % 1014.16 hPa
2021-04-28 00:40:08 7.02 ℃ 80.25 % 1014.2 hPa
2021-04-28 00:10:08 7.06 ℃ 81.96 % 1014.25 hPa
2021-04-28 00:00:08 7.07 ℃ 81.97 % 1014.26 hPa
2021-04-27 23:50:08 7.13 ℃ 80.3 % 1014.28 hPa
2021-04-27 23:40:08 7.14 ℃ 78.56 % 1014.31 hPa
2021-04-27 23:30:08 7.17 ℃ 76.35 % 1014.35 hPa
2021-04-27 23:20:09 7.28 ℃ 73.53 % 1014.38 hPa
2021-04-27 23:10:08 7.28 ℃ 71.24 % 1014.4 hPa
2021-04-27 23:00:08 7.36 ℃ 68.66 % 1014.46 hPa
2021-04-27 22:50:08 7.43 ℃ 66.27 % 1014.45 hPa
2021-04-27 22:40:08 7.51 ℃ 64.02 % 1014.47 hPa
2021-04-27 22:30:08 7.53 ℃ 62.48 % 1014.46 hPa
2021-04-27 22:10:08 7.73 ℃ 61.42 % 1014.55 hPa
2021-04-27 22:00:08 7.86 ℃ 61.24 % 1014.59 hPa
2021-04-27 21:50:08 7.96 ℃ 61.33 % 1014.6 hPa
2021-04-27 21:40:08 8.15 ℃ 60.45 % 1014.62 hPa
2021-04-27 21:30:08 8.19 ℃ 58.94 % 1014.62 hPa
2021-04-27 21:20:08 8.24 ℃ 57.03 % 1014.63 hPa
2021-04-27 21:10:09 8.46 ℃ 54.18 % 1014.62 hPa
2021-04-27 21:00:09 8.51 ℃ 51.97 % 1014.6 hPa
2021-04-27 20:50:09 8.63 ℃ 49.59 % 1014.61 hPa
2021-04-27 20:40:09 8.72 ℃ 47.94 % 1014.56 hPa
2021-04-27 20:30:09 8.82 ℃ 47.04 % 1014.57 hPa
2021-04-27 20:10:09 9 ℃ 46.22 % 1014.53 hPa
2021-04-27 20:00:09 9.22 ℃ 45.34 % 1014.5 hPa
2021-04-27 19:50:09 9.28 ℃ 44.5 % 1014.53 hPa
2021-04-27 19:40:09 9.36 ℃ 43.71 % 1014.55 hPa
2021-04-27 19:30:09 9.55 ℃ 43.32 % 1014.58 hPa
2021-04-27 19:20:09 9.63 ℃ 43.55 % 1014.61 hPa
2021-04-27 19:10:09 9.7 ℃ 43.72 % 1014.61 hPa
2021-04-27 19:00:09 9.62 ℃ 43.55 % 1014.68 hPa
2021-04-27 18:50:09 9.76 ℃ 42.99 % 1014.75 hPa
2021-04-27 18:40:09 9.68 ℃ 42.97 % 1014.86 hPa
2021-04-27 18:30:09 9.74 ℃ 42.8 % 1014.89 hPa
2021-04-27 18:10:09 9.68 ℃ 43.11 % 1015.07 hPa
2021-04-27 18:00:09 9.99 ℃ 42.37 % 1015.07 hPa
2021-04-27 17:50:09 9.89 ℃ 43.4 % 1015.17 hPa
2021-04-27 17:40:09 9.92 ℃ 44 % 1015.22 hPa
2021-04-27 17:30:09 10.11 ℃ 43.48 % 1015.28 hPa
2021-04-27 17:20:09 10.02 ℃ 42.9 % 1015.35 hPa
2021-04-27 17:10:09 9.93 ℃ 43.22 % 1015.47 hPa
2021-04-27 17:00:09 10.16 ℃ 41.67 % 1015.5 hPa
2021-04-27 16:50:09 10.28 ℃ 40.21 % 1015.56 hPa
2021-04-27 16:40:09 10.29 ℃ 39.56 % 1015.74 hPa
2021-04-27 16:30:09 10.25 ℃ 39.53 % 1015.91 hPa
2021-04-27 16:10:09 10.09 ℃ 40.46 % 1016.04 hPa
2021-04-27 16:00:09 10.24 ℃ 40.74 % 1016.13 hPa
2021-04-27 15:50:09 10.17 ℃ 41.36 % 1016.18 hPa
2021-04-27 15:40:09 10.12 ℃ 42.54 % 1016.2 hPa
2021-04-27 15:30:09 10.1 ℃ 43.11 % 1016.31 hPa
2021-04-27 15:20:09 10.06 ℃ 43.58 % 1016.44 hPa
2021-04-27 15:10:09 10.12 ℃ 43.44 % 1016.47 hPa
2021-04-27 15:00:09 10.24 ℃ 43.49 % 1016.56 hPa
2021-04-27 14:50:09 10.2 ℃ 44.44 % 1016.61 hPa
2021-04-27 14:40:09 10.07 ℃ 45.43 % 1016.74 hPa
2021-04-27 14:30:09 10.03 ℃ 45.88 % 1016.71 hPa
2021-04-27 14:20:09 10 ℃ 47.06 % 1016.83 hPa
2021-04-27 14:00:09 9.92 ℃ 49.26 % 1016.92 hPa
2021-04-27 13:50:09 9.89 ℃ 50 % 1017.05 hPa
2021-04-27 13:40:09 9.87 ℃ 49.22 % 1017.19 hPa
2021-04-27 13:30:09 10.01 ℃ 47.66 % 1017.14 hPa
2021-04-27 13:20:09 10.41 ℃ 42.36 % 1017.27 hPa
2021-04-27 13:10:09 11.34 ℃ 34.74 % 1017.31 hPa
2021-04-27 13:00:09 11.01 ℃ 35.41 % 1017.37 hPa
2021-04-27 12:50:09 11.3 ℃ 35.05 % 1017.45 hPa
2021-04-27 12:40:09 10.87 ℃ 36.31 % 1017.54 hPa
2021-04-27 12:30:09 10.99 ℃ 36.81 % 1017.69 hPa
2021-04-27 12:20:09 10.85 ℃ 36.95 % 1017.83 hPa
2021-04-27 12:10:09 11.1 ℃ 36.2 % 1017.94 hPa
2021-04-27 11:50:09 11.21 ℃ 35 % 1018.05 hPa
2021-04-27 11:40:10 11.46 ℃ 34.72 % 1018.11 hPa
2021-04-27 11:30:09 10.61 ℃ 37.25 % 1018.2 hPa
2021-04-27 11:20:09 9.64 ℃ 39.24 % 1018.29 hPa
2021-04-27 11:10:10 9.64 ℃ 40.13 % 1018.34 hPa
2021-04-27 11:00:09 9.93 ℃ 40.14 % 1018.38 hPa
2021-04-27 10:50:10 10.27 ℃ 39.77 % 1018.42 hPa
2021-04-27 10:40:10 9.81 ℃ 39.01 % 1018.45 hPa
2021-04-27 10:30:10 10.48 ℃ 38.44 % 1018.45 hPa
2021-04-27 10:20:10 10.72 ℃ 38.04 % 1018.47 hPa
2021-04-27 10:10:10 10.62 ℃ 39.36 % 1018.56 hPa
2021-04-27 10:00:10 10.96 ℃ 37.98 % 1018.61 hPa
2021-04-27 09:40:10 10.94 ℃ 40.32 % 1018.7 hPa
2021-04-27 09:30:10 10.68 ℃ 41.83 % 1018.75 hPa
2021-04-27 09:20:10 10.61 ℃ 43.08 % 1018.81 hPa
2021-04-27 09:10:10 10.4 ℃ 44.54 % 1018.85 hPa
2021-04-27 09:00:10 10.24 ℃ 45.66 % 1018.86 hPa
2021-04-27 08:50:10 10.12 ℃ 47.06 % 1018.88 hPa
2021-04-27 08:40:10 10.06 ℃ 48.48 % 1018.86 hPa
2021-04-27 08:30:10 9.69 ℃ 50.78 % 1018.86 hPa
2021-04-27 08:20:10 9.22 ℃ 54.01 % 1018.84 hPa
2021-04-27 08:10:10 8.14 ℃ 58.79 % 1018.84 hPa
2021-04-27 08:00:10 8.35 ℃ 58.75 % 1018.79 hPa
2021-04-27 07:50:10 8.06 ℃ 60.52 % 1018.77 hPa
2021-04-27 07:20:10 7.86 ℃ 61.78 % 1018.76 hPa
2021-04-27 07:10:10 7.31 ℃ 63.6 % 1018.74 hPa
2021-04-27 07:00:10 6.97 ℃ 64.3 % 1018.76 hPa
2021-04-27 06:50:10 6.76 ℃ 65.78 % 1018.78 hPa
2021-04-27 06:40:10 6.14 ℃ 69.1 % 1018.8 hPa
2021-04-27 06:30:10 5.86 ℃ 69.08 % 1018.8 hPa
2021-04-27 06:20:10 5.79 ℃ 69.44 % 1018.78 hPa
2021-04-27 06:10:10 5.16 ℃ 72.83 % 1018.77 hPa
2021-04-27 06:00:10 4.86 ℃ 72.82 % 1018.8 hPa
2021-04-27 05:50:10 4.83 ℃ 71.79 % 1018.84 hPa
2021-04-27 05:40:10 5.14 ℃ 68.25 % 1018.8 hPa
2021-04-27 05:10:10 5.36 ℃ 62.7 % 1018.91 hPa
2021-04-27 05:00:10 5.52 ℃ 59.93 % 1018.92 hPa
2021-04-27 04:50:10 5.27 ℃ 59.66 % 1018.95 hPa
2021-04-27 04:40:10 5.44 ℃ 57.45 % 1018.99 hPa
2021-04-27 04:30:10 5.62 ℃ 56.3 % 1019.04 hPa
2021-04-27 04:20:10 5.85 ℃ 55.68 % 1019.14 hPa
2021-04-27 04:10:10 6.21 ℃ 52.44 % 1019.17 hPa
2021-04-27 04:00:10 6.17 ℃ 52.35 % 1019.24 hPa
2021-04-27 03:50:10 6.3 ℃ 52.25 % 1019.26 hPa
2021-04-27 03:40:10 6.07 ℃ 53.8 % 1019.29 hPa
2021-04-27 03:30:10 5.78 ℃ 53.89 % 1019.35 hPa
2021-04-27 03:00:10 5.67 ℃ 51.67 % 1019.43 hPa
2021-04-27 02:50:10 5.24 ℃ 52.79 % 1019.46 hPa
2021-04-27 02:40:10 5.04 ℃ 53.16 % 1019.52 hPa
2021-04-27 02:30:10 5.14 ℃ 52.87 % 1019.61 hPa
2021-04-27 02:20:10 5.28 ℃ 52.87 % 1019.67 hPa
2021-04-27 02:10:10 5.65 ℃ 52.67 % 1019.7 hPa
2021-04-27 02:00:10 5.67 ℃ 53.87 % 1019.74 hPa
2021-04-27 01:50:10 5.7 ℃ 54.85 % 1019.81 hPa
2021-04-27 01:40:10 5.84 ℃ 55.87 % 1019.87 hPa
2021-04-27 01:30:10 5.94 ℃ 52.93 % 1019.96 hPa
2021-04-27 01:20:10 5.82 ℃ 53.53 % 1020.02 hPa
2021-04-27 01:10:10 5.93 ℃ 53.41 % 1020.02 hPa
2021-04-27 01:00:11 6.18 ℃ 54.01 % 1020.07 hPa
2021-04-27 00:50:11 6.18 ℃ 55.39 % 1020.08 hPa
2021-04-27 00:40:11 6.17 ℃ 58.14 % 1020.11 hPa
2021-04-27 00:30:11 6.18 ℃ 58.13 % 1020.12 hPa
2021-04-27 00:20:11 6.22 ℃ 59.3 % 1020.16 hPa
2021-04-27 00:10:11 6.07 ℃ 61.74 % 1020.19 hPa
2021-04-27 00:00:11 6.25 ℃ 62.11 % 1020.22 hPa
2021-04-26 23:50:11 6.45 ℃ 62.29 % 1020.25 hPa
2021-04-26 23:40:11 6.5 ℃ 63.07 % 1020.25 hPa
2021-04-26 23:30:11 6.63 ℃ 63.24 % 1020.26 hPa
2021-04-26 23:20:11 7.1 ℃ 62.25 % 1020.27 hPa
2021-04-26 23:10:11 6.95 ℃ 63.28 % 1020.31 hPa
2021-04-26 23:00:11 6.88 ℃ 65.29 % 1020.34 hPa
2021-04-26 22:50:11 6.87 ℃ 65.73 % 1020.36 hPa
2021-04-26 22:40:11 6.68 ℃ 68.4 % 1020.39 hPa
2021-04-26 22:30:11 6.62 ℃ 69.69 % 1020.44 hPa
2021-04-26 22:20:11 6.62 ℃ 71.39 % 1020.48 hPa
2021-04-26 22:10:11 6.8 ℃ 72.23 % 1020.51 hPa
2021-04-26 22:00:11 6.76 ℃ 73.58 % 1020.49 hPa
2021-04-26 21:50:11 6.88 ℃ 74.83 % 1020.48 hPa
2021-04-26 21:40:11 6.98 ℃ 74.68 % 1020.5 hPa
2021-04-26 21:30:11 6.94 ℃ 74.53 % 1020.52 hPa
2021-04-26 21:20:11 7.17 ℃ 72.96 % 1020.54 hPa
2021-04-26 21:10:11 7.1 ℃ 73.19 % 1020.51 hPa
2021-04-26 21:00:11 7.1 ℃ 72.73 % 1020.47 hPa
2021-04-26 20:50:11 7.28 ℃ 71.94 % 1020.46 hPa
2021-04-26 20:40:11 7.25 ℃ 72.46 % 1020.45 hPa
2021-04-26 20:30:11 7.43 ℃ 71.76 % 1020.4 hPa
2021-04-26 20:20:11 7.43 ℃ 71.8 % 1020.37 hPa
2021-04-26 20:10:11 7.66 ℃ 70.53 % 1020.33 hPa
2021-04-26 20:00:11 7.65 ℃ 70.78 % 1020.31 hPa
2021-04-26 19:50:11 7.91 ℃ 69.16 % 1020.29 hPa
2021-04-26 19:40:11 8 ℃ 67.6 % 1020.28 hPa
2021-04-26 19:30:11 8.07 ℃ 66.5 % 1020.28 hPa
2021-04-26 19:20:11 8.17 ℃ 64.29 % 1020.29 hPa
2021-04-26 19:10:11 8.45 ℃ 57.62 % 1020.22 hPa
2021-04-26 19:00:11 8.39 ℃ 51.8 % 1020.25 hPa
2021-04-26 18:50:11 8.33 ℃ 50.39 % 1020.31 hPa
2021-04-26 18:40:11 8.35 ℃ 48.72 % 1020.4 hPa
2021-04-26 18:30:11 8.65 ℃ 43.12 % 1020.44 hPa
2021-04-26 18:20:11 8.91 ℃ 40.02 % 1020.54 hPa
2021-04-26 18:10:11 9.18 ℃ 39.08 % 1020.51 hPa
2021-04-26 18:00:11 9.61 ℃ 38.17 % 1020.5 hPa
2021-04-26 17:50:11 9.68 ℃ 37.95 % 1020.48 hPa
2021-04-26 17:40:11 9.88 ℃ 37.25 % 1020.55 hPa
2021-04-26 17:30:11 10.01 ℃ 36.56 % 1020.65 hPa
2021-04-26 17:20:11 10 ℃ 36.67 % 1020.7 hPa
2021-04-26 17:10:11 9.53 ℃ 37.45 % 1020.8 hPa
2021-04-26 17:00:11 9.38 ℃ 37.74 % 1020.9 hPa
2021-04-26 16:50:11 9.48 ℃ 37.55 % 1020.99 hPa
2021-04-26 16:40:11 9.56 ℃ 37.47 % 1021.09 hPa
2021-04-26 16:30:11 9.7 ℃ 37.38 % 1021.16 hPa
2021-04-26 16:20:11 9.77 ℃ 37.13 % 1021.25 hPa
2021-04-26 16:10:11 10.15 ℃ 36.8 % 1021.33 hPa
2021-04-26 16:00:11 10.08 ℃ 37.22 % 1021.39 hPa
2021-04-26 15:50:11 10.25 ℃ 37.38 % 1021.43 hPa
2021-04-26 15:40:11 10.23 ℃ 37.64 % 1021.54 hPa
2021-04-26 15:30:11 9.94 ℃ 38.72 % 1021.67 hPa
2021-04-26 15:20:11 9.64 ℃ 39.81 % 1021.76 hPa
2021-04-26 15:10:11 9.74 ℃ 39.93 % 1021.83 hPa
2021-04-26 15:00:11 9.56 ℃ 41.07 % 1021.9 hPa
2021-04-26 14:50:11 9.95 ℃ 41.31 % 1021.99 hPa
2021-04-26 14:40:11 9.96 ℃ 41.72 % 1022.09 hPa
2021-04-26 14:30:11 9.8 ℃ 42.62 % 1022.17 hPa
2021-04-26 14:20:12 9.13 ℃ 43.19 % 1022.28 hPa
2021-04-26 14:10:12 9.02 ℃ 44.43 % 1022.39 hPa
2021-04-26 14:00:12 8.71 ℃ 47.43 % 1022.47 hPa
2021-04-26 13:50:12 8.82 ℃ 47.36 % 1022.51 hPa
2021-04-26 13:40:12 8.9 ℃ 45.71 % 1022.59 hPa
2021-04-26 13:30:12 9.03 ℃ 45.53 % 1022.68 hPa
2021-04-26 13:20:12 8.95 ℃ 45.16 % 1022.8 hPa
2021-04-26 13:10:12 9.14 ℃ 44.38 % 1022.85 hPa
2021-04-26 13:00:12 9.74 ℃ 42.25 % 1022.91 hPa
2021-04-26 12:50:12 10.41 ℃ 39.29 % 1022.98 hPa
2021-04-26 12:40:12 11.26 ℃ 37.01 % 1023.05 hPa
2021-04-26 12:30:12 10.99 ℃ 37.07 % 1023.14 hPa
2021-04-26 12:20:12 11.03 ℃ 37.62 % 1023.2 hPa
2021-04-26 12:10:12 11.04 ℃ 36.79 % 1023.25 hPa
2021-04-26 12:10:12 10.83 ℃ 36.05 % 1023.31 hPa
2021-04-26 11:50:12 10.79 ℃ 35.64 % 1023.3 hPa
2021-04-26 11:40:12 10.45 ℃ 37.15 % 1023.34 hPa
2021-04-26 11:30:12 10.48 ℃ 37.04 % 1023.41 hPa
2021-04-26 11:20:12 10.48 ℃ 37.11 % 1023.47 hPa
2021-04-26 11:10:12 11.07 ℃ 36.12 % 1023.52 hPa
2021-04-26 11:00:12 10.01 ℃ 36.72 % 1023.6 hPa
2021-04-26 10:50:12 10.03 ℃ 36.77 % 1023.65 hPa
2021-04-26 10:40:12 9.37 ℃ 38.65 % 1023.66 hPa
2021-04-26 10:30:12 9.81 ℃ 39.06 % 1023.67 hPa
2021-04-26 10:20:12 10.22 ℃ 39.66 % 1023.72 hPa
2021-04-26 10:10:12 10.08 ℃ 40.92 % 1023.82 hPa
2021-04-26 10:00:12 10.77 ℃ 40.88 % 1023.91 hPa
2021-04-26 09:50:12 10.31 ℃ 41.65 % 1024 hPa
2021-04-26 09:40:12 10.53 ℃ 41.66 % 1024.06 hPa
2021-04-26 09:30:12 10.24 ℃ 42.94 % 1024.12 hPa
2021-04-26 09:20:12 10.09 ℃ 43.96 % 1024.18 hPa
2021-04-26 09:10:12 10.4 ℃ 43.86 % 1024.25 hPa
2021-04-26 09:00:12 10.46 ℃ 45.19 % 1024.34 hPa
2021-04-26 08:50:12 9.99 ℃ 46.44 % 1024.34 hPa
2021-04-26 08:40:12 9.6 ℃ 49.44 % 1024.39 hPa
2021-04-26 08:30:12 9.61 ℃ 49.95 % 1024.38 hPa
2021-04-26 08:20:12 9 ℃ 52.7 % 1024.42 hPa
2021-04-26 08:10:12 8.66 ℃ 55.2 % 1024.48 hPa
2021-04-26 08:00:12 8.61 ℃ 57.85 % 1024.47 hPa
2021-04-26 07:50:12 8.26 ℃ 61.26 % 1024.49 hPa
2021-04-26 07:40:12 7.79 ℃ 66.63 % 1024.55 hPa
2021-04-26 07:30:12 7.21 ℃ 72.87 % 1024.6 hPa
2021-04-26 07:20:12 7.11 ℃ 70.42 % 1024.59 hPa
2021-04-26 07:10:12 7.05 ℃ 70.6 % 1024.57 hPa
2021-04-26 07:00:12 6.93 ℃ 70.97 % 1024.57 hPa
2021-04-26 06:50:12 6.72 ℃ 72.29 % 1024.54 hPa
2021-04-26 06:40:12 6.93 ℃ 69.35 % 1024.53 hPa
2021-04-26 06:30:12 6.83 ℃ 69.94 % 1024.55 hPa
2021-04-26 06:10:12 6.2 ℃ 73.22 % 1024.58 hPa
2021-04-26 06:00:12 6.03 ℃ 74.41 % 1024.62 hPa
2021-04-26 05:50:13 6 ℃ 75.29 % 1024.65 hPa
2021-04-26 05:40:12 6.38 ℃ 72.02 % 1024.71 hPa
2021-04-26 05:30:12 6.51 ℃ 71.9 % 1024.75 hPa
2021-04-26 05:20:12 6.67 ℃ 70.76 % 1024.79 hPa
2021-04-26 05:10:12 6.95 ℃ 68.86 % 1024.85 hPa
2021-04-26 05:00:12 7.05 ℃ 68.94 % 1024.89 hPa
2021-04-26 04:50:12 6.68 ℃ 71.74 % 1024.9 hPa
2021-04-26 04:40:12 6.88 ℃ 70.13 % 1024.94 hPa
2021-04-26 04:30:12 7.12 ℃ 68.03 % 1025 hPa
2021-04-26 04:20:12 7.07 ℃ 68.87 % 1025.06 hPa
2021-04-26 04:10:12 7.13 ℃ 68.46 % 1025.19 hPa
2021-04-26 04:00:12 7.18 ℃ 68.72 % 1025.26 hPa
2021-04-26 03:50:12 7.3 ℃ 67.79 % 1025.34 hPa
2021-04-26 03:40:12 7.33 ℃ 67.37 % 1025.4 hPa
2021-04-26 03:30:12 7.3 ℃ 68.52 % 1025.47 hPa
2021-04-26 03:20:13 7.37 ℃ 67.73 % 1025.55 hPa
2021-04-26 03:10:12 7.23 ℃ 68.21 % 1025.63 hPa
2021-04-26 03:00:13 7.24 ℃ 68.6 % 1025.7 hPa
2021-04-26 02:50:13 7.65 ℃ 65.61 % 1025.75 hPa
2021-04-26 02:40:13 7.78 ℃ 64.44 % 1025.83 hPa
2021-04-26 02:30:13 7.85 ℃ 64.01 % 1025.91 hPa
2021-04-26 02:20:13 7.82 ℃ 64.08 % 1025.94 hPa
2021-04-26 02:10:13 8.12 ℃ 63.11 % 1025.99 hPa
2021-04-26 02:00:13 8.43 ℃ 59.31 % 1026.05 hPa
2021-04-26 01:50:13 8.54 ℃ 58.15 % 1026.11 hPa
2021-04-26 01:40:13 8.65 ℃ 58.87 % 1026.18 hPa
2021-04-26 01:30:13 8.66 ℃ 58.75 % 1026.19 hPa
2021-04-26 01:20:13 8.52 ℃ 59.52 % 1026.23 hPa
2021-04-26 01:10:13 8.33 ℃ 61.62 % 1026.27 hPa
2021-04-26 01:00:13 8.16 ℃ 62.7 % 1026.28 hPa
2021-04-26 00:50:13 8.02 ℃ 64.55 % 1026.33 hPa
2021-04-26 00:40:13 8.11 ℃ 62.84 % 1026.41 hPa
2021-04-26 00:40:13 7.86 ℃ 64.57 % 1026.45 hPa
2021-04-26 00:20:13 7.35 ℃ 67.08 % 1026.49 hPa
2021-04-26 00:10:13 7.41 ℃ 67 % 1026.51 hPa
2021-04-26 00:00:13 6.91 ℃ 70.15 % 1026.54 hPa
2021-04-25 23:50:13 6.87 ℃ 71.12 % 1026.53 hPa
2021-04-25 23:40:13 7.05 ℃ 70.24 % 1026.55 hPa
2021-04-25 23:30:13 6.98 ℃ 71.38 % 1026.63 hPa
2021-04-25 23:20:13 7.13 ℃ 70.34 % 1026.65 hPa
2021-04-25 23:10:13 7.05 ℃ 71 % 1026.73 hPa
2021-04-25 23:00:13 7.06 ℃ 69.99 % 1026.81 hPa
2021-04-25 22:50:13 7.12 ℃ 69.87 % 1026.85 hPa
2021-04-25 22:40:13 7.15 ℃ 70.52 % 1026.85 hPa
2021-04-25 22:30:13 7.18 ℃ 70.77 % 1026.88 hPa
2021-04-25 22:20:13 7.31 ℃ 69.89 % 1026.87 hPa
2021-04-25 22:10:13 7.54 ℃ 67.33 % 1026.87 hPa
2021-04-25 22:00:13 7.69 ℃ 63.78 % 1026.87 hPa
2021-04-25 21:50:13 7.96 ℃ 59.02 % 1026.83 hPa
2021-04-25 21:40:13 8.57 ℃ 49.58 % 1026.71 hPa
2021-04-25 21:30:13 9.61 ℃ 36.04 % 1026.54 hPa
2021-04-25 21:20:13 9.66 ℃ 36.06 % 1026.45 hPa
2021-04-25 21:10:13 9.75 ℃ 35.9 % 1026.44 hPa
2021-04-25 21:00:13 9.92 ℃ 35.44 % 1026.41 hPa
2021-04-25 20:50:13 10.08 ℃ 34.82 % 1026.36 hPa
2021-04-25 20:40:13 9.94 ℃ 34.6 % 1026.34 hPa
2021-04-25 20:30:13 9.79 ℃ 34.61 % 1026.35 hPa
2021-04-25 20:20:13 9.67 ℃ 34.99 % 1026.38 hPa
2021-04-25 20:10:13 9.73 ℃ 34.98 % 1026.39 hPa
2021-04-25 20:00:13 9.95 ℃ 34.89 % 1026.42 hPa
2021-04-25 19:50:13 9.93 ℃ 35.14 % 1026.41 hPa
2021-04-25 19:40:13 9.64 ℃ 35.67 % 1026.43 hPa
2021-04-25 19:30:13 9.8 ℃ 35.3 % 1026.43 hPa
2021-04-25 19:20:13 9.67 ℃ 35.16 % 1026.45 hPa
2021-04-25 19:10:13 9.56 ℃ 34.91 % 1026.5 hPa
2021-04-25 19:00:13 9.55 ℃ 34.56 % 1026.58 hPa
2021-04-25 18:50:13 9.49 ℃ 34.4 % 1026.65 hPa
2021-04-25 18:40:13 9.54 ℃ 34.25 % 1026.71 hPa
2021-04-25 18:30:13 9.73 ℃ 33.87 % 1026.74 hPa
2021-04-25 18:20:13 9.77 ℃ 33.8 % 1026.75 hPa
2021-04-25 18:10:13 9.66 ℃ 33.95 % 1026.8 hPa
2021-04-25 18:00:13 9.68 ℃ 33.71 % 1026.83 hPa
2021-04-25 17:50:13 9.6 ℃ 33.42 % 1026.86 hPa
2021-04-25 17:40:13 9.64 ℃ 33.27 % 1026.95 hPa
2021-04-25 17:30:14 9.74 ℃ 32.77 % 1027.03 hPa
2021-04-25 17:20:13 9.7 ℃ 32.34 % 1027.11 hPa
2021-04-25 17:10:13 9.71 ℃ 32.07 % 1027.19 hPa
2021-04-25 17:00:13 9.31 ℃ 31.88 % 1027.29 hPa
2021-04-25 16:50:14 9.27 ℃ 31.26 % 1027.35 hPa
2021-04-25 16:40:14 9.34 ℃ 31.49 % 1027.41 hPa
2021-04-25 16:30:14 9.44 ℃ 31.5 % 1027.45 hPa
2021-04-25 16:20:14 9.4 ℃ 31.92 % 1027.57 hPa
2021-04-25 16:10:14 9.37 ℃ 31.88 % 1027.62 hPa
2021-04-25 16:00:14 9.66 ℃ 32.45 % 1027.66 hPa
2021-04-25 15:50:14 9.55 ℃ 33.1 % 1027.71 hPa
2021-04-25 15:40:14 9.79 ℃ 32.59 % 1027.74 hPa
2021-04-25 15:30:14 9.86 ℃ 32.61 % 1027.73 hPa
2021-04-25 15:20:14 9.58 ℃ 32.51 % 1027.81 hPa
2021-04-25 15:10:14 9.77 ℃ 31.91 % 1027.8 hPa
2021-04-25 15:00:14 9.69 ℃ 31.88 % 1027.93 hPa
2021-04-25 14:50:14 9.67 ℃ 31.38 % 1028 hPa
2021-04-25 14:40:14 9.43 ℃ 31.28 % 1028.02 hPa
2021-04-25 14:30:14 9.59 ℃ 31 % 1028.07 hPa
2021-04-25 14:20:14 9.72 ℃ 30.22 % 1028.13 hPa
2021-04-25 14:10:14 9.71 ℃ 29.57 % 1028.04 hPa
2021-04-25 14:00:14 9.48 ℃ 29.29 % 1027.98 hPa
2021-04-25 13:50:14 9.77 ℃ 31.49 % 1027.95 hPa
2021-04-25 13:40:14 9.85 ℃ 32.3 % 1027.92 hPa
2021-04-25 13:30:14 9.68 ℃ 32.57 % 1027.97 hPa
2021-04-25 13:20:14 9.76 ℃ 33.07 % 1028 hPa
2021-04-25 13:10:14 9.81 ℃ 32.74 % 1027.99 hPa
2021-04-25 13:00:14 9.94 ℃ 32.58 % 1027.93 hPa
2021-04-25 12:50:14 9.55 ℃ 32.02 % 1027.96 hPa
2021-04-25 12:40:14 9.43 ℃ 31.72 % 1027.97 hPa
2021-04-25 12:30:14 9.38 ℃ 32.15 % 1027.94 hPa
2021-04-25 12:20:14 9.28 ℃ 33.61 % 1027.9 hPa
2021-04-25 12:10:14 9.18 ℃ 33.66 % 1027.86 hPa
2021-04-25 12:00:14 9.07 ℃ 34.85 % 1027.85 hPa
2021-04-25 11:50:14 9.25 ℃ 36.67 % 1027.88 hPa
2021-04-25 11:40:15 9.05 ℃ 37.93 % 1027.89 hPa
2021-04-25 11:30:15 8.73 ℃ 39.1 % 1027.86 hPa
2021-04-25 11:20:14 8.72 ℃ 42.07 % 1027.9 hPa
2021-04-25 11:10:14 8.8 ℃ 41.21 % 1027.91 hPa
2021-04-25 11:00:14 8.84 ℃ 41.21 % 1027.87 hPa
2021-04-25 10:50:14 8.88 ℃ 37.89 % 1027.87 hPa
2021-04-25 10:40:14 8.65 ℃ 37.34 % 1027.79 hPa
2021-04-25 10:30:14 8.59 ℃ 37.86 % 1027.77 hPa
2021-04-25 10:20:14 8.51 ℃ 41.58 % 1027.69 hPa
2021-04-25 10:10:14 8.74 ℃ 42.43 % 1027.66 hPa
2021-04-25 10:00:14 8.68 ℃ 44.67 % 1027.64 hPa
2021-04-25 09:50:14 8.55 ℃ 46.21 % 1027.59 hPa
2021-04-25 09:40:14 8.49 ℃ 50.68 % 1027.54 hPa
2021-04-25 09:30:14 8.47 ℃ 55.4 % 1027.49 hPa
2021-04-25 09:20:14 8.34 ℃ 58.27 % 1027.41 hPa
2021-04-25 09:10:14 7.91 ℃ 62.47 % 1027.4 hPa
2021-04-25 09:00:14 7.85 ℃ 67.38 % 1027.33 hPa
2021-04-25 08:50:14 7.67 ℃ 77.78 % 1027.31 hPa
2021-04-25 08:40:14 7.95 ℃ 81.58 % 1027.23 hPa
2021-04-25 08:30:14 7.98 ℃ 84.3 % 1027.13 hPa
2021-04-25 08:20:14 7.99 ℃ 88.93 % 1027.03 hPa
2021-04-25 08:10:14 7.42 ℃ 91.71 % 1026.96 hPa
2021-04-25 08:00:14 6.99 ℃ 93.77 % 1026.92 hPa
2021-04-25 07:50:14 6.78 ℃ 94.23 % 1026.84 hPa
2021-04-25 07:40:14 6.61 ℃ 92.74 % 1026.78 hPa
2021-04-25 07:30:14 6.47 ℃ 90.78 % 1026.74 hPa
2021-04-25 07:20:14 6.39 ℃ 89.84 % 1026.66 hPa
2021-04-25 07:10:14 5.79 ℃ 92.59 % 1026.62 hPa
2021-04-25 07:00:14 5.16 ℃ 96.33 % 1026.58 hPa
2021-04-25 06:50:15 4.59 ℃ 99.68 % 1026.54 hPa
2021-04-25 06:40:15 4.23 ℃ 100 % 1026.49 hPa
2021-04-25 06:30:15 4.1 ℃ 99.99 % 1026.43 hPa
2021-04-25 06:20:15 3.93 ℃ 99.99 % 1026.37 hPa
2021-04-25 06:10:14 3.59 ℃ 99.97 % 1026.31 hPa
2021-04-25 06:00:15 3.31 ℃ 99.95 % 1026.25 hPa
2021-04-25 05:50:15 3.26 ℃ 99.89 % 1026.17 hPa
2021-04-25 05:40:15 3.34 ℃ 99.78 % 1026.11 hPa
2021-04-25 05:30:15 3.35 ℃ 99.56 % 1026.07 hPa
2021-04-25 05:20:15 3.42 ℃ 99.12 % 1026.07 hPa
2021-04-25 05:10:15 3.62 ℃ 98.25 % 1026.06 hPa
2021-04-25 05:00:15 3.64 ℃ 97.57 % 1026.09 hPa
2021-04-25 04:50:15 3.79 ℃ 96.96 % 1026.09 hPa
2021-04-25 04:40:15 3.81 ℃ 97.06 % 1026.14 hPa
2021-04-25 04:30:15 3.86 ℃ 97.23 % 1026.12 hPa
2021-04-25 04:20:15 3.84 ℃ 98.19 % 1026.1 hPa
2021-04-25 04:10:15 3.71 ℃ 97.61 % 1026.08 hPa
2021-04-25 04:00:15 3.66 ℃ 96.34 % 1026.06 hPa
2021-04-25 03:50:15 3.77 ℃ 95.24 % 1026.04 hPa
2021-04-25 03:40:15 3.95 ℃ 93.96 % 1026.02 hPa
2021-04-25 03:30:15 3.91 ℃ 93.12 % 1026.04 hPa
2021-04-25 03:20:15 3.99 ℃ 91.85 % 1026.03 hPa
2021-04-25 03:10:15 4.17 ℃ 90.62 % 1026.07 hPa
2021-04-25 03:00:15 4.43 ℃ 89.34 % 1026.12 hPa
2021-04-25 02:50:15 4.57 ℃ 88.93 % 1026.15 hPa
2021-04-25 02:40:15 4.63 ℃ 88.06 % 1026.19 hPa
2021-04-25 02:30:15 5.01 ℃ 85.58 % 1026.18 hPa
2021-04-25 02:20:15 5.15 ℃ 84.89 % 1026.23 hPa
2021-04-25 02:10:15 4.63 ℃ 87.48 % 1026.32 hPa
2021-04-25 02:00:15 4.65 ℃ 87.5 % 1026.32 hPa
2021-04-25 01:50:15 4.72 ℃ 88 % 1026.34 hPa
2021-04-25 01:40:15 4.76 ℃ 86.95 % 1026.36 hPa
2021-04-25 01:30:15 4.82 ℃ 86.04 % 1026.38 hPa
2021-04-25 01:20:15 4.86 ℃ 86.03 % 1026.41 hPa
2021-04-25 01:10:15 4.86 ℃ 86.87 % 1026.39 hPa
2021-04-25 01:00:15 5 ℃ 85.85 % 1026.36 hPa
2021-04-25 00:50:15 5.14 ℃ 85.44 % 1026.37 hPa
2021-04-25 00:40:15 5.18 ℃ 85.47 % 1026.38 hPa
2021-04-25 00:30:15 5.31 ℃ 84.78 % 1026.4 hPa
2021-04-25 00:20:16 5.51 ℃ 83.44 % 1026.42 hPa
2021-04-25 00:10:15 5.92 ℃ 80.71 % 1026.43 hPa
2021-04-25 00:00:15 6.06 ℃ 79.35 % 1026.5 hPa
2021-04-24 23:50:17 6.27 ℃ 77.79 % 1026.52 hPa
2021-04-24 23:40:16 6.42 ℃ 76.98 % 1026.55 hPa
2021-04-24 23:30:15 6.54 ℃ 75.58 % 1026.57 hPa
2021-04-24 23:20:15 6.58 ℃ 74.43 % 1026.55 hPa
2021-04-24 23:10:15 6.6 ℃ 74.43 % 1026.52 hPa
2021-04-24 23:00:15 6.85 ℃ 73.56 % 1026.48 hPa
2021-04-24 22:50:15 7.03 ℃ 72.35 % 1026.4 hPa
2021-04-24 22:40:15 7.34 ℃ 70.56 % 1026.34 hPa
2021-04-24 22:30:15 7.59 ℃ 68.46 % 1026.31 hPa
2021-04-24 22:20:15 7.76 ℃ 67.02 % 1026.28 hPa
2021-04-24 22:10:15 8.12 ℃ 64.57 % 1026.26 hPa
2021-04-24 22:00:15 8.13 ℃ 63.55 % 1026.21 hPa
2021-04-24 21:50:15 8.29 ℃ 62.11 % 1026.18 hPa
2021-04-24 21:40:15 8.67 ℃ 59.46 % 1026.12 hPa
2021-04-24 21:30:15 8.85 ℃ 57.82 % 1026.06 hPa
2021-04-24 21:20:15 9.13 ℃ 55.5 % 1026.01 hPa
2021-04-24 21:10:15 9.42 ℃ 52.87 % 1025.93 hPa
2021-04-24 21:00:15 9.6 ℃ 50.19 % 1025.85 hPa
2021-04-24 20:50:15 9.95 ℃ 46.95 % 1025.8 hPa
2021-04-24 20:40:15 10.38 ℃ 44.19 % 1025.69 hPa
2021-04-24 20:30:15 10.51 ℃ 42.92 % 1025.69 hPa
2021-04-24 20:20:15 10.59 ℃ 41.41 % 1025.66 hPa
2021-04-24 20:10:15 10.59 ℃ 40.39 % 1025.7 hPa
2021-04-24 20:00:16 10.87 ℃ 38.81 % 1025.66 hPa
2021-04-24 19:50:15 10.96 ℃ 38.33 % 1025.62 hPa
2021-04-24 19:40:16 11.03 ℃ 38.15 % 1025.6 hPa
2021-04-24 19:30:15 10.97 ℃ 38.1 % 1025.6 hPa
2021-04-24 19:20:16 11.09 ℃ 38.05 % 1025.62 hPa
2021-04-24 19:10:16 11.18 ℃ 38.6 % 1025.61 hPa
2021-04-24 19:00:16 11.09 ℃ 38.51 % 1025.66 hPa
2021-04-24 18:50:16 11.1 ℃ 38.67 % 1025.69 hPa
2021-04-24 18:40:16 10.94 ℃ 39.2 % 1025.72 hPa
2021-04-24 18:30:16 10.89 ℃ 39.55 % 1025.78 hPa
2021-04-24 18:20:16 10.85 ℃ 40.05 % 1025.84 hPa
2021-04-24 18:10:16 10.65 ℃ 40.99 % 1025.93 hPa
2021-04-24 18:00:16 10.75 ℃ 41.16 % 1026.02 hPa
2021-04-24 17:50:16 10.67 ℃ 41.53 % 1026.13 hPa
2021-04-24 17:40:16 10.47 ℃ 42.31 % 1026.21 hPa
2021-04-24 17:30:16 10.28 ℃ 43.58 % 1026.33 hPa
2021-04-24 17:20:16 10.58 ℃ 43.68 % 1026.36 hPa
2021-04-24 17:10:16 10.29 ℃ 44.01 % 1026.51 hPa
2021-04-24 17:00:16 10.18 ℃ 44.45 % 1026.57 hPa
2021-04-24 16:50:16 10.14 ℃ 44.53 % 1026.66 hPa
2021-04-24 16:40:16 10.25 ℃ 43.71 % 1026.75 hPa
2021-04-24 16:30:16 10.44 ℃ 43.11 % 1026.79 hPa
2021-04-24 16:20:16 10.52 ℃ 42.88 % 1026.85 hPa
2021-04-24 16:10:16 10.59 ℃ 42.08 % 1026.9 hPa
2021-04-24 16:00:16 10.79 ℃ 41.46 % 1026.94 hPa
2021-04-24 15:50:16 10.7 ℃ 41.29 % 1027.02 hPa
2021-04-24 15:40:16 10.57 ℃ 40.21 % 1027.12 hPa
2021-04-24 15:30:16 10.75 ℃ 38.91 % 1027.15 hPa
2021-04-24 15:20:16 10.81 ℃ 38.24 % 1027.16 hPa
2021-04-24 15:10:16 10.61 ℃ 38.68 % 1027.23 hPa
2021-04-24 15:00:16 10.58 ℃ 39.62 % 1027.29 hPa
2021-04-24 14:50:16 11.09 ℃ 41.09 % 1027.32 hPa
2021-04-24 14:40:16 10.98 ℃ 41.7 % 1027.37 hPa
2021-04-24 14:30:16 11.21 ℃ 39.81 % 1027.39 hPa
2021-04-24 14:20:16 11.2 ℃ 40.15 % 1027.46 hPa
2021-04-24 14:10:16 10.93 ℃ 40.23 % 1027.56 hPa
2021-04-24 14:00:16 10.93 ℃ 40.64 % 1027.5 hPa
2021-04-24 13:50:16 10.75 ℃ 41.64 % 1027.52 hPa
2021-04-24 13:40:16 10.95 ℃ 41.61 % 1027.53 hPa
2021-04-24 13:30:16 11.09 ℃ 41.83 % 1027.53 hPa
2021-04-24 13:20:16 10.65 ℃ 42.41 % 1027.52 hPa
2021-04-24 13:10:16 10.66 ℃ 41.21 % 1027.49 hPa
2021-04-24 13:00:16 10.7 ℃ 40.21 % 1027.51 hPa
2021-04-24 12:50:16 10.21 ℃ 42.93 % 1027.57 hPa
2021-04-24 12:40:16 9.98 ℃ 45.74 % 1027.63 hPa
2021-04-24 12:30:16 10.18 ℃ 50.1 % 1027.59 hPa
2021-04-24 12:20:16 9.97 ℃ 52.29 % 1027.62 hPa
2021-04-24 12:10:16 10.2 ℃ 49.85 % 1027.56 hPa
2021-04-24 12:00:16 10.13 ℃ 56.35 % 1027.61 hPa
2021-04-24 11:50:16 10.3 ℃ 66.74 % 1027.63 hPa
2021-04-24 11:40:16 10.37 ℃ 69.65 % 1027.6 hPa
2021-04-24 11:30:16 10.07 ℃ 72.67 % 1027.6 hPa
2021-04-24 11:20:16 10.02 ℃ 75.73 % 1027.59 hPa
2021-04-24 11:10:16 9.81 ℃ 82.7 % 1027.61 hPa
2021-04-24 11:00:16 9.4 ℃ 85.28 % 1027.59 hPa
2021-04-24 10:50:16 9.08 ℃ 87.48 % 1027.55 hPa
2021-04-24 10:40:16 9.07 ℃ 88.5 % 1027.53 hPa
2021-04-24 10:30:16 8.94 ℃ 89.9 % 1027.46 hPa
2021-04-24 10:20:16 8.97 ℃ 90.83 % 1027.41 hPa
2021-04-24 10:10:16 8.82 ℃ 92.99 % 1027.37 hPa
2021-04-24 10:00:16 9.15 ℃ 94.53 % 1027.32 hPa
2021-04-24 09:50:16 9.03 ℃ 99.55 % 1027.2 hPa
2021-04-24 09:40:16 7.86 ℃ 99.1 % 1027.24 hPa
2021-04-24 09:30:17 7.36 ℃ 100 % 1027.25 hPa
2021-04-24 09:20:17 7.18 ℃ 100 % 1027.23 hPa
2021-04-24 09:10:16 6.78 ℃ 100 % 1027.25 hPa
2021-04-24 09:00:17 6.57 ℃ 100 % 1027.18 hPa
2021-04-24 08:50:17 6.55 ℃ 100 % 1027.09 hPa
2021-04-24 08:40:17 6.59 ℃ 100 % 1027.04 hPa
2021-04-24 08:30:16 6.67 ℃ 100 % 1026.99 hPa
2021-04-24 08:20:17 6.73 ℃ 100 % 1026.96 hPa
2021-04-24 08:10:17 6.86 ℃ 100 % 1026.86 hPa
2021-04-24 08:00:17 6.75 ℃ 100 % 1026.81 hPa
2021-04-24 07:50:17 6.9 ℃ 100 % 1026.71 hPa
2021-04-24 07:40:17 7 ℃ 100 % 1026.64 hPa
2021-04-24 07:30:17 7.24 ℃ 100 % 1026.6 hPa
2021-04-24 07:20:17 7.17 ℃ 100 % 1026.59 hPa
2021-04-24 07:10:17 7.16 ℃ 100 % 1026.52 hPa
2021-04-24 07:00:17 6.42 ℃ 100 % 1026.45 hPa
2021-04-24 06:50:17 5.59 ℃ 100 % 1026.41 hPa
2021-04-24 06:40:17 5.47 ℃ 100 % 1026.39 hPa
2021-04-24 06:30:17 5.09 ℃ 100 % 1026.33 hPa
2021-04-24 06:20:17 4.95 ℃ 100 % 1026.33 hPa
2021-04-24 06:10:17 5 ℃ 100 % 1026.3 hPa
2021-04-24 06:00:17 5.06 ℃ 100 % 1026.26 hPa
2021-04-24 05:50:17 5.11 ℃ 100 % 1026.21 hPa
2021-04-24 05:40:17 5.38 ℃ 100 % 1026.17 hPa
2021-04-24 05:30:17 5.64 ℃ 100 % 1026.21 hPa
2021-04-24 05:20:17 5.47 ℃ 100 % 1026.24 hPa
2021-04-24 05:10:17 5.29 ℃ 100 % 1026.26 hPa
2021-04-24 05:00:17 5.4 ℃ 100 % 1026.23 hPa
2021-04-24 04:50:17 5.59 ℃ 100 % 1026.23 hPa
2021-04-24 04:40:17 5.71 ℃ 100 % 1026.27 hPa
2021-04-24 04:30:17 5.9 ℃ 100 % 1026.28 hPa
2021-04-24 04:20:17 5.91 ℃ 100 % 1026.31 hPa
2021-04-24 04:10:17 6.01 ℃ 100 % 1026.33 hPa
2021-04-24 04:00:17 5.97 ℃ 100 % 1026.33 hPa
2021-04-24 03:50:17 6.1 ℃ 100 % 1026.36 hPa
2021-04-24 03:40:17 5.93 ℃ 100 % 1026.42 hPa
2021-04-24 03:30:17 5.82 ℃ 100 % 1026.48 hPa
2021-04-24 03:20:17 5.85 ℃ 100 % 1026.52 hPa
2021-04-24 03:10:17 5.97 ℃ 100 % 1026.59 hPa
2021-04-24 03:00:17 6.09 ℃ 100 % 1026.68 hPa
2021-04-24 02:50:17 6.17 ℃ 100 % 1026.73 hPa
2021-04-24 02:40:17 6.06 ℃ 100 % 1026.72 hPa
2021-04-24 02:30:17 6.27 ℃ 100 % 1026.77 hPa
2021-04-24 02:20:17 6.07 ℃ 100 % 1026.82 hPa
2021-04-24 02:10:17 6.29 ℃ 100 % 1026.88 hPa
2021-04-24 02:00:17 6.36 ℃ 100 % 1026.9 hPa
2021-04-24 01:50:17 6.37 ℃ 100 % 1026.95 hPa
2021-04-24 01:40:17 6.4 ℃ 100 % 1026.99 hPa
2021-04-24 01:30:17 6.32 ℃ 100 % 1026.98 hPa
2021-04-24 01:20:17 6.28 ℃ 100 % 1026.95 hPa
2021-04-24 01:10:17 6.48 ℃ 100 % 1026.95 hPa
2021-04-24 01:00:17 6.46 ℃ 100 % 1027.02 hPa
2021-04-24 00:50:17 6.46 ℃ 100 % 1027.07 hPa
2021-04-24 00:40:18 6.65 ℃ 100 % 1027.11 hPa
2021-04-24 00:30:18 6.93 ℃ 99.99 % 1027.19 hPa
2021-04-24 00:20:18 6.95 ℃ 99.98 % 1027.24 hPa
2021-04-24 00:10:17 6.93 ℃ 99.97 % 1027.27 hPa
2021-04-24 00:00:17 7 ℃ 99.94 % 1027.3 hPa
2021-04-23 23:50:18 7.12 ℃ 99.88 % 1027.32 hPa
2021-04-23 23:40:17 7.28 ℃ 99.76 % 1027.3 hPa
2021-04-23 23:30:17 7.27 ℃ 99.51 % 1027.35 hPa
2021-04-23 23:20:17 7.33 ℃ 99.03 % 1027.39 hPa
2021-04-23 23:10:17 7.54 ℃ 98.05 % 1027.43 hPa
2021-04-23 23:00:17 7.65 ℃ 96.57 % 1027.48 hPa
2021-04-23 22:50:18 7.73 ℃ 95.55 % 1027.5 hPa
2021-04-23 22:40:18 7.91 ℃ 93.29 % 1027.49 hPa
2021-04-23 22:30:18 7.85 ℃ 92.59 % 1027.47 hPa
2021-04-23 22:20:18 7.91 ℃ 91.4 % 1027.51 hPa
2021-04-23 22:10:18 7.95 ℃ 89.39 % 1027.56 hPa
2021-04-23 22:00:18 8.21 ℃ 85.83 % 1027.59 hPa
2021-04-23 21:50:18 8.46 ℃ 82.14 % 1027.6 hPa
2021-04-23 21:40:18 8.47 ℃ 77.91 % 1027.55 hPa
2021-04-23 21:30:18 8.71 ℃ 73.79 % 1027.5 hPa
2021-04-23 21:20:18 8.96 ℃ 69.89 % 1027.49 hPa
2021-04-23 21:10:18 9.04 ℃ 66.94 % 1027.39 hPa
2021-04-23 21:00:18 9.13 ℃ 63.86 % 1027.34 hPa
2021-04-23 20:50:18 9.36 ℃ 59.79 % 1027.27 hPa
2021-04-23 20:40:18 9.64 ℃ 55.99 % 1027.21 hPa
2021-04-23 20:30:18 9.83 ℃ 54.7 % 1027.17 hPa
2021-04-23 20:20:18 10.05 ℃ 53.97 % 1027.09 hPa
2021-04-23 20:10:18 10.29 ℃ 52.13 % 1027.05 hPa
2021-04-23 20:00:18 10.5 ℃ 50.97 % 1026.98 hPa
2021-04-23 19:50:18 10.81 ℃ 51.67 % 1026.94 hPa
2021-04-23 19:40:18 11.12 ℃ 50.15 % 1026.9 hPa
2021-04-23 19:30:18 11.53 ℃ 47.52 % 1026.83 hPa
2021-04-23 19:20:18 11.75 ℃ 45.98 % 1026.77 hPa
2021-04-23 19:10:18 11.83 ℃ 45.14 % 1026.76 hPa
2021-04-23 19:00:18 11.95 ℃ 46.05 % 1026.75 hPa
2021-04-23 18:50:18 12.11 ℃ 48.32 % 1026.75 hPa
2021-04-23 18:40:18 12.4 ℃ 49.86 % 1026.76 hPa
2021-04-23 18:30:18 12.53 ℃ 48.68 % 1026.78 hPa
2021-04-23 18:20:18 12.54 ℃ 47.5 % 1026.78 hPa
2021-04-23 18:10:18 12.77 ℃ 46.23 % 1026.74 hPa
2021-04-23 18:00:18 13.09 ℃ 45.54 % 1026.7 hPa
2021-04-23 17:50:18 13.41 ℃ 44.17 % 1026.66 hPa
2021-04-23 17:40:18 13.94 ℃ 42.12 % 1026.68 hPa
2021-04-23 17:30:18 14.08 ℃ 41.89 % 1026.71 hPa
2021-04-23 17:20:18 13.81 ℃ 41.64 % 1026.73 hPa
2021-04-23 17:10:18 13.98 ℃ 40.97 % 1026.79 hPa
2021-04-23 17:00:18 14.41 ℃ 39.67 % 1026.79 hPa
2021-04-23 16:50:18 14.55 ℃ 39.41 % 1026.79 hPa
2021-04-23 16:40:18 14.85 ℃ 39.13 % 1026.78 hPa
2021-04-23 16:30:18 14.37 ℃ 38.02 % 1026.86 hPa
2021-04-23 16:20:18 14.18 ℃ 38.92 % 1026.9 hPa
2021-04-23 16:10:18 14.4 ℃ 38.36 % 1026.95 hPa
2021-04-23 16:00:18 14.53 ℃ 38.25 % 1026.92 hPa
2021-04-23 15:50:18 14.4 ℃ 38.16 % 1026.94 hPa
2021-04-23 15:40:18 13.78 ℃ 39.36 % 1027.01 hPa
2021-04-23 15:30:18 13.3 ℃ 39.65 % 1027.09 hPa
2021-04-23 15:20:18 13.3 ℃ 39.34 % 1027.14 hPa
2021-04-23 15:10:18 12.92 ℃ 39.83 % 1027.22 hPa
2021-04-23 15:00:18 13.06 ℃ 38.87 % 1027.16 hPa
2021-04-23 14:50:18 13.23 ℃ 37.19 % 1027.07 hPa
2021-04-23 14:40:18 13.48 ℃ 35.88 % 1027.07 hPa
2021-04-23 14:30:18 13.69 ℃ 35.5 % 1027.04 hPa
2021-04-23 14:20:18 13.64 ℃ 36.05 % 1027.08 hPa
2021-04-23 14:10:18 13.22 ℃ 35.13 % 1027.14 hPa
2021-04-23 14:00:18 13.33 ℃ 35.03 % 1027.21 hPa
2021-04-23 13:50:18 13.16 ℃ 35.81 % 1027.09 hPa
2021-04-23 13:40:18 12.99 ℃ 36.41 % 1027.09 hPa
2021-04-23 13:30:18 12.79 ℃ 36.85 % 1027.08 hPa
2021-04-23 13:20:18 13.09 ℃ 36.77 % 1027.09 hPa
2021-04-23 13:10:18 13.03 ℃ 37.2 % 1027.17 hPa
2021-04-23 13:00:18 12.48 ℃ 38.06 % 1027.19 hPa
2021-04-23 12:50:18 12.16 ℃ 37.82 % 1027.18 hPa
2021-04-23 12:40:18 12.19 ℃ 37.76 % 1027.15 hPa
2021-04-23 12:30:18 11.8 ℃ 38.12 % 1027.18 hPa
2021-04-23 12:20:18 11.85 ℃ 38.23 % 1027.14 hPa
2021-04-23 12:10:18 11.95 ℃ 38.77 % 1027.05 hPa
2021-04-23 12:00:18 11.98 ℃ 39.11 % 1026.99 hPa
2021-04-23 11:50:19 11.62 ℃ 39.21 % 1026.96 hPa
2021-04-23 11:40:19 11.37 ℃ 39.45 % 1026.88 hPa
2021-04-23 11:30:19 11.21 ℃ 39.94 % 1026.93 hPa
2021-04-23 11:20:19 10.92 ℃ 41.88 % 1026.95 hPa
2021-04-23 11:10:19 11 ℃ 43.25 % 1026.93 hPa
2021-04-23 11:00:19 10.73 ℃ 44.73 % 1026.91 hPa
2021-04-23 10:50:19 10.31 ℃ 46.26 % 1026.91 hPa
2021-04-23 10:40:19 10.44 ℃ 48.64 % 1026.89 hPa
2021-04-23 10:30:19 10.33 ℃ 53.53 % 1026.8 hPa
2021-04-23 10:20:19 10.32 ℃ 58.57 % 1026.77 hPa
2021-04-23 10:10:19 10.25 ℃ 65.16 % 1026.74 hPa
2021-04-23 10:00:19 10.2 ℃ 67.67 % 1026.69 hPa
2021-04-23 09:50:19 9.87 ℃ 72.34 % 1026.6 hPa
2021-04-23 09:40:19 9.75 ℃ 73.92 % 1026.5 hPa
2021-04-23 09:30:19 9.53 ℃ 76.52 % 1026.4 hPa
2021-04-23 09:20:19 9.13 ℃ 79.66 % 1026.35 hPa
2021-04-23 09:10:19 9.2 ℃ 83.12 % 1026.25 hPa
2021-04-23 09:00:19 8.91 ℃ 86.14 % 1026.13 hPa
2021-04-23 08:50:19 8.56 ℃ 89.3 % 1026.06 hPa
2021-04-23 08:40:19 8.3 ℃ 92 % 1026 hPa
2021-04-23 08:30:19 8.26 ℃ 94.69 % 1025.89 hPa
2021-04-23 08:20:19 8.01 ℃ 96.59 % 1025.8 hPa
2021-04-23 08:10:19 7.67 ℃ 98.48 % 1025.69 hPa
2021-04-23 08:00:19 7.44 ℃ 100 % 1025.63 hPa
2021-04-23 07:50:19 7.37 ℃ 100 % 1025.59 hPa
2021-04-23 07:40:19 7.31 ℃ 100 % 1025.5 hPa
2021-04-23 07:30:19 6.77 ℃ 100 % 1025.41 hPa
2021-04-23 07:20:19 6.65 ℃ 100 % 1025.23 hPa
2021-04-23 07:10:19 6.32 ℃ 100 % 1025.1 hPa
2021-04-23 07:00:19 6.04 ℃ 100 % 1024.99 hPa
2021-04-23 06:50:19 5.81 ℃ 100 % 1024.89 hPa
2021-04-23 06:40:19 5.74 ℃ 100 % 1024.79 hPa
2021-04-23 06:30:19 5.79 ℃ 100 % 1024.67 hPa
2021-04-23 06:20:19 5.65 ℃ 100 % 1024.54 hPa
2021-04-23 06:10:19 5.68 ℃ 100 % 1024.41 hPa
2021-04-23 06:00:19 5.26 ℃ 100 % 1024.36 hPa
2021-04-23 05:50:19 5.15 ℃ 100 % 1024.32 hPa
2021-04-23 05:40:19 5.29 ℃ 100 % 1024.2 hPa
2021-04-23 05:30:19 5.35 ℃ 100 % 1024.14 hPa
2021-04-23 05:20:19 5.29 ℃ 100 % 1024.11 hPa
2021-04-23 05:10:19 5.25 ℃ 100 % 1024.06 hPa
2021-04-23 05:00:19 5.3 ℃ 100 % 1024.03 hPa
2021-04-23 04:50:19 5.37 ℃ 100 % 1024 hPa
2021-04-23 04:40:19 5.54 ℃ 100 % 1023.94 hPa
2021-04-23 04:30:19 5.69 ℃ 100 % 1023.91 hPa
2021-04-23 04:20:20 5.72 ℃ 100 % 1023.89 hPa
2021-04-23 04:10:19 5.86 ℃ 100 % 1023.85 hPa
2021-04-23 04:00:19 5.86 ℃ 100 % 1023.76 hPa
2021-04-23 03:50:19 5.84 ℃ 100 % 1023.69 hPa
2021-04-23 03:40:19 5.88 ℃ 100 % 1023.69 hPa
2021-04-23 03:30:19 6.06 ℃ 100 % 1023.7 hPa
2021-04-23 03:20:20 6.28 ℃ 100 % 1023.68 hPa
2021-04-23 03:10:19 6.3 ℃ 100 % 1023.66 hPa
2021-04-23 03:00:19 6.11 ℃ 100 % 1023.62 hPa
2021-04-23 02:50:19 6.13 ℃ 100 % 1023.62 hPa
2021-04-23 02:40:19 6.23 ℃ 100 % 1023.61 hPa
2021-04-23 02:30:19 6.53 ℃ 100 % 1023.65 hPa
2021-04-23 02:20:19 6.5 ℃ 100 % 1023.66 hPa
2021-04-23 02:10:19 6.39 ℃ 100 % 1023.61 hPa
2021-04-23 02:00:19 6.43 ℃ 100 % 1023.62 hPa
2021-04-23 01:50:19 6.3 ℃ 100 % 1023.6 hPa
2021-04-23 01:40:19 6.33 ℃ 100 % 1023.61 hPa
2021-04-23 01:30:19 6.37 ℃ 100 % 1023.61 hPa
2021-04-23 01:20:20 6.32 ℃ 100 % 1023.57 hPa
2021-04-23 01:10:20 6.39 ℃ 100 % 1023.57 hPa
2021-04-23 01:00:20 6.34 ℃ 100 % 1023.55 hPa
2021-04-23 00:50:20 6.4 ℃ 100 % 1023.54 hPa
2021-04-23 00:40:20 6.51 ℃ 100 % 1023.57 hPa
2021-04-23 00:30:20 6.61 ℃ 100 % 1023.58 hPa
2021-04-23 00:20:20 6.61 ℃ 100 % 1023.63 hPa
2021-04-23 00:10:20 6.62 ℃ 100 % 1023.61 hPa
2021-04-23 00:00:20 6.63 ℃ 100 % 1023.62 hPa
2021-04-22 23:50:20 6.79 ℃ 100 % 1023.63 hPa
2021-04-22 23:40:20 6.8 ℃ 100 % 1023.58 hPa
2021-04-22 23:30:20 6.76 ℃ 100 % 1023.59 hPa
2021-04-22 23:20:20 6.78 ℃ 99.99 % 1023.61 hPa
2021-04-22 23:10:20 6.79 ℃ 99.98 % 1023.62 hPa
2021-04-22 23:00:20 6.9 ℃ 99.97 % 1023.6 hPa
2021-04-22 22:50:20 6.83 ℃ 99.94 % 1023.61 hPa
2021-04-22 22:40:20 6.92 ℃ 99.88 % 1023.6 hPa
2021-04-22 22:30:20 6.95 ℃ 99.76 % 1023.57 hPa
2021-04-22 22:20:20 6.97 ℃ 99.52 % 1023.53 hPa
2021-04-22 22:10:20 7.01 ℃ 99.03 % 1023.48 hPa
2021-04-22 22:00:20 7.1 ℃ 98.07 % 1023.43 hPa
2021-04-22 21:50:20 7.14 ℃ 96.98 % 1023.39 hPa
2021-04-22 21:40:20 7.21 ℃ 95.39 % 1023.38 hPa
2021-04-22 21:30:20 7.26 ℃ 93.68 % 1023.32 hPa
2021-04-22 21:20:20 7.41 ℃ 91.21 % 1023.24 hPa
2021-04-22 21:10:20 7.48 ℃ 89.7 % 1023.14 hPa
2021-04-22 21:00:20 7.69 ℃ 87.67 % 1023.02 hPa
2021-04-22 20:50:20 7.83 ℃ 85.91 % 1022.93 hPa
2021-04-22 20:40:20 7.86 ℃ 84.38 % 1022.85 hPa
2021-04-22 20:30:20 8.02 ℃ 81.39 % 1022.78 hPa
2021-04-22 20:20:20 8.22 ℃ 78.25 % 1022.7 hPa
2021-04-22 20:10:20 8.43 ℃ 75.8 % 1022.63 hPa
2021-04-22 20:00:20 8.51 ℃ 73.83 % 1022.51 hPa
2021-04-22 19:50:20 8.77 ℃ 72.13 % 1022.4 hPa
2021-04-22 19:40:20 8.9 ℃ 72.02 % 1022.32 hPa
2021-04-22 19:30:20 9.04 ℃ 70.84 % 1022.28 hPa
2021-04-22 19:20:20 9.17 ℃ 70.06 % 1022.26 hPa
2021-04-22 19:10:20 9.51 ℃ 69.21 % 1022.17 hPa
2021-04-22 19:00:20 9.62 ℃ 68.89 % 1022.08 hPa
2021-04-22 18:50:20 9.78 ℃ 67.85 % 1022.03 hPa
2021-04-22 18:40:20 9.87 ℃ 65.96 % 1021.98 hPa
2021-04-22 18:30:20 9.96 ℃ 66.21 % 1021.86 hPa
2021-04-22 18:20:20 10.21 ℃ 66.67 % 1021.85 hPa
2021-04-22 18:10:20 10.11 ℃ 67.18 % 1021.9 hPa
2021-04-22 18:00:20 10.13 ℃ 67.53 % 1021.83 hPa
2021-04-22 17:50:20 10.13 ℃ 68.16 % 1021.84 hPa
2021-04-22 17:40:20 10.26 ℃ 68.53 % 1021.85 hPa
2021-04-22 17:30:20 10.09 ℃ 69.96 % 1021.83 hPa
2021-04-22 17:20:20 10.16 ℃ 69.87 % 1021.81 hPa
2021-04-22 17:10:20 10.4 ℃ 68.55 % 1021.77 hPa
2021-04-22 17:00:20 10.46 ℃ 66.97 % 1021.68 hPa
2021-04-22 16:50:20 10.57 ℃ 64.79 % 1021.51 hPa
2021-04-22 16:40:20 10.55 ℃ 62.7 % 1021.65 hPa
2021-04-22 16:30:20 10.67 ℃ 60.47 % 1021.5 hPa
2021-04-22 16:20:20 10.75 ℃ 61.39 % 1021.44 hPa
2021-04-22 16:10:20 10.62 ℃ 61.98 % 1021.38 hPa
2021-04-22 16:00:20 10.47 ℃ 63.67 % 1021.39 hPa
2021-04-22 15:50:21 10.63 ℃ 64.61 % 1021.33 hPa
2021-04-22 15:40:20 10.59 ℃ 66.14 % 1021.41 hPa
2021-04-22 15:30:20 10.53 ℃ 67.42 % 1021.44 hPa
2021-04-22 15:20:20 10.07 ℃ 70.96 % 1021.5 hPa
2021-04-22 15:10:20 10.14 ℃ 72.08 % 1021.48 hPa
2021-04-22 15:00:21 10.16 ℃ 74.22 % 1021.45 hPa
2021-04-22 14:50:21 10.21 ℃ 71.97 % 1021.32 hPa
2021-04-22 14:40:30 10.66 ℃ 67.13 % 1021.25 hPa
2021-04-22 14:30:21 10.34 ℃ 67.42 % 1021.15 hPa
2021-04-22 14:20:21 10.29 ℃ 65.82 % 1021.11 hPa
2021-04-22 14:10:21 10.43 ℃ 64.11 % 1021.02 hPa
2021-04-22 14:00:21 10.45 ℃ 62.26 % 1020.99 hPa
2021-04-22 13:50:21 10.86 ℃ 60.3 % 1020.94 hPa
2021-04-22 13:40:21 10.69 ℃ 59.56 % 1020.9 hPa
2021-04-22 13:30:21 10.47 ℃ 61.34 % 1020.83 hPa
2021-04-22 13:20:21 10.67 ℃ 57.72 % 1020.75 hPa
2021-04-22 13:10:21 10.76 ℃ 56.04 % 1020.63 hPa
2021-04-22 13:00:21 11.01 ℃ 56.34 % 1020.6 hPa
2021-04-22 12:50:21 10.72 ℃ 55.62 % 1020.58 hPa
2021-04-22 12:40:21 10.48 ℃ 54.83 % 1020.51 hPa
2021-04-22 12:30:21 10.6 ℃ 52.66 % 1020.42 hPa
2021-04-22 12:20:21 10.78 ℃ 49.01 % 1020.4 hPa
2021-04-22 12:10:21 10.97 ℃ 47.5 % 1020.4 hPa
2021-04-22 12:00:21 10.74 ℃ 49.42 % 1020.41 hPa
2021-04-22 11:50:21 10.71 ℃ 50.94 % 1020.37 hPa
2021-04-22 11:40:21 10.67 ℃ 51.63 % 1020.33 hPa
2021-04-22 11:30:21 10.64 ℃ 52.75 % 1020.31 hPa
2021-04-22 11:20:21 10.31 ℃ 54.5 % 1020.34 hPa
2021-04-22 11:10:21 10.29 ℃ 57.2 % 1020.29 hPa
2021-04-22 11:00:21 9.95 ℃ 60.33 % 1020.24 hPa
2021-04-22 10:50:21 9.85 ℃ 60.92 % 1020.16 hPa
2021-04-22 10:40:21 10.18 ℃ 61.86 % 1020.02 hPa
2021-04-22 10:30:21 10.06 ℃ 63.04 % 1019.98 hPa
2021-04-22 10:20:21 9.93 ℃ 65.03 % 1019.93 hPa
2021-04-22 10:10:21 9.63 ℃ 66.98 % 1019.91 hPa
2021-04-22 10:00:21 9.48 ℃ 69.85 % 1019.88 hPa
2021-04-22 09:50:21 9.32 ℃ 73.12 % 1019.8 hPa
2021-04-22 09:40:21 9.16 ℃ 74.5 % 1019.73 hPa
2021-04-22 09:30:21 8.99 ℃ 77.04 % 1019.67 hPa
2021-04-22 09:20:21 9.03 ℃ 76.42 % 1019.57 hPa
2021-04-22 09:10:21 9.17 ℃ 76.9 % 1019.5 hPa
2021-04-22 09:00:21 8.85 ℃ 79.51 % 1019.44 hPa
2021-04-22 08:50:21 8.86 ℃ 80.85 % 1019.35 hPa
2021-04-22 08:40:21 8.74 ℃ 82.45 % 1019.19 hPa
2021-04-22 08:30:21 8.48 ℃ 83.82 % 1019.09 hPa
2021-04-22 08:20:21 8.14 ℃ 86.43 % 1019.13 hPa
2021-04-22 08:10:21 7.91 ℃ 87.77 % 1019.04 hPa
2021-04-22 08:00:21 7.74 ℃ 88.39 % 1019.03 hPa
2021-04-22 07:50:21 7.86 ℃ 87.73 % 1018.95 hPa
2021-04-22 07:40:21 7.54 ℃ 89.08 % 1018.82 hPa
2021-04-22 07:30:21 7.48 ℃ 89.36 % 1018.75 hPa
2021-04-22 07:20:21 7.31 ℃ 90.13 % 1018.72 hPa
2021-04-22 07:10:21 7.03 ℃ 91.65 % 1018.6 hPa
2021-04-22 07:00:21 6.98 ℃ 92.71 % 1018.5 hPa
2021-04-22 06:50:21 6.68 ℃ 94.8 % 1018.43 hPa
2021-04-22 06:40:21 6.38 ℃ 95.75 % 1018.37 hPa
2021-04-22 06:30:21 6.16 ℃ 96.56 % 1018.34 hPa
2021-04-22 06:20:21 6.17 ℃ 96.21 % 1018.24 hPa
2021-04-22 06:10:21 6.12 ℃ 95.96 % 1018.15 hPa
2021-04-22 06:00:21 6.28 ℃ 94.64 % 1018.02 hPa
2021-04-22 05:50:21 6.02 ℃ 94.93 % 1017.97 hPa
2021-04-22 05:40:22 6.03 ℃ 93.84 % 1017.91 hPa
2021-04-22 05:30:22 6.13 ℃ 92.28 % 1017.89 hPa
2021-04-22 05:20:21 6.28 ℃ 90.04 % 1017.86 hPa
2021-04-22 05:10:21 6.16 ℃ 88.03 % 1017.85 hPa
2021-04-22 05:00:21 6.22 ℃ 85.9 % 1017.84 hPa
2021-04-22 04:50:22 6.28 ℃ 83.95 % 1017.84 hPa
2021-04-22 04:40:22 6.38 ℃ 81.47 % 1017.85 hPa
2021-04-22 04:30:22 6.53 ℃ 78.43 % 1017.84 hPa
2021-04-22 04:20:22 6.52 ℃ 76.14 % 1017.81 hPa
2021-04-22 04:10:22 6.67 ℃ 75.89 % 1017.71 hPa
2021-04-22 04:00:22 6.87 ℃ 78.34 % 1017.82 hPa
2021-04-22 03:50:22 6.96 ℃ 79.85 % 1017.77 hPa
2021-04-22 03:40:22 6.91 ℃ 81.08 % 1017.72 hPa
2021-04-22 03:30:22 7.05 ℃ 83.4 % 1017.62 hPa
2021-04-22 03:20:22 6.98 ℃ 82.96 % 1017.59 hPa
2021-04-22 03:10:22 6.87 ℃ 83.33 % 1017.54 hPa
2021-04-22 03:00:22 6.9 ℃ 83.44 % 1017.51 hPa
2021-04-22 02:50:22 7.01 ℃ 82.51 % 1017.49 hPa
2021-04-22 02:40:22 7.03 ℃ 82.34 % 1017.43 hPa
2021-04-22 02:30:22 6.91 ℃ 83.1 % 1017.5 hPa
2021-04-22 02:20:22 6.89 ℃ 83.39 % 1017.5 hPa
2021-04-22 02:10:22 6.78 ℃ 84.07 % 1017.47 hPa
2021-04-22 02:00:22 6.68 ℃ 85.05 % 1017.48 hPa
2021-04-22 01:50:22 6.67 ℃ 85.68 % 1017.45 hPa
2021-04-22 01:40:22 6.67 ℃ 86.48 % 1017.44 hPa
2021-04-22 01:30:22 6.64 ℃ 87.09 % 1017.43 hPa
2021-04-22 01:20:22 6.61 ℃ 87.16 % 1017.4 hPa
2021-04-22 01:10:22 6.58 ℃ 86.72 % 1017.39 hPa
2021-04-22 01:00:22 6.59 ℃ 86.25 % 1017.36 hPa
2021-04-22 00:50:22 6.55 ℃ 85.33 % 1017.35 hPa
2021-04-22 00:40:22 6.59 ℃ 83.8 % 1017.34 hPa
2021-04-22 00:30:22 6.55 ℃ 82.63 % 1017.31 hPa
2021-04-22 00:20:22 6.57 ℃ 80.49 % 1017.29 hPa
2021-04-22 00:10:22 6.64 ℃ 78.15 % 1017.28 hPa
2021-04-22 00:00:24 6.64 ℃ 76.86 % 1017.24 hPa
2021-04-21 23:50:22 6.71 ℃ 75.72 % 1017.21 hPa
2021-04-21 23:40:22 6.75 ℃ 75.39 % 1017.21 hPa
2021-04-21 23:30:22 6.76 ℃ 74.93 % 1017.26 hPa
2021-04-21 23:20:22 6.76 ℃ 74.27 % 1017.24 hPa
2021-04-21 23:10:22 6.78 ℃ 73.23 % 1017.2 hPa
2021-04-21 23:00:22 6.86 ℃ 72.35 % 1017.26 hPa
2021-04-21 22:50:22 6.94 ℃ 71.48 % 1017.28 hPa
2021-04-21 22:40:22 6.82 ℃ 70.33 % 1017.29 hPa
2021-04-21 22:30:22 6.88 ℃ 69.24 % 1017.34 hPa
2021-04-21 22:20:22 6.82 ℃ 68.84 % 1017.35 hPa
2021-04-21 22:10:22 6.75 ℃ 69.12 % 1017.33 hPa
2021-04-21 22:00:22 6.7 ℃ 69.37 % 1017.37 hPa
2021-04-21 21:50:22 6.64 ℃ 69.3 % 1017.37 hPa
2021-04-21 21:40:22 6.71 ℃ 68.41 % 1017.37 hPa
2021-04-21 21:30:22 6.86 ℃ 66.67 % 1017.37 hPa
2021-04-21 21:20:22 7.04 ℃ 65.15 % 1017.27 hPa
2021-04-21 21:10:22 7.33 ℃ 62.75 % 1017.23 hPa
2021-04-21 21:00:22 7.39 ℃ 61.82 % 1017.19 hPa
2021-04-21 20:50:22 7.46 ℃ 60.29 % 1017.16 hPa
2021-04-21 20:40:22 7.29 ℃ 58.95 % 1017.14 hPa
2021-04-21 20:30:22 7.62 ℃ 56.31 % 1017.08 hPa
2021-04-21 20:20:22 7.9 ℃ 54.53 % 1016.98 hPa
2021-04-21 20:10:22 8.06 ℃ 54.01 % 1016.88 hPa
2021-04-21 20:00:22 8.25 ℃ 52.72 % 1016.85 hPa
2021-04-21 19:50:22 8.3 ℃ 50.91 % 1016.88 hPa
2021-04-21 19:40:22 8.45 ℃ 50.8 % 1016.78 hPa
2021-04-21 19:30:23 8.58 ℃ 51.39 % 1016.74 hPa
2021-04-21 19:20:22 8.89 ℃ 52.92 % 1016.64 hPa
2021-04-21 19:10:22 9.33 ℃ 54.18 % 1016.68 hPa
2021-04-21 19:00:23 9.55 ℃ 53.3 % 1016.66 hPa
2021-04-21 18:50:23 9.71 ℃ 53.11 % 1016.67 hPa
2021-04-21 18:40:22 9.73 ℃ 54.15 % 1016.63 hPa
2021-04-21 18:30:22 10.01 ℃ 51.8 % 1016.6 hPa
2021-04-21 18:20:22 10.24 ℃ 49.39 % 1016.59 hPa
2021-04-21 18:10:23 10.26 ℃ 48.54 % 1016.5 hPa
2021-04-21 18:00:23 10.54 ℃ 47.2 % 1016.46 hPa
2021-04-21 17:50:23 10.76 ℃ 46.59 % 1016.4 hPa
2021-04-21 17:40:23 10.85 ℃ 47.2 % 1016.33 hPa
2021-04-21 17:30:23 11.15 ℃ 46.39 % 1016.28 hPa
2021-04-21 17:20:23 11.42 ℃ 45.24 % 1016.2 hPa
2021-04-21 17:10:23 11.94 ℃ 46.16 % 1016.19 hPa
2021-04-21 17:00:23 11.87 ℃ 49.36 % 1016.12 hPa
2021-04-21 16:15:22 11.35 ℃ 43.14 % 1016.03 hPa
2021-04-21 16:05:22 11.66 ℃ 39.66 % 1015.99 hPa
2021-04-21 15:55:22 12 ℃ 38.96 % 1015.92 hPa
2021-04-21 15:45:22 12.06 ℃ 38.13 % 1015.9 hPa
2021-04-21 15:35:22 11.99 ℃ 40.52 % 1015.92 hPa
2021-04-21 15:25:22 11.77 ℃ 40.93 % 1015.97 hPa
2021-04-21 15:15:22 12.13 ℃ 42.07 % 1015.95 hPa
2021-04-21 15:05:22 12.2 ℃ 41.45 % 1016.02 hPa
2021-04-21 14:55:22 12.07 ℃ 42.23 % 1016.07 hPa
2021-04-21 14:45:22 12.4 ℃ 40.33 % 1016 hPa
2021-04-21 14:35:23 12.76 ℃ 40.41 % 1016.01 hPa
2021-04-21 14:25:22 12.61 ℃ 40.21 % 1016.06 hPa
2021-04-21 14:15:22 12.26 ℃ 42.29 % 1016.07 hPa
2021-04-21 14:05:23 12.08 ℃ 42.59 % 1016.08 hPa
2021-04-21 13:55:23 12.28 ℃ 43.05 % 1016.09 hPa
2021-04-21 13:45:23 12.21 ℃ 43.88 % 1016.15 hPa
2021-04-21 13:35:22 12.46 ℃ 46.83 % 1016.14 hPa
2021-04-21 13:25:23 12.6 ℃ 50.24 % 1016.17 hPa
2021-04-21 13:15:23 12.02 ℃ 53.13 % 1016.28 hPa
2021-04-21 13:05:23 12.59 ℃ 53.01 % 1016.26 hPa
2021-04-21 12:55:23 12.11 ℃ 56.49 % 1016.25 hPa
2021-04-21 12:45:23 11.75 ℃ 63.83 % 1016.32 hPa
2021-04-21 12:35:23 11.89 ℃ 66.39 % 1016.28 hPa
2021-04-21 12:25:23 11.8 ℃ 69.71 % 1016.27 hPa
2021-04-21 12:15:23 12.07 ℃ 70.54 % 1016.29 hPa
2021-04-21 12:05:23 11.89 ℃ 75.06 % 1016.33 hPa
2021-04-21 11:55:23 11.54 ℃ 77.71 % 1016.41 hPa
2021-04-21 11:45:23 11.58 ℃ 80.79 % 1016.4 hPa
2021-04-21 11:35:23 11.54 ℃ 84.97 % 1016.41 hPa
2021-04-21 11:25:23 11.24 ℃ 91 % 1016.48 hPa
2021-04-21 11:15:23 10.98 ℃ 92.95 % 1016.48 hPa
2021-04-21 11:05:23 10.74 ℃ 95.62 % 1016.46 hPa
2021-04-21 10:55:24 10.47 ℃ 98.59 % 1016.41 hPa
2021-04-21 10:45:23 10.25 ℃ 99.6 % 1016.45 hPa
2021-04-21 10:35:23 10.4 ℃ 99.2 % 1016.43 hPa
2021-04-21 10:25:23 10.25 ℃ 100 % 1016.37 hPa
2021-04-21 10:15:23 10.11 ℃ 100 % 1016.34 hPa
2021-04-21 10:05:23 10.1 ℃ 100 % 1016.28 hPa
2021-04-21 09:55:23 9.9 ℃ 100 % 1016.26 hPa
2021-04-21 09:45:23 9.89 ℃ 99.99 % 1016.26 hPa
2021-04-21 09:35:23 9.66 ℃ 99.98 % 1016.28 hPa
2021-04-21 09:25:23 9.58 ℃ 99.96 % 1016.35 hPa
2021-04-21 09:15:23 9.17 ℃ 99.93 % 1016.37 hPa
2021-04-21 09:05:23 9.05 ℃ 99.86 % 1016.37 hPa
2021-04-21 08:55:23 9.04 ℃ 99.72 % 1016.3 hPa
2021-04-21 08:45:23 9.17 ℃ 99.43 % 1016.22 hPa
2021-04-21 08:35:23 9.52 ℃ 98.86 % 1016.09 hPa
2021-04-21 08:25:23 10.25 ℃ 97.73 % 1015.97 hPa
2021-04-21 08:15:23 11 ℃ 95.46 % 1015.82 hPa
2021-04-21 08:05:23 11.26 ℃ 90.91 % 1015.73 hPa
2021-04-21 07:55:23 11.24 ℃ 87.21 % 1015.7 hPa
2021-04-21 07:45:23 11.07 ℃ 86.45 % 1015.69 hPa
2021-04-21 07:35:23 10.59 ℃ 87.88 % 1015.68 hPa
2021-04-21 07:25:23 10.28 ℃ 87.2 % 1015.71 hPa
2021-04-21 07:15:23 10.43 ℃ 84.5 % 1015.66 hPa
2021-04-21 07:05:23 10.2 ℃ 84.87 % 1015.68 hPa
2021-04-21 06:55:23 9.75 ℃ 86.03 % 1015.69 hPa
2021-04-21 06:45:23 9.54 ℃ 85.72 % 1015.7 hPa
2021-04-21 06:35:23 9.14 ℃ 87.57 % 1015.7 hPa
2021-04-21 06:25:23 8.88 ℃ 87.94 % 1015.73 hPa
2021-04-21 06:15:23 8.91 ℃ 86.97 % 1015.7 hPa
2021-04-21 06:05:23 9.08 ℃ 85.65 % 1015.68 hPa
2021-04-21 05:55:23 9.14 ℃ 85.33 % 1015.69 hPa
2021-04-21 05:45:23 9.06 ℃ 85.57 % 1015.71 hPa
2021-04-21 05:35:23 9.16 ℃ 84.07 % 1015.76 hPa
2021-04-21 05:25:23 9.07 ℃ 83.8 % 1015.82 hPa
2021-04-21 05:15:23 9.01 ℃ 82.97 % 1015.88 hPa
2021-04-21 05:05:23 9.03 ℃ 81.42 % 1015.93 hPa
2021-04-21 04:55:23 8.86 ℃ 81.17 % 1015.96 hPa
2021-04-21 04:45:23 8.77 ℃ 80.35 % 1015.98 hPa
2021-04-21 04:35:23 8.71 ℃ 78.95 % 1016.01 hPa
2021-04-21 04:25:23 8.55 ℃ 78.74 % 1016.05 hPa
2021-04-21 04:15:23 8.62 ℃ 77.65 % 1016.09 hPa
2021-04-21 04:05:23 8.77 ℃ 75.84 % 1016.13 hPa
2021-04-21 03:55:24 9.11 ℃ 73.44 % 1016.14 hPa
2021-04-21 03:45:23 9.46 ℃ 70.86 % 1016.19 hPa
2021-04-21 03:35:23 9.79 ℃ 68.7 % 1016.19 hPa
2021-04-21 03:25:23 9.88 ℃ 66.64 % 1016.2 hPa
2021-04-21 03:15:23 9.98 ℃ 65.53 % 1016.26 hPa
2021-04-21 03:05:24 10 ℃ 64.66 % 1016.33 hPa
2021-04-21 02:55:24 9.9 ℃ 64.78 % 1016.37 hPa
2021-04-21 02:45:24 9.95 ℃ 64.86 % 1016.43 hPa
2021-04-21 02:35:24 10.07 ℃ 64.88 % 1016.48 hPa
2021-04-21 02:25:24 10.28 ℃ 64.67 % 1016.55 hPa
2021-04-21 02:15:24 10.32 ℃ 62.97 % 1016.59 hPa
2021-04-21 02:05:24 10.5 ℃ 62.13 % 1016.65 hPa
2021-04-21 01:55:24 10.32 ℃ 64.14 % 1016.7 hPa
2021-04-21 01:45:24 10.31 ℃ 64.27 % 1016.76 hPa
2021-04-21 01:35:24 10.33 ℃ 63.24 % 1016.83 hPa
2021-04-21 01:25:24 10.46 ℃ 62.71 % 1016.87 hPa
2021-04-21 01:15:24 10.63 ℃ 62.3 % 1016.87 hPa
2021-04-21 01:05:24 10.85 ℃ 61.58 % 1016.91 hPa
2021-04-21 00:55:24 11.04 ℃ 60.2 % 1016.91 hPa
2021-04-21 00:45:24 11.11 ℃ 59.49 % 1016.87 hPa
2021-04-21 00:35:24 11.29 ℃ 58.46 % 1016.83 hPa
2021-04-21 00:25:24 11.59 ℃ 57.12 % 1016.79 hPa
2021-04-21 00:15:24 11.82 ℃ 54.83 % 1016.78 hPa
2021-04-21 00:05:24 12.23 ℃ 52.65 % 1016.77 hPa
2021-04-20 23:55:24 12.77 ℃ 49.55 % 1016.79 hPa
2021-04-20 23:45:24 13.04 ℃ 47.89 % 1016.86 hPa
2021-04-20 23:35:24 13.29 ℃ 46.59 % 1016.87 hPa
2021-04-20 23:25:24 13.49 ℃ 45.21 % 1016.95 hPa
2021-04-20 23:15:24 13.54 ℃ 45.04 % 1016.96 hPa
2021-04-20 23:05:24 13.81 ℃ 44.05 % 1016.99 hPa
2021-04-20 22:55:24 13.84 ℃ 43.68 % 1017.03 hPa
2021-04-20 22:45:24 13.93 ℃ 42.56 % 1017.09 hPa
2021-04-20 22:35:24 14.14 ℃ 41 % 1017.14 hPa
2021-04-20 22:25:24 14.47 ℃ 38.96 % 1017.17 hPa
2021-04-20 22:15:24 14.72 ℃ 37.52 % 1017.18 hPa
2021-04-20 22:05:24 14.97 ℃ 36.21 % 1017.16 hPa
2021-04-20 21:55:24 15.13 ℃ 35.74 % 1017.19 hPa
2021-04-20 21:45:24 15.46 ℃ 34.99 % 1017.22 hPa
2021-04-20 21:35:24 15.61 ℃ 35.05 % 1017.22 hPa
2021-04-20 21:25:24 15.74 ℃ 34.85 % 1017.21 hPa
2021-04-20 21:15:24 15.87 ℃ 33.48 % 1017.21 hPa
2021-04-20 21:05:24 15.98 ℃ 32.99 % 1017.19 hPa
2021-04-20 20:55:24 16.29 ℃ 32.18 % 1017.12 hPa
2021-04-20 20:45:24 16.28 ℃ 31.96 % 1017.09 hPa
2021-04-20 20:35:24 16.2 ℃ 31.58 % 1017.07 hPa
2021-04-20 20:25:24 16.01 ℃ 31.62 % 1017.05 hPa
2021-04-20 20:15:24 16.18 ℃ 31.65 % 1016.98 hPa
2021-04-20 20:05:24 16.11 ℃ 32.32 % 1016.97 hPa
2021-04-20 19:55:24 15.92 ℃ 32.31 % 1016.94 hPa
2021-04-20 19:45:24 15.74 ℃ 32.22 % 1016.95 hPa
2021-04-20 19:35:24 16.17 ℃ 31.75 % 1016.95 hPa
2021-04-20 19:25:24 15.9 ℃ 31.5 % 1016.99 hPa
2021-04-20 19:15:24 15.77 ℃ 31.38 % 1017.06 hPa
2021-04-20 19:05:24 15.61 ℃ 31.5 % 1017.16 hPa
2021-04-20 18:55:24 15.75 ℃ 31.67 % 1017.27 hPa
2021-04-20 18:45:24 15.1 ℃ 31.92 % 1017.39 hPa
2021-04-20 18:35:24 15.05 ℃ 31.77 % 1017.43 hPa
2021-04-20 18:25:24 14.85 ℃ 31.78 % 1017.46 hPa
2021-04-20 18:15:24 14.89 ℃ 31.54 % 1017.53 hPa
2021-04-20 18:05:24 14.97 ℃ 31.29 % 1017.59 hPa
2021-04-20 17:55:24 15.14 ℃ 30.93 % 1017.66 hPa
2021-04-20 17:45:25 15.26 ℃ 30.62 % 1017.73 hPa
2021-04-20 17:35:24 15.01 ℃ 30.75 % 1017.81 hPa
2021-04-20 17:25:24 15.02 ℃ 30.64 % 1017.92 hPa
2021-04-20 17:15:24 15.09 ℃ 30.77 % 1017.97 hPa
2021-04-20 17:05:24 15.01 ℃ 31.17 % 1018.03 hPa
2021-04-20 16:55:24 14.77 ℃ 31.62 % 1018.08 hPa
2021-04-20 16:45:24 14.85 ℃ 31.66 % 1018.15 hPa
2021-04-20 16:35:24 14.85 ℃ 31.53 % 1018.25 hPa
2021-04-20 16:25:24 14.92 ℃ 31.65 % 1018.3 hPa
2021-04-20 16:15:24 14.97 ℃ 31.9 % 1018.36 hPa
2021-04-20 16:05:25 14.97 ℃ 32.4 % 1018.44 hPa
2021-04-20 15:55:25 14.72 ℃ 33.27 % 1018.55 hPa
2021-04-20 15:45:25 14.87 ℃ 33.67 % 1018.65 hPa
2021-04-20 15:35:25 14.76 ℃ 33.48 % 1018.79 hPa
2021-04-20 15:25:25 14.51 ℃ 33.71 % 1018.92 hPa
2021-04-20 15:15:25 14.34 ℃ 33.81 % 1019.01 hPa
2021-04-20 15:05:25 14.43 ℃ 34.04 % 1019.05 hPa
2021-04-20 14:55:25 14.33 ℃ 34.2 % 1019.15 hPa
2021-04-20 14:45:25 14.59 ℃ 35.17 % 1019.18 hPa
2021-04-20 14:35:25 14.25 ℃ 35.7 % 1019.25 hPa
2021-04-20 14:25:25 14.16 ℃ 36.18 % 1019.29 hPa
2021-04-20 14:15:25 14.13 ℃ 35.74 % 1019.34 hPa
2021-04-20 14:05:25 14.13 ℃ 36.2 % 1019.36 hPa
2021-04-20 13:55:25 14.04 ℃ 37.77 % 1019.35 hPa
2021-04-20 13:45:25 14.14 ℃ 38.75 % 1019.42 hPa
2021-04-20 13:35:25 13.91 ℃ 40 % 1019.56 hPa
2021-04-20 13:25:25 13.77 ℃ 40.94 % 1019.66 hPa
2021-04-20 13:15:25 13.92 ℃ 40.39 % 1019.63 hPa
2021-04-20 13:05:25 14.1 ℃ 40.45 % 1019.62 hPa
2021-04-20 12:55:25 13.87 ℃ 41.74 % 1019.73 hPa
2021-04-20 12:45:25 13.93 ℃ 43.2 % 1019.8 hPa
2021-04-20 12:35:25 14 ℃ 43.79 % 1019.83 hPa
2021-04-20 12:25:25 13.51 ℃ 45.38 % 1019.93 hPa
2021-04-20 12:15:25 13.75 ℃ 43.55 % 1019.9 hPa
2021-04-20 12:05:25 13.73 ℃ 42.87 % 1019.91 hPa
2021-04-20 11:55:25 13.19 ℃ 44.69 % 1019.94 hPa
2021-04-20 11:45:25 13.17 ℃ 45.02 % 1019.98 hPa
2021-04-20 11:35:25 13.13 ℃ 46.13 % 1019.97 hPa
2021-04-20 11:25:25 13.06 ℃ 47.56 % 1019.99 hPa
2021-04-20 11:15:25 13.02 ℃ 48.61 % 1019.99 hPa
2021-04-20 11:05:25 12.98 ℃ 50.56 % 1019.96 hPa
2021-04-20 10:55:25 12.7 ℃ 52.45 % 1020.01 hPa
2021-04-20 10:45:25 12.4 ℃ 53.68 % 1020.07 hPa
2021-04-20 10:35:25 12.42 ℃ 54.88 % 1020.07 hPa
2021-04-20 10:25:25 12.48 ℃ 56.69 % 1020.08 hPa
2021-04-20 10:15:25 12.23 ℃ 59.99 % 1020.11 hPa
2021-04-20 10:05:25 12.03 ℃ 63.56 % 1020.13 hPa
2021-04-20 09:55:25 11.95 ℃ 64.27 % 1020.16 hPa
2021-04-20 09:45:25 11.62 ℃ 66.54 % 1020.24 hPa
2021-04-20 09:35:25 11.22 ℃ 69.34 % 1020.32 hPa
2021-04-20 09:25:25 11.01 ℃ 72.1 % 1020.34 hPa
2021-04-20 09:15:25 10.91 ℃ 75.2 % 1020.38 hPa
2021-04-20 09:05:25 10.63 ℃ 78.21 % 1020.4 hPa
2021-04-20 08:55:25 10.35 ℃ 80.52 % 1020.43 hPa
2021-04-20 08:45:25 9.96 ℃ 82.69 % 1020.46 hPa
2021-04-20 08:35:25 9.82 ℃ 83.82 % 1020.49 hPa
2021-04-20 08:25:25 9.64 ℃ 85.62 % 1020.45 hPa
2021-04-20 08:15:25 9.58 ℃ 87.07 % 1020.42 hPa
2021-04-20 08:05:25 9.53 ℃ 88.43 % 1020.41 hPa
2021-04-20 07:55:25 9.3 ℃ 90.09 % 1020.43 hPa
2021-04-20 07:45:25 9.24 ℃ 90.75 % 1020.45 hPa
2021-04-20 07:35:25 8.93 ℃ 92.92 % 1020.5 hPa
2021-04-20 07:25:25 9.04 ℃ 92.64 % 1020.5 hPa
2021-04-20 07:15:25 8.78 ℃ 93.46 % 1020.5 hPa
2021-04-20 07:05:25 8.47 ℃ 94.3 % 1020.51 hPa
2021-04-20 06:55:25 8.35 ℃ 94.27 % 1020.49 hPa
2021-04-20 06:45:25 8.22 ℃ 93.83 % 1020.44 hPa
2021-04-20 06:35:25 8.18 ℃ 92.63 % 1020.41 hPa
2021-04-20 06:25:25 8.07 ℃ 92.04 % 1020.45 hPa
2021-04-20 06:15:25 8.1 ℃ 91.35 % 1020.46 hPa
2021-04-20 06:05:25 8.06 ℃ 92.39 % 1020.49 hPa
2021-04-20 05:55:26 7.82 ℃ 95.27 % 1020.53 hPa
2021-04-20 05:45:26 7.75 ℃ 98.85 % 1020.58 hPa
2021-04-20 05:35:26 7.72 ℃ 99.47 % 1020.61 hPa
2021-04-20 05:25:26 7.7 ℃ 98.94 % 1020.65 hPa
2021-04-20 05:15:26 7.74 ℃ 97.99 % 1020.69 hPa
2021-04-20 05:05:26 7.73 ℃ 97.16 % 1020.75 hPa
2021-04-20 04:55:26 7.75 ℃ 96.79 % 1020.77 hPa
2021-04-20 04:45:26 7.77 ℃ 96.44 % 1020.81 hPa
2021-04-20 04:35:26 7.86 ℃ 95.21 % 1020.81 hPa
2021-04-20 04:25:26 7.85 ℃ 94.9 % 1020.84 hPa
2021-04-20 04:15:26 7.87 ℃ 94.94 % 1020.81 hPa
2021-04-20 04:05:26 7.86 ℃ 94.91 % 1020.83 hPa
2021-04-20 03:55:26 7.81 ℃ 94.68 % 1020.88 hPa
2021-04-20 03:45:26 7.76 ℃ 93.59 % 1020.93 hPa
2021-04-20 03:35:26 7.79 ℃ 92.15 % 1020.99 hPa
2021-04-20 03:25:26 7.69 ℃ 92.16 % 1021.1 hPa
2021-04-20 03:15:26 7.67 ℃ 92.93 % 1021.12 hPa
2021-04-20 03:05:26 7.61 ℃ 94.66 % 1021.16 hPa
2021-04-20 02:55:26 7.58 ℃ 97 % 1021.23 hPa
2021-04-20 02:45:26 7.59 ℃ 98.87 % 1021.28 hPa
2021-04-20 02:35:26 7.65 ℃ 99.15 % 1021.37 hPa
2021-04-20 02:25:26 7.7 ℃ 99.23 % 1021.45 hPa
2021-04-20 02:15:26 7.7 ℃ 99.07 % 1021.53 hPa
2021-04-20 02:05:26 7.74 ℃ 98.22 % 1021.62 hPa
2021-04-20 01:55:26 7.82 ℃ 97.29 % 1021.67 hPa
2021-04-20 01:45:26 7.92 ℃ 95.53 % 1021.8 hPa
2021-04-20 01:35:26 8.08 ℃ 94.07 % 1021.89 hPa
2021-04-20 01:25:26 8.16 ℃ 93.71 % 1021.96 hPa
2021-04-20 01:15:26 8.22 ℃ 93.38 % 1022 hPa
2021-04-20 01:05:26 8.28 ℃ 93.76 % 1022.03 hPa
2021-04-20 00:55:26 8.38 ℃ 94.57 % 1022.04 hPa
2021-04-20 00:45:26 8.41 ℃ 94.31 % 1022.08 hPa
2021-04-20 00:35:26 8.51 ℃ 92.56 % 1022.12 hPa
2021-04-20 00:25:26 8.62 ℃ 91.2 % 1022.12 hPa
2021-04-20 00:15:26 8.82 ℃ 89.69 % 1022.1 hPa
2021-04-20 00:05:26 9 ℃ 88.96 % 1022.15 hPa
2021-04-19 23:55:26 9.23 ℃ 88.97 % 1022.19 hPa
2021-04-19 23:45:26 9.31 ℃ 90.46 % 1022.24 hPa
2021-04-19 23:35:26 9.38 ℃ 91.82 % 1022.3 hPa
2021-04-19 23:25:26 9.58 ℃ 91.86 % 1022.33 hPa
2021-04-19 23:15:26 9.77 ℃ 91.61 % 1022.39 hPa
2021-04-19 23:05:26 9.86 ℃ 91.39 % 1022.39 hPa
2021-04-19 22:55:26 10.01 ℃ 88.25 % 1022.39 hPa
2021-04-19 22:45:26 9.96 ℃ 90.15 % 1022.45 hPa
2021-04-19 22:35:26 9.96 ℃ 89.34 % 1022.47 hPa
2021-04-19 22:25:26 10.15 ℃ 85.57 % 1022.51 hPa
2021-04-19 22:15:26 10.37 ℃ 82.12 % 1022.53 hPa
2021-04-19 22:05:26 10.35 ℃ 82.39 % 1022.56 hPa
2021-04-19 21:55:26 10.52 ℃ 81.27 % 1022.59 hPa
2021-04-19 21:45:26 10.65 ℃ 80.49 % 1022.67 hPa
2021-04-19 21:35:26 10.73 ℃ 80.33 % 1022.68 hPa
2021-04-19 21:25:26 10.81 ℃ 80.95 % 1022.69 hPa
2021-04-19 21:15:26 11.02 ℃ 80.89 % 1022.69 hPa
2021-04-19 21:05:26 11.25 ℃ 80.27 % 1022.63 hPa
2021-04-19 20:55:26 11.53 ℃ 77.99 % 1022.6 hPa
2021-04-19 20:45:26 11.47 ℃ 75.94 % 1022.58 hPa
2021-04-19 20:35:26 11.66 ℃ 71.86 % 1022.6 hPa
2021-04-19 20:25:26 12.09 ℃ 63.63 % 1022.54 hPa
2021-04-19 20:15:30 12.19 ℃ 60.37 % 1022.54 hPa
2021-04-19 20:05:26 12.42 ℃ 56.89 % 1022.55 hPa
2021-04-19 19:55:26 12.55 ℃ 53.54 % 1022.53 hPa
2021-04-19 19:45:26 12.76 ℃ 53.4 % 1022.53 hPa
2021-04-19 19:35:26 12.9 ℃ 52.03 % 1022.54 hPa
2021-04-19 19:25:26 13.08 ℃ 50.74 % 1022.51 hPa
2021-04-19 19:15:27 12.96 ℃ 51.69 % 1022.51 hPa
2021-04-19 19:05:27 13.04 ℃ 50.8 % 1022.57 hPa
2021-04-19 18:55:27 13.07 ℃ 52.01 % 1022.62 hPa
2021-04-19 18:45:27 13.18 ℃ 53.81 % 1022.67 hPa
2021-04-19 18:35:27 13.13 ℃ 56.77 % 1022.74 hPa
2021-04-19 18:25:27 13.17 ℃ 62.14 % 1022.77 hPa
2021-04-19 18:15:27 13.11 ℃ 65.68 % 1022.84 hPa
2021-04-19 18:05:27 13.24 ℃ 66.15 % 1022.84 hPa
2021-04-19 17:55:27 13.43 ℃ 66.89 % 1022.78 hPa
2021-04-19 17:45:27 13.41 ℃ 66.76 % 1022.78 hPa
2021-04-19 17:35:27 13.61 ℃ 65.58 % 1022.81 hPa
2021-04-19 17:25:27 13.35 ℃ 66.5 % 1022.76 hPa
2021-04-19 17:15:27 13.43 ℃ 66.18 % 1022.75 hPa
2021-04-19 17:05:27 13.16 ℃ 66.8 % 1022.81 hPa
2021-04-18 14:19:43 12.7 ℃ 66.48 % 1023.89 hPa
2021-04-18 14:09:43 12.99 ℃ 64.72 % 1023.88 hPa
2021-04-18 13:59:43 12.9 ℃ 64.81 % 1023.96 hPa
2021-04-18 13:49:58 12.67 ℃ 66.09 % 1023.97 hPa
2021-04-18 13:39:43 12.54 ℃ 65.14 % 1024 hPa
2021-04-18 13:29:43 12.31 ℃ 65.53 % 1024.03 hPa
2021-04-18 13:19:43 12.19 ℃ 64.46 % 1024.03 hPa
2021-04-18 13:09:43 11.94 ℃ 65.07 % 1024.08 hPa
2021-04-18 12:59:43 11.83 ℃ 66 % 1024.14 hPa
2021-04-18 12:49:43 11.96 ℃ 69.43 % 1024.17 hPa
2021-04-18 12:39:52 12.23 ℃ 70.81 % 1024.14 hPa
2021-04-18 12:29:43 12.24 ℃ 71.66 % 1024.17 hPa
2021-04-18 12:19:43 11.95 ℃ 73.14 % 1024.17 hPa
2021-04-18 12:09:43 11.64 ℃ 72.43 % 1024.24 hPa
2021-04-18 11:59:43 11.7 ℃ 69.9 % 1024.26 hPa
2021-04-18 11:49:43 11.28 ℃ 70.39 % 1024.3 hPa
2021-04-18 11:29:45 11.09 ℃ 70.26 % 1024.33 hPa
2021-04-18 11:19:43 11.05 ℃ 69.87 % 1024.24 hPa
2021-04-18 11:09:43 11.15 ℃ 68.19 % 1024.22 hPa
2021-04-18 10:59:43 11.24 ℃ 66.56 % 1024.22 hPa
2021-04-18 10:49:43 11.19 ℃ 66.82 % 1024.2 hPa
2021-04-18 10:39:43 11.27 ℃ 66.17 % 1024.13 hPa
2021-04-18 10:29:43 11.04 ℃ 67.07 % 1024.1 hPa
2021-04-18 10:19:43 10.72 ℃ 69.4 % 1024.13 hPa
2021-04-18 10:09:43 10.48 ℃ 71.22 % 1024.17 hPa
2021-04-18 09:59:43 10.36 ℃ 70.68 % 1024.26 hPa
2021-04-18 09:49:43 10.41 ℃ 69.4 % 1024.28 hPa
2021-04-18 09:39:46 10.42 ℃ 68.36 % 1024.33 hPa
2021-04-18 09:29:43 10.16 ℃ 68.67 % 1024.35 hPa
2021-04-18 09:19:43 10.15 ℃ 67.7 % 1024.36 hPa
2021-04-18 09:09:44 10.11 ℃ 67.02 % 1024.35 hPa
2021-04-18 08:59:43 9.85 ℃ 68.01 % 1024.31 hPa
2021-04-18 08:49:46 9.78 ℃ 68.13 % 1024.29 hPa
2021-04-18 08:39:45 9.63 ℃ 68.93 % 1024.29 hPa
2021-04-18 08:29:43 9.55 ℃ 71.38 % 1024.26 hPa
2021-04-18 08:19:43 9.37 ℃ 74 % 1024.31 hPa
2021-04-18 08:09:43 9.15 ℃ 76.68 % 1024.3 hPa
2021-04-18 07:59:43 8.92 ℃ 79.35 % 1024.33 hPa
2021-04-18 07:49:43 8.72 ℃ 81.7 % 1024.36 hPa
2021-04-18 07:39:43 8.68 ℃ 83.29 % 1024.34 hPa
2021-04-18 07:29:57 8.5 ℃ 84.6 % 1024.36 hPa
2021-04-18 07:19:44 8.29 ℃ 85.86 % 1024.33 hPa
2021-04-18 07:09:44 8.18 ℃ 87.44 % 1024.28 hPa
2021-04-18 06:59:44 7.96 ℃ 89.2 % 1024.26 hPa
2021-04-18 06:49:44 7.85 ℃ 90.07 % 1024.3 hPa
2021-04-18 06:39:44 7.75 ℃ 90.27 % 1024.26 hPa
2021-04-18 06:29:44 7.74 ℃ 89.15 % 1024.28 hPa
2021-04-18 06:19:44 7.71 ℃ 89.03 % 1024.29 hPa
2021-04-18 06:09:44 7.81 ℃ 88.07 % 1024.26 hPa
2021-04-18 05:59:44 7.87 ℃ 88.25 % 1024.24 hPa
2021-04-18 05:49:44 7.88 ℃ 88.89 % 1024.25 hPa
2021-04-18 05:39:44 8.07 ℃ 88.01 % 1024.23 hPa
2021-04-18 05:29:44 8.05 ℃ 88.91 % 1024.24 hPa
2021-04-18 05:19:44 8.05 ℃ 90.64 % 1024.23 hPa
2021-04-18 05:09:44 8.06 ℃ 92.94 % 1024.25 hPa
2021-04-18 04:59:44 8.04 ℃ 96.23 % 1024.28 hPa
2021-04-18 04:49:44 8.04 ℃ 99.13 % 1024.32 hPa
2021-04-18 04:39:44 8.1 ℃ 99.24 % 1024.38 hPa
2021-04-18 04:29:44 8.17 ℃ 98.48 % 1024.45 hPa
2021-04-18 04:19:44 8.23 ℃ 97.06 % 1024.49 hPa
2021-04-18 04:09:51 8.26 ℃ 95.36 % 1024.5 hPa
2021-04-18 03:59:44 8.25 ℃ 94.02 % 1024.52 hPa
2021-04-18 03:49:50 8.26 ℃ 92.83 % 1024.54 hPa
2021-04-18 03:39:46 8.31 ℃ 92.34 % 1024.58 hPa
2021-04-18 03:29:44 8.31 ℃ 92.24 % 1024.62 hPa
2021-04-18 03:19:44 8.35 ℃ 90.75 % 1024.66 hPa
2021-04-18 03:09:44 8.44 ℃ 88.11 % 1024.72 hPa
2021-04-18 02:59:44 8.57 ℃ 85.32 % 1024.76 hPa
2021-04-18 02:49:44 8.66 ℃ 84.78 % 1024.82 hPa
2021-04-18 02:29:44 8.88 ℃ 84.8 % 1024.9 hPa
2021-04-18 02:19:44 8.89 ℃ 85.99 % 1024.97 hPa
2021-04-18 01:59:44 9.07 ℃ 86.86 % 1025.05 hPa
2021-04-18 01:49:44 9.07 ℃ 87.33 % 1025.15 hPa
2021-04-18 01:39:44 9.09 ℃ 87.95 % 1025.19 hPa
2021-04-18 01:29:44 8.93 ℃ 89.7 % 1025.26 hPa
2021-04-18 01:19:44 8.96 ℃ 90.11 % 1025.33 hPa
2021-04-18 01:09:44 9.06 ℃ 89.97 % 1025.36 hPa
2021-04-18 00:59:44 9.16 ℃ 90.15 % 1025.43 hPa
2021-04-18 00:49:44 8.99 ℃ 88.31 % 1025.52 hPa
2021-04-18 00:39:45 9.16 ℃ 86.71 % 1025.54 hPa
2021-04-18 00:29:44 9.13 ℃ 86.03 % 1025.62 hPa
2021-04-18 00:19:58 9.2 ℃ 86.01 % 1025.65 hPa
2021-04-18 00:10:14 9.08 ℃ 87.25 % 1025.66 hPa
2021-04-17 23:49:44 9.17 ℃ 85.51 % 1025.6 hPa
2021-04-17 23:39:44 9.29 ℃ 84.86 % 1025.62 hPa
2021-04-17 23:29:44 9.43 ℃ 83.68 % 1025.63 hPa
2021-04-17 23:09:44 9.31 ℃ 81.45 % 1025.64 hPa
2021-04-17 22:59:44 9.39 ℃ 79.67 % 1025.68 hPa
2021-04-17 22:50:24 9.45 ℃ 78.24 % 1025.64 hPa
2021-04-17 22:39:46 9.43 ℃ 75.83 % 1025.67 hPa
2021-04-17 22:29:44 9.51 ℃ 73.24 % 1025.67 hPa
2021-04-17 22:19:44 9.65 ℃ 72.13 % 1025.68 hPa
2021-04-17 22:09:46 9.92 ℃ 70.79 % 1025.63 hPa
2021-04-17 21:59:46 9.75 ℃ 70.92 % 1025.64 hPa
2021-04-17 21:49:45 9.74 ℃ 71.15 % 1025.57 hPa
2021-04-17 21:39:44 9.73 ℃ 70.99 % 1025.54 hPa
2021-04-17 21:29:46 9.79 ℃ 70.7 % 1025.52 hPa
2021-04-17 21:19:44 9.84 ℃ 69.91 % 1025.44 hPa
2021-04-17 21:09:44 9.96 ℃ 69.58 % 1025.4 hPa
2021-04-17 20:59:45 10 ℃ 70.65 % 1025.38 hPa
2021-04-17 20:49:45 10.09 ℃ 70.37 % 1025.38 hPa
2021-04-17 20:39:45 10.22 ℃ 69.04 % 1025.37 hPa
2021-04-17 20:29:45 10.33 ℃ 68.57 % 1025.35 hPa
2021-04-17 20:19:45 10.43 ℃ 67.29 % 1025.33 hPa
2021-04-17 20:09:45 10.62 ℃ 66.52 % 1025.27 hPa
2021-04-17 19:59:45 10.65 ℃ 66.65 % 1025.22 hPa
2021-04-17 19:49:45 10.72 ℃ 66.64 % 1025.2 hPa
2021-04-17 19:39:45 10.86 ℃ 66.13 % 1025.15 hPa
2021-04-17 19:29:45 10.98 ℃ 66.23 % 1025.11 hPa
2021-04-17 19:19:45 10.96 ℃ 66.67 % 1025.02 hPa
2021-04-17 19:09:45 11.05 ℃ 66.31 % 1024.98 hPa
2021-04-17 18:59:58 11.17 ℃ 66.21 % 1024.94 hPa
2021-04-17 18:49:45 11.35 ℃ 65.89 % 1024.95 hPa
2021-04-17 18:39:46 11.53 ℃ 65.7 % 1024.95 hPa
2021-04-17 18:29:45 11.08 ℃ 65.66 % 1024.99 hPa
2021-04-17 18:19:46 11.1 ℃ 64.07 % 1025 hPa
2021-04-17 18:09:45 11.15 ℃ 61.9 % 1025.03 hPa
2021-04-17 17:59:45 11.32 ℃ 59 % 1025.05 hPa
2021-04-17 17:49:45 11.47 ℃ 56.8 % 1025.05 hPa
2021-04-17 17:39:51 11.26 ℃ 57.22 % 1025.09 hPa
2021-04-17 17:29:45 11.22 ℃ 57.32 % 1025.15 hPa
2021-04-17 17:19:45 11.46 ℃ 56.17 % 1025.19 hPa
2021-04-17 17:09:57 11.77 ℃ 54.32 % 1025.16 hPa
2021-04-17 16:59:59 11.84 ℃ 53.31 % 1025.18 hPa
2021-04-17 16:49:45 11.79 ℃ 53.42 % 1025.21 hPa
2021-04-17 16:39:45 11.65 ℃ 54.01 % 1025.24 hPa
2021-04-17 16:29:47 11.43 ℃ 54.43 % 1025.31 hPa
2021-04-17 16:19:45 11.55 ℃ 53.6 % 1025.35 hPa
2021-04-17 16:11:16 11.44 ℃ 53.98 % 1025.38 hPa
2021-04-17 15:59:53 11.23 ℃ 53.77 % 1025.43 hPa
2021-04-17 15:49:45 11.31 ℃ 53.25 % 1025.4 hPa
2021-04-17 15:39:45 11.37 ℃ 53.09 % 1025.45 hPa
2021-04-17 15:29:45 11.16 ℃ 54.8 % 1025.45 hPa
2021-04-17 15:19:45 11.1 ℃ 55.27 % 1025.47 hPa
2021-04-17 15:09:45 11.44 ℃ 53.47 % 1025.49 hPa
2021-04-17 15:00:08 11.41 ℃ 53.6 % 1025.54 hPa
2021-04-17 14:49:45 11.29 ℃ 53.78 % 1025.53 hPa
2021-04-17 14:39:45 11.36 ℃ 53.61 % 1025.56 hPa
2021-04-17 14:29:47 11.23 ℃ 54.76 % 1025.59 hPa
2021-04-17 14:19:45 11.37 ℃ 57.11 % 1025.59 hPa
2021-04-17 14:09:45 11.1 ℃ 56.36 % 1025.62 hPa
2021-04-17 13:59:45 10.83 ℃ 58.13 % 1025.68 hPa
2021-04-17 13:50:23 10.85 ℃ 59.35 % 1025.69 hPa
2021-04-17 13:39:45 10.77 ℃ 60.13 % 1025.7 hPa
2021-04-17 13:29:45 10.58 ℃ 62.57 % 1025.71 hPa
2021-04-17 13:19:47 10.28 ℃ 64.44 % 1025.74 hPa
2021-04-17 13:09:45 10.35 ℃ 64.65 % 1025.7 hPa
2021-04-17 12:59:45 10.12 ℃ 63.47 % 1025.71 hPa
2021-04-17 12:49:45 10.15 ℃ 62.12 % 1025.73 hPa
2021-04-17 12:39:56 10.06 ℃ 62.6 % 1025.74 hPa
2021-04-17 12:29:45 9.86 ℃ 65.15 % 1025.79 hPa
2021-04-17 12:09:47 9.59 ℃ 69.78 % 1026.01 hPa
2021-04-17 11:59:46 9.68 ℃ 69.17 % 1026.1 hPa
2021-04-17 11:49:45 9.56 ℃ 68.09 % 1026.15 hPa
2021-04-17 11:39:45 9.65 ℃ 67.3 % 1026.15 hPa
2021-04-17 11:29:51 9.68 ℃ 66.08 % 1026.11 hPa
2021-04-17 11:19:47 9.65 ℃ 63.61 % 1026.11 hPa
2021-04-17 11:09:47 9.39 ℃ 64.71 % 1026.13 hPa
2021-04-17 10:59:45 9.19 ℃ 66.82 % 1026.16 hPa
2021-04-17 10:49:47 9.16 ℃ 69.01 % 1026.14 hPa
2021-04-17 10:39:46 8.99 ℃ 68.91 % 1026.19 hPa
2021-04-17 10:30:08 8.71 ℃ 69.49 % 1026.21 hPa
2021-04-17 10:19:46 8.67 ℃ 68.54 % 1026.16 hPa
2021-04-17 10:09:46 8.74 ℃ 68.75 % 1026.12 hPa
2021-04-17 09:59:55 8.86 ℃ 69.74 % 1026.08 hPa
2021-04-17 09:49:46 8.71 ℃ 73.09 % 1026.09 hPa
2021-04-17 09:39:46 8.59 ℃ 74.09 % 1026.05 hPa
2021-04-17 09:29:46 8.29 ℃ 76.53 % 1026.1 hPa
2021-04-17 09:19:46 8.28 ℃ 78.74 % 1026 hPa
2021-04-17 09:09:46 8.27 ℃ 79.96 % 1026 hPa
2021-04-17 08:59:46 8.25 ℃ 81.11 % 1026.04 hPa
2021-04-17 08:49:51 8.22 ℃ 82.47 % 1026.05 hPa
2021-04-17 08:39:49 8.09 ℃ 87.11 % 1026.09 hPa
2021-04-17 08:29:46 7.69 ℃ 94.22 % 1026.16 hPa
2021-04-17 08:19:46 7.39 ℃ 98.49 % 1026.17 hPa
2021-04-17 08:09:46 6.81 ℃ 100 % 1026.19 hPa
2021-04-17 07:59:51 6.49 ℃ 100 % 1026.27 hPa
2021-04-17 07:49:46 6.13 ℃ 99.99 % 1026.33 hPa
2021-04-17 07:39:46 5.88 ℃ 99.99 % 1026.39 hPa
2021-04-17 07:29:46 5.65 ℃ 99.97 % 1026.41 hPa
2021-04-17 07:19:46 5.55 ℃ 99.94 % 1026.43 hPa
2021-04-17 06:59:46 5.34 ℃ 99.77 % 1026.48 hPa
2021-04-17 06:49:46 5.5 ℃ 99.54 % 1026.51 hPa
2021-04-17 06:39:46 5.72 ℃ 99.07 % 1026.45 hPa
2021-04-17 06:29:48 5.72 ℃ 98.41 % 1026.49 hPa
2021-04-17 06:19:46 5.58 ℃ 97.69 % 1026.5 hPa
2021-04-17 06:09:46 5.53 ℃ 97.18 % 1026.5 hPa
2021-04-17 05:49:46 5.97 ℃ 91.53 % 1026.5 hPa
2021-04-17 05:39:46 5.97 ℃ 90.67 % 1026.48 hPa
2021-04-17 05:29:46 6.11 ℃ 88.76 % 1026.49 hPa
2021-04-17 05:19:46 6.51 ℃ 86.34 % 1026.49 hPa
2021-04-17 05:09:46 6.49 ℃ 86.8 % 1026.52 hPa
2021-04-17 04:59:46 6.64 ℃ 84.03 % 1026.57 hPa
2021-04-17 04:49:46 6.66 ℃ 84.01 % 1026.65 hPa
2021-04-17 04:39:46 6.63 ℃ 83.4 % 1026.75 hPa
2021-04-17 04:29:46 6.59 ℃ 83.75 % 1026.83 hPa
2021-04-17 04:19:46 6.25 ℃ 83.58 % 1026.89 hPa
2021-04-17 04:09:46 5.88 ℃ 84.56 % 1026.97 hPa
2021-04-17 03:59:46 5.65 ℃ 85.39 % 1026.99 hPa
2021-04-17 03:49:46 5.6 ℃ 85.65 % 1027.02 hPa
2021-04-17 03:39:46 5.55 ℃ 86.23 % 1027.07 hPa
2021-04-17 03:29:46 5.49 ℃ 87.18 % 1027.13 hPa
2021-04-17 03:20:23 5.42 ℃ 89.18 % 1027.19 hPa
2021-04-17 02:49:52 5.58 ℃ 91.55 % 1027.35 hPa
2021-04-17 02:39:46 5.88 ℃ 91.13 % 1027.38 hPa
2021-04-17 02:29:46 5.86 ℃ 92.6 % 1027.45 hPa
2021-04-17 02:19:46 5.79 ℃ 93.22 % 1027.55 hPa
2021-04-17 02:09:46 5.84 ℃ 94.81 % 1027.63 hPa
2021-04-17 01:59:46 6.03 ℃ 92.83 % 1027.7 hPa
2021-04-17 01:49:46 6.28 ℃ 89.09 % 1027.8 hPa
2021-04-17 01:39:46 6.62 ℃ 84.76 % 1027.85 hPa
2021-04-17 01:29:46 6.6 ℃ 84.01 % 1027.93 hPa
2021-04-17 01:19:46 6.47 ℃ 83.86 % 1028.03 hPa
2021-04-17 01:09:50 6.42 ℃ 82.18 % 1028.1 hPa
2021-04-17 00:59:46 6.5 ℃ 81.01 % 1028.15 hPa
2021-04-17 00:49:46 6.71 ℃ 80.47 % 1028.22 hPa
2021-04-17 00:39:46 6.77 ℃ 80.54 % 1028.26 hPa
2021-04-17 00:29:47 7.09 ℃ 79.77 % 1028.33 hPa
2021-04-17 00:19:47 7.17 ℃ 79.19 % 1028.39 hPa
2021-04-17 00:09:47 6.91 ℃ 79.71 % 1028.42 hPa
2021-04-16 23:59:49 7.1 ℃ 79.08 % 1028.45 hPa
2021-04-16 23:49:47 7.14 ℃ 78.72 % 1028.48 hPa
2021-04-16 23:29:47 7.12 ℃ 83.35 % 1028.51 hPa
2021-04-16 23:19:48 7.08 ℃ 84.42 % 1028.53 hPa
2021-04-16 23:09:47 7.12 ℃ 82.49 % 1028.5 hPa
2021-04-16 22:59:47 7.28 ℃ 78.66 % 1028.48 hPa
2021-04-16 22:49:47 7.51 ℃ 74.54 % 1028.51 hPa
2021-04-16 22:39:47 7.74 ℃ 70.66 % 1028.52 hPa
2021-04-16 22:29:47 7.97 ℃ 67.57 % 1028.48 hPa
2021-04-16 22:19:47 7.98 ℃ 66.67 % 1028.49 hPa
2021-04-16 22:09:47 8.1 ℃ 65.58 % 1028.54 hPa
2021-04-16 21:59:47 8.23 ℃ 64.73 % 1028.55 hPa
2021-04-16 21:49:47 8.44 ℃ 63.43 % 1028.56 hPa
2021-04-16 21:39:47 8.63 ℃ 62.18 % 1028.61 hPa
2021-04-16 21:29:47 8.83 ℃ 61.18 % 1028.64 hPa
2021-04-16 21:19:58 8.83 ℃ 60.34 % 1028.61 hPa
2021-04-16 21:09:47 8.92 ℃ 59.55 % 1028.58 hPa
2021-04-16 21:00:17 8.79 ℃ 59.46 % 1028.51 hPa
2021-04-16 20:50:10 8.86 ℃ 58.1 % 1028.5 hPa
2021-04-16 20:40:01 8.97 ℃ 56.25 % 1028.47 hPa
2021-04-16 20:29:47 9.17 ℃ 54.03 % 1028.43 hPa
2021-04-16 20:19:47 9.25 ℃ 52.73 % 1028.43 hPa
2021-04-16 20:09:47 9.46 ℃ 50.84 % 1028.44 hPa
2021-04-16 19:59:47 9.13 ℃ 51.14 % 1028.5 hPa
2021-04-16 19:49:53 9.25 ℃ 49.47 % 1028.55 hPa
2021-04-16 19:39:47 9.51 ℃ 47.39 % 1028.55 hPa
2021-04-16 19:29:47 9.51 ℃ 46.44 % 1028.56 hPa
2021-04-16 19:19:47 9.49 ℃ 46.77 % 1028.52 hPa
2021-04-16 19:09:50 9.62 ℃ 47.24 % 1028.56 hPa
2021-04-16 19:00:17 9.55 ℃ 47.6 % 1028.54 hPa
2021-04-16 18:49:47 9.82 ℃ 45.98 % 1028.53 hPa
2021-04-16 18:39:47 10.01 ℃ 45.25 % 1028.57 hPa
2021-04-16 18:29:56 10 ℃ 44.7 % 1028.61 hPa
2021-04-16 18:19:56 10.08 ℃ 44.06 % 1028.62 hPa
2021-04-16 18:09:47 9.98 ℃ 44.47 % 1028.67 hPa
2021-04-16 17:59:47 9.93 ℃ 43.72 % 1028.7 hPa
2021-04-16 17:49:47 10.05 ℃ 43.11 % 1028.76 hPa
2021-04-16 17:39:47 9.75 ℃ 42.9 % 1028.86 hPa
2021-04-16 17:29:47 9.81 ℃ 41.97 % 1028.95 hPa
2021-04-16 17:19:47 9.7 ℃ 41.53 % 1029.03 hPa
2021-04-16 17:09:47 9.85 ℃ 40.91 % 1029.08 hPa
2021-04-16 17:00:01 9.75 ℃ 41.24 % 1029.13 hPa
2021-04-16 16:49:47 9.68 ℃ 41.58 % 1029.11 hPa
2021-04-16 16:39:47 9.7 ℃ 42.42 % 1029.16 hPa
2021-04-16 16:29:47 9.85 ℃ 43.46 % 1029.23 hPa
2021-04-16 16:19:47 9.84 ℃ 46.15 % 1029.23 hPa
2021-04-16 16:10:20 9.68 ℃ 46.57 % 1029.27 hPa
2021-04-16 15:59:47 9.55 ℃ 46.73 % 1029.34 hPa
2021-04-16 15:49:47 9.66 ℃ 44.99 % 1029.39 hPa
2021-04-16 15:39:47 9.63 ℃ 43.4 % 1029.43 hPa
2021-04-16 15:29:47 9.74 ℃ 42.69 % 1029.47 hPa
2021-04-16 15:19:47 9.78 ℃ 42.37 % 1029.51 hPa
2021-04-16 15:09:47 9.64 ℃ 41.8 % 1029.64 hPa
2021-04-16 14:59:47 9.84 ℃ 41.56 % 1029.64 hPa
2021-04-16 14:49:47 9.73 ℃ 41.72 % 1029.66 hPa
2021-04-16 14:39:47 9.47 ℃ 42.12 % 1029.71 hPa
2021-04-16 14:29:47 9.17 ℃ 41.4 % 1029.82 hPa
2021-04-16 14:19:51 9.29 ℃ 38.96 % 1029.85 hPa
2021-04-16 14:09:47 9.15 ℃ 36.92 % 1029.96 hPa
2021-04-16 14:00:01 8.99 ℃ 36.68 % 1029.99 hPa
2021-04-16 13:49:47 8.86 ℃ 38.33 % 1029.99 hPa
2021-04-16 13:39:48 8.8 ℃ 41.92 % 1029.97 hPa
2021-04-16 13:29:48 8.85 ℃ 42.15 % 1029.99 hPa
2021-04-16 13:19:48 8.93 ℃ 42 % 1030.04 hPa
2021-04-16 13:09:48 8.89 ℃ 43.03 % 1030.16 hPa
2021-04-16 12:59:49 8.72 ℃ 44.12 % 1030.25 hPa
2021-04-16 12:49:48 8.78 ℃ 45.93 % 1030.37 hPa
2021-04-16 12:39:48 8.64 ℃ 50.86 % 1030.53 hPa
2021-04-16 12:29:58 8.38 ℃ 54.8 % 1030.59 hPa
2021-04-16 12:19:50 8.39 ℃ 56.7 % 1030.53 hPa
2021-04-16 12:09:51 8.44 ℃ 57.54 % 1030.52 hPa
2021-04-16 11:59:48 8.51 ℃ 56.87 % 1030.53 hPa
2021-04-16 11:50:02 8.42 ℃ 56.84 % 1030.51 hPa
2021-04-16 11:39:48 8.36 ℃ 56.26 % 1030.47 hPa
2021-04-16 11:29:48 8.45 ℃ 54.55 % 1030.52 hPa
2021-04-16 11:19:48 8.48 ℃ 55.93 % 1030.52 hPa
2021-04-16 11:09:48 8.44 ℃ 53.63 % 1030.46 hPa
2021-04-16 10:59:48 8.56 ℃ 52.79 % 1030.51 hPa
2021-04-16 10:49:48 8.49 ℃ 52.66 % 1030.54 hPa
2021-04-16 10:39:48 8.28 ℃ 53.42 % 1030.55 hPa
2021-04-16 10:29:48 8 ℃ 52.36 % 1030.58 hPa
2021-04-16 10:19:50 8.05 ℃ 53.94 % 1030.58 hPa
2021-04-16 10:09:48 8.11 ℃ 56.62 % 1030.41 hPa
2021-04-16 09:59:48 7.69 ℃ 62.37 % 1030.39 hPa
2021-04-16 09:49:48 7.68 ℃ 67.57 % 1030.37 hPa
2021-04-16 09:39:48 7.59 ℃ 73.4 % 1030.41 hPa
2021-04-16 09:29:48 7.57 ℃ 81.46 % 1030.31 hPa
2021-04-16 09:19:48 7.35 ℃ 89.13 % 1030.33 hPa
2021-04-16 09:09:48 7.24 ℃ 92.45 % 1030.38 hPa
2021-04-16 08:59:48 7.02 ℃ 96.79 % 1030.41 hPa
2021-04-16 08:49:48 6.82 ℃ 100 % 1030.43 hPa
2021-04-16 08:39:48 6.72 ℃ 100 % 1030.41 hPa
2021-04-16 08:30:00 6.79 ℃ 100 % 1030.38 hPa
2021-04-16 08:19:54 6.82 ℃ 100 % 1030.4 hPa
2021-04-16 08:09:57 6.75 ℃ 100 % 1030.32 hPa
2021-04-16 07:59:48 6.78 ℃ 100 % 1030.24 hPa
2021-04-16 07:49:48 6.55 ℃ 100 % 1030.19 hPa
2021-04-16 07:39:48 6.16 ℃ 100 % 1030.17 hPa
2021-04-16 07:29:48 5.86 ℃ 100 % 1030.09 hPa
2021-04-16 07:19:48 5.79 ℃ 100 % 1030.01 hPa
2021-04-16 07:09:48 5.65 ℃ 100 % 1029.97 hPa
2021-04-16 06:59:51 5.7 ℃ 100 % 1029.9 hPa
2021-04-16 06:49:48 5.6 ℃ 100 % 1029.84 hPa
2021-04-16 06:39:48 5.4 ℃ 100 % 1029.81 hPa
2021-04-16 06:29:48 5.35 ℃ 100 % 1029.79 hPa
2021-04-16 06:19:48 5.52 ℃ 100 % 1029.76 hPa
2021-04-16 06:09:48 5.14 ℃ 100 % 1029.75 hPa
2021-04-16 05:59:48 5.45 ℃ 100 % 1029.64 hPa
2021-04-16 05:49:49 5.54 ℃ 100 % 1029.61 hPa
2021-04-16 05:39:48 5.65 ℃ 100 % 1029.57 hPa
2021-04-16 05:29:48 5.66 ℃ 99.99 % 1029.56 hPa
2021-04-16 05:19:48 5.56 ℃ 99.99 % 1029.55 hPa
2021-04-16 05:09:48 5.43 ℃ 99.97 % 1029.59 hPa
2021-04-16 04:59:48 5.31 ℃ 99.95 % 1029.65 hPa
2021-04-16 04:49:48 5.07 ℃ 99.9 % 1029.68 hPa
2021-04-16 04:39:48 5 ℃ 99.8 % 1029.71 hPa
2021-04-16 04:29:48 4.88 ℃ 99.59 % 1029.76 hPa
2021-04-16 04:19:48 5.05 ℃ 99.18 % 1029.76 hPa
2021-04-16 04:09:54 5.12 ℃ 98.36 % 1029.8 hPa
2021-04-16 03:59:48 5.17 ℃ 96.73 % 1029.82 hPa
2021-04-16 03:49:49 5.38 ℃ 93.45 % 1029.84 hPa
2021-04-16 03:39:48 5.43 ℃ 90.59 % 1029.87 hPa
2021-04-16 03:29:48 5.77 ℃ 86.49 % 1029.91 hPa
2021-04-16 03:19:49 6.38 ℃ 81.55 % 1029.92 hPa
2021-04-16 03:09:49 6.95 ℃ 77.8 % 1029.94 hPa
2021-04-16 02:59:49 6.67 ℃ 78.91 % 1029.98 hPa
2021-04-16 02:49:49 6.54 ℃ 79.44 % 1030.03 hPa
2021-04-16 02:39:49 6.46 ℃ 80.49 % 1030.08 hPa
2021-04-16 02:29:49 6.72 ℃ 79.73 % 1030.15 hPa
2021-04-16 02:19:49 6.81 ℃ 80.07 % 1030.24 hPa
2021-04-16 02:09:49 6.98 ℃ 78.14 % 1030.34 hPa
2021-04-16 02:00:06 6.89 ℃ 78.71 % 1030.4 hPa
2021-04-16 01:49:49 6.75 ℃ 79 % 1030.44 hPa
2021-04-16 01:39:49 6.58 ℃ 80.81 % 1030.5 hPa
2021-04-16 01:29:49 6.65 ℃ 81.7 % 1030.55 hPa
2021-04-16 01:19:49 6.43 ℃ 82.95 % 1030.61 hPa
2021-04-16 01:09:49 6.24 ℃ 83.01 % 1030.66 hPa
2021-04-16 00:59:49 6.32 ℃ 81.91 % 1030.7 hPa
2021-04-16 00:49:49 6.41 ℃ 80.59 % 1030.77 hPa
2021-04-16 00:39:52 6.6 ℃ 78.82 % 1030.86 hPa
2021-04-16 00:29:49 6.63 ℃ 78.66 % 1030.89 hPa
2021-04-16 00:19:49 6.66 ℃ 78.04 % 1030.95 hPa
2021-04-15 23:59:58 6.89 ℃ 74.1 % 1031.01 hPa
2021-04-15 23:39:49 7.2 ℃ 68.93 % 1031.12 hPa
2021-04-15 23:29:49 7.23 ℃ 66.91 % 1031.2 hPa
2021-04-15 23:19:52 7.3 ℃ 64.69 % 1031.22 hPa
2021-04-15 23:09:49 7.45 ℃ 62.56 % 1031.23 hPa
2021-04-15 22:59:49 7.58 ℃ 61.06 % 1031.25 hPa
2021-04-15 22:49:49 7.63 ℃ 60.7 % 1031.29 hPa
2021-04-15 22:39:49 7.73 ℃ 59.66 % 1031.33 hPa
2021-04-15 22:30:51 7.79 ℃ 59.47 % 1031.33 hPa
2021-04-15 22:19:49 7.93 ℃ 59.61 % 1031.38 hPa
2021-04-15 22:09:49 7.91 ℃ 60.71 % 1031.41 hPa
2021-04-15 21:59:49 7.96 ℃ 61.33 % 1031.45 hPa
2021-04-15 21:49:49 7.91 ℃ 62.23 % 1031.51 hPa
2021-04-15 21:39:49 7.88 ℃ 64.02 % 1031.51 hPa
2021-04-15 21:29:49 7.89 ℃ 64.52 % 1031.5 hPa
2021-04-15 21:19:49 7.87 ℃ 65.48 % 1031.49 hPa
2021-04-15 21:09:49 7.88 ℃ 65.5 % 1031.5 hPa
2021-04-15 20:59:52 7.84 ℃ 64.34 % 1031.44 hPa
2021-04-15 20:49:58 7.93 ℃ 62.85 % 1031.41 hPa
2021-04-15 20:39:49 7.98 ℃ 60.92 % 1031.33 hPa
2021-04-15 20:29:49 8.03 ℃ 58.67 % 1031.29 hPa
2021-04-15 20:19:49 8.21 ℃ 55.9 % 1031.25 hPa
2021-04-15 20:09:49 8.28 ℃ 53.7 % 1031.2 hPa
2021-04-15 19:59:49 8.39 ℃ 51.89 % 1031.2 hPa
2021-04-15 19:49:50 8.56 ℃ 49.79 % 1031.2 hPa
2021-04-15 19:39:49 8.74 ℃ 48.65 % 1031.18 hPa
2021-04-15 19:30:11 8.88 ℃ 47.64 % 1031.2 hPa
2021-04-15 19:19:49 8.85 ℃ 46.73 % 1031.21 hPa
2021-04-15 19:09:49 8.8 ℃ 46.73 % 1031.28 hPa
2021-04-15 19:00:03 8.82 ℃ 45.31 % 1031.31 hPa
2021-04-15 18:49:49 8.85 ℃ 43.22 % 1031.31 hPa
2021-04-15 18:39:49 8.87 ℃ 42.2 % 1031.28 hPa
2021-04-15 18:29:49 8.96 ℃ 40.28 % 1031.29 hPa
2021-04-15 18:19:55 9 ℃ 39.08 % 1031.35 hPa
2021-04-15 18:09:49 9.16 ℃ 39.24 % 1031.35 hPa
2021-04-15 17:59:49 9.08 ℃ 39.43 % 1031.4 hPa
2021-04-15 17:49:49 9.25 ℃ 39.34 % 1031.44 hPa
2021-04-15 17:39:49 9.28 ℃ 38.69 % 1031.49 hPa
2021-04-15 17:29:50 9.34 ℃ 38.47 % 1031.55 hPa
2021-04-15 17:20:03 9.31 ℃ 38.74 % 1031.59 hPa
2021-04-15 17:09:50 9.51 ℃ 37.68 % 1031.63 hPa
2021-04-15 16:59:51 9.43 ℃ 36.42 % 1031.68 hPa
2021-04-15 16:49:50 9.55 ℃ 34.72 % 1031.64 hPa
2021-04-15 16:40:03 9.46 ℃ 35.37 % 1031.72 hPa
2021-04-15 16:29:50 9.47 ℃ 35.75 % 1031.76 hPa
2021-04-15 16:19:50 9.65 ℃ 35.12 % 1031.78 hPa
2021-04-15 16:10:19 9.97 ℃ 34.55 % 1031.79 hPa
2021-04-15 15:59:50 9.9 ℃ 37.14 % 1031.88 hPa
2021-04-15 15:49:50 9.55 ℃ 39.81 % 1031.99 hPa
2021-04-15 15:39:53 9.26 ℃ 40.72 % 1032.15 hPa
2021-04-15 15:29:50 9.26 ℃ 41.15 % 1032.17 hPa
2021-04-15 15:09:50 9.22 ℃ 46.54 % 1032.22 hPa
2021-04-15 14:59:50 9.25 ℃ 51.32 % 1032.22 hPa
2021-04-15 14:49:50 9.12 ℃ 56.4 % 1032.32 hPa
2021-04-15 14:39:50 9.37 ℃ 63.96 % 1032.33 hPa
2021-04-15 14:29:50 9.06 ℃ 68.64 % 1032.43 hPa
2021-04-15 14:19:50 9.18 ℃ 69.08 % 1032.45 hPa
2021-04-15 14:09:50 8.92 ℃ 70.75 % 1032.56 hPa
2021-04-15 13:59:50 8.82 ℃ 72.05 % 1032.51 hPa
2021-04-15 13:49:50 8.86 ℃ 75.94 % 1032.52 hPa
2021-04-15 13:40:37 8.6 ℃ 77.66 % 1032.57 hPa
2021-04-15 13:29:50 8.74 ℃ 74.57 % 1032.65 hPa
2021-04-15 13:19:50 8.79 ℃ 69.29 % 1032.7 hPa
2021-04-15 13:09:50 8.91 ℃ 71.41 % 1032.75 hPa
2021-04-15 12:59:50 8.57 ℃ 74.16 % 1032.74 hPa
2021-04-15 12:49:50 8.55 ℃ 76.12 % 1032.77 hPa
2021-04-15 12:39:50 8.57 ℃ 84.78 % 1032.77 hPa
2021-04-15 12:29:50 8.6 ℃ 89.13 % 1032.8 hPa
2021-04-15 12:19:58 8.19 ℃ 90.59 % 1032.85 hPa
2021-04-15 12:09:50 8.35 ℃ 87.19 % 1032.83 hPa
2021-04-15 11:59:50 8.13 ℃ 87.76 % 1032.87 hPa
2021-04-15 11:49:58 8.11 ℃ 88.96 % 1032.88 hPa
2021-04-15 11:39:50 8.13 ℃ 92.43 % 1032.9 hPa
2021-04-15 11:29:50 8.01 ℃ 92.95 % 1032.9 hPa
2021-04-15 11:19:50 7.82 ℃ 95.04 % 1032.91 hPa
2021-04-15 11:09:50 7.61 ℃ 96.74 % 1032.92 hPa
2021-04-15 10:59:50 7.34 ℃ 98.56 % 1032.94 hPa
2021-04-15 10:49:50 7.26 ℃ 99.16 % 1033.01 hPa
2021-04-15 10:39:50 7.32 ℃ 99.59 % 1032.89 hPa
2021-04-15 10:29:50 7.39 ℃ 99.17 % 1032.86 hPa
2021-04-15 10:19:50 7.44 ℃ 99.7 % 1032.8 hPa
2021-04-15 10:09:50 7.49 ℃ 99.39 % 1032.72 hPa
2021-04-15 09:59:52 7.19 ℃ 100 % 1032.72 hPa
2021-04-15 09:49:50 7.34 ℃ 100 % 1032.68 hPa
2021-04-15 09:39:50 7.41 ℃ 100 % 1032.65 hPa
2021-04-15 09:29:50 7.13 ℃ 100 % 1032.61 hPa
2021-04-15 09:19:50 6.92 ℃ 100 % 1032.62 hPa
2021-04-15 09:09:50 6.92 ℃ 100 % 1032.64 hPa
2021-04-15 08:59:50 6.69 ℃ 100 % 1032.63 hPa
2021-04-15 08:49:56 6.69 ℃ 100 % 1032.64 hPa
2021-04-15 08:39:50 7.06 ℃ 100 % 1032.57 hPa
2021-04-15 08:29:50 7.29 ℃ 100 % 1032.52 hPa
2021-04-15 08:19:50 6.68 ℃ 100 % 1032.51 hPa
2021-04-15 08:09:52 5.77 ℃ 100 % 1032.51 hPa
2021-04-15 07:59:50 5.59 ℃ 100 % 1032.45 hPa
2021-04-15 07:49:50 5.42 ℃ 100 % 1032.37 hPa
2021-04-15 07:39:50 5.15 ℃ 100 % 1032.3 hPa
2021-04-15 07:29:50 5.25 ℃ 100 % 1032.26 hPa
2021-04-15 07:19:56 5.17 ℃ 100 % 1032.19 hPa
2021-04-15 07:09:50 4.92 ℃ 100 % 1032.15 hPa
2021-04-15 06:59:52 4.66 ℃ 100 % 1032.09 hPa
2021-04-15 06:49:50 4.55 ℃ 100 % 1032.03 hPa
2021-04-15 06:39:50 4.35 ℃ 100 % 1032 hPa
2021-04-15 06:29:54 4.36 ℃ 100 % 1031.93 hPa
2021-04-15 06:19:51 4.54 ℃ 100 % 1031.84 hPa
2021-04-15 06:09:52 4.46 ℃ 100 % 1031.81 hPa
2021-04-15 05:59:54 4.53 ℃ 100 % 1031.76 hPa
2021-04-15 05:49:51 4.77 ℃ 100 % 1031.69 hPa
2021-04-15 05:39:51 4.88 ℃ 100 % 1031.67 hPa
2021-04-15 05:29:51 4.84 ℃ 100 % 1031.66 hPa
2021-04-15 05:19:51 4.77 ℃ 100 % 1031.65 hPa
2021-04-15 05:09:51 4.76 ℃ 100 % 1031.61 hPa
2021-04-15 04:59:51 4.7 ℃ 100 % 1031.57 hPa
2021-04-15 04:49:51 4.73 ℃ 100 % 1031.55 hPa
2021-04-15 04:39:51 4.76 ℃ 100 % 1031.54 hPa
2021-04-15 04:29:51 4.89 ℃ 100 % 1031.56 hPa
2021-04-15 04:19:51 4.98 ℃ 100 % 1031.55 hPa
2021-04-15 04:09:51 4.87 ℃ 100 % 1031.53 hPa
2021-04-15 03:59:51 4.86 ℃ 100 % 1031.5 hPa
2021-04-15 03:49:51 4.74 ℃ 99.99 % 1031.45 hPa
2021-04-15 03:39:51 4.69 ℃ 99.99 % 1031.42 hPa
2021-04-15 03:29:51 4.7 ℃ 99.97 % 1031.4 hPa
2021-04-15 03:20:00 4.74 ℃ 99.94 % 1031.36 hPa
2021-04-15 03:09:51 4.69 ℃ 99.88 % 1031.37 hPa
2021-04-15 02:59:51 4.7 ℃ 99.77 % 1031.37 hPa
2021-04-15 02:49:51 4.73 ℃ 99.54 % 1031.38 hPa
2021-04-15 02:39:57 4.82 ℃ 99.07 % 1031.36 hPa
2021-04-15 02:29:51 4.73 ℃ 98.15 % 1031.38 hPa
2021-04-15 02:20:19 4.79 ℃ 96.3 % 1031.4 hPa
2021-04-15 02:10:21 4.71 ℃ 93.56 % 1031.38 hPa
2021-04-15 01:59:51 4.7 ℃ 90.04 % 1031.37 hPa
2021-04-15 01:49:51 4.73 ℃ 87.48 % 1031.37 hPa
2021-04-15 01:39:51 4.9 ℃ 84.01 % 1031.36 hPa
2021-04-15 01:29:51 5.19 ℃ 78.39 % 1031.4 hPa
2021-04-15 01:19:51 5.36 ℃ 74.79 % 1031.39 hPa
2021-04-15 01:09:51 5.2 ℃ 74.52 % 1031.36 hPa
2021-04-15 00:59:51 5.17 ℃ 73.51 % 1031.35 hPa
2021-04-15 00:49:51 5.34 ℃ 71.33 % 1031.33 hPa
2021-04-15 00:39:51 5.6 ℃ 69.83 % 1031.27 hPa
2021-04-15 00:29:51 5.96 ℃ 67 % 1031.18 hPa
2021-04-15 00:19:51 6.65 ℃ 62.89 % 1031.15 hPa
2021-04-15 00:09:51 6.4 ℃ 64.02 % 1031.14 hPa
2021-04-14 23:59:51 6.14 ℃ 63.73 % 1031.14 hPa
2021-04-14 23:49:51 5.92 ℃ 63.58 % 1031.14 hPa
2021-04-14 23:39:51 5.89 ℃ 62.45 % 1031.14 hPa
2021-04-14 23:29:51 6.37 ℃ 59.64 % 1031.1 hPa
2021-04-14 23:19:51 6.65 ℃ 57.89 % 1031.05 hPa
2021-04-14 23:09:51 6.74 ℃ 58.1 % 1031 hPa
2021-04-14 22:59:51 6.56 ℃ 58.54 % 1030.93 hPa
2021-04-14 22:49:51 6.86 ℃ 58.53 % 1030.87 hPa
2021-04-14 22:39:51 7.15 ℃ 60.51 % 1030.77 hPa
2021-04-14 22:30:00 7.57 ℃ 59.63 % 1030.66 hPa
2021-04-14 22:19:51 8.05 ℃ 58.55 % 1030.52 hPa
2021-04-14 22:09:54 8.24 ℃ 57.96 % 1030.47 hPa
2021-04-14 21:59:51 8.54 ℃ 56.98 % 1030.4 hPa
2021-04-14 21:49:51 8.41 ℃ 57.34 % 1030.37 hPa
2021-04-14 21:39:51 8 ℃ 55.78 % 1030.36 hPa
2021-04-14 21:29:51 7.76 ℃ 53.92 % 1030.32 hPa
2021-04-14 21:19:51 7.94 ℃ 52.3 % 1030.21 hPa
2021-04-14 21:09:51 7.44 ℃ 51.12 % 1030.17 hPa
2021-04-14 20:59:51 7.37 ℃ 49.56 % 1030.12 hPa
2021-04-14 20:39:51 7.38 ℃ 43.9 % 1029.99 hPa
2021-04-14 20:29:51 7.46 ℃ 41.24 % 1029.92 hPa
2021-04-14 20:10:00 7.66 ℃ 41.9 % 1029.75 hPa
2021-04-14 19:59:52 7.72 ℃ 44.73 % 1029.74 hPa
2021-04-14 19:49:52 7.88 ℃ 46.02 % 1029.71 hPa
2021-04-14 19:39:52 8.13 ℃ 47.17 % 1029.62 hPa
2021-04-14 19:19:52 8.23 ℃ 45.61 % 1029.47 hPa
2021-04-14 19:09:52 8.11 ℃ 45.05 % 1029.43 hPa
2021-04-14 18:59:52 8.34 ℃ 43.31 % 1029.38 hPa
2021-04-14 18:50:07 8.45 ℃ 42.18 % 1029.4 hPa
2021-04-14 18:39:52 8.48 ℃ 40.13 % 1029.39 hPa
2021-04-14 18:30:01 8.45 ℃ 37.54 % 1029.43 hPa
2021-04-14 18:19:52 8.45 ℃ 34.44 % 1029.48 hPa
2021-04-14 18:09:52 8.67 ℃ 28.96 % 1029.39 hPa
2021-04-14 17:59:52 8.63 ℃ 29.15 % 1029.37 hPa
2021-04-14 17:49:52 8.6 ℃ 30.23 % 1029.37 hPa
2021-04-14 17:39:52 8.58 ℃ 29.74 % 1029.41 hPa
2021-04-14 17:29:52 8.64 ℃ 29.65 % 1029.41 hPa
2021-04-14 17:19:52 8.69 ℃ 30.57 % 1029.37 hPa
2021-04-14 17:10:54 8.8 ℃ 30.69 % 1029.35 hPa
2021-04-14 16:59:52 8.72 ℃ 30.43 % 1029.38 hPa
2021-04-14 16:49:52 8.65 ℃ 29.75 % 1029.44 hPa
2021-04-14 16:39:54 8.82 ℃ 30.17 % 1029.43 hPa
2021-04-14 16:29:52 8.72 ℃ 30.11 % 1029.47 hPa
2021-04-14 16:19:52 8.62 ℃ 30.58 % 1029.55 hPa
2021-04-14 16:09:52 8.56 ℃ 31.52 % 1029.63 hPa
2021-04-14 15:59:52 8.6 ℃ 31.44 % 1029.63 hPa
2021-04-14 15:49:52 8.55 ℃ 32.41 % 1029.71 hPa
2021-04-14 15:39:52 8.57 ℃ 32.76 % 1029.69 hPa
2021-04-14 15:29:52 8.6 ℃ 33.77 % 1029.72 hPa
2021-04-14 15:19:52 8.54 ℃ 35.23 % 1029.78 hPa
2021-04-14 15:09:52 8.22 ℃ 36.75 % 1029.88 hPa
2021-04-14 14:59:52 8.28 ℃ 39.25 % 1029.93 hPa
2021-04-14 14:49:52 8.38 ℃ 41.07 % 1029.91 hPa
2021-04-14 14:40:11 8.45 ℃ 44.15 % 1029.88 hPa
2021-04-14 14:29:52 8.29 ℃ 45.89 % 1029.92 hPa
2021-04-14 14:19:52 8.2 ℃ 47.17 % 1029.93 hPa
2021-04-14 14:09:52 8.26 ℃ 48.44 % 1029.93 hPa
2021-04-14 13:59:52 8.26 ℃ 49.79 % 1029.91 hPa
2021-04-14 13:49:52 8.36 ℃ 49.54 % 1029.89 hPa
2021-04-14 13:40:11 8.8 ℃ 48.66 % 1029.84 hPa
2021-04-14 13:29:52 8.7 ℃ 45.01 % 1029.87 hPa